     2.11           OBSERVATION DATA    G (GPS)             RINEX VERSION / TYPE
teqc 2010Oct21 OPUS Account 20111026 16:14:27UTC            PGM / RUN BY / DATE
Z 1522                                                      MARKER NAME
1179                                                        MARKER NUMBER
CSMIDDLETON NGS                                             OBSERVER / AGENCY
0220284361 TRIMBLE 5700 NP 1.22 / SP 1.22                   REC # / TYPE / VERS
12234991 TRM41249.00 NONE                                   ANT # / TYPE
  -744023.6176 -5505159.5047  3123436.1333                  APPROX POSITION XYZ
        2.0000        0.0000        0.0000                  ANTENNA: DELTA H/E/N
     1     1                                                WAVELENGTH FACT L1/2
     5    L1    L2    C1    P1    P2                        # / TYPES OF OBSERV
    15                                                      LEAP SECONDS
  2011     8     1     0     0    0.0000000     GPS         TIME OF FIRST OBS
                                                            END OF HEADER
 11  8  1  0  0  0.0000000  0  7G02G17G09G10G04G28G27
 103925355.38348  80993294.63346  21910448.0314                   21910445.3484
  88397957.31647  68894271.39146  21641118.5084                   21641116.3714
 107667128.09847  83908386.93645  22130251.2424                   22130250.3754
 113089939.31346  88133694.78244  22991003.5164                   22991004.1484
  88460872.04348  68944206.95847  19923612.6254                   19923611.3244
  83921559.87947  65403000.97045  22169589.5864                   22169588.3444
 101177620.39147  78851216.18145  22443952.2894                   22443951.8014
 11  8  1  0  0 30.0000000  0  7G02G17G09G10G04G28G27
 103822438.46548  80913099.69046  21890863.6024                   21890860.5394
  88397518.29347  68893929.28046  21641034.2194                   21641032.4654
 107624709.66447  83875333.61945  22122179.2034                   22122178.1764
 112966199.30546  88037274.11844  22967456.6024                   22967457.2894
  88431756.91048  68921519.84547  19918072.2034                   19918070.7304
  83948912.62147  65424314.75045  22174793.8914                   22174793.0594
 101147687.02047  78827891.43245  22438256.7344                   22438255.2934
 11  8  1  0  1  0.0000000  0  7G02G17G09G10G04G28G27
 103719857.64848  80833166.63546  21871343.0394                   21871340.2274
  88397166.06647  68893654.81046  21640967.6254                   21640965.3244
 107582934.68447  83842781.65345  22114229.9304                   22114228.8404
 112842616.91047  87940976.28244  22943939.8984                   22943941.0514
  88403197.27048  68899265.58146  19912637.8134                   19912636.1804
  83976639.99647  65445920.44145  22180070.6644                   22180069.8014
 101118238.93447  78804944.84945  22432652.4924                   22432651.8634
 11  8  1  0  1 30.0000000  0  7G02G17G09G10G04G28G27
 103617616.83248  80753498.51846  21851887.2584                   21851884.2774
  88396903.68447  68893450.36046  21640917.2814                   21640915.7154
 107541806.21147  83810733.47345  22106403.4924                   22106402.0824
 112719198.62547  87844806.28944  22920453.3594                   22920454.9264
  88375195.29348  68877445.86747  19907308.7894                   19907307.2234
  84004744.60247  65467820.09545  22185418.9844                   22185417.6524
 101089278.61347  78782378.30745  22427141.6954                   22427141.0394
 11  8  1  0  2  0.0000000  0  7G02G17G09G10G04G28G27
 103515710.34448  80674090.91546  21832495.2114                   21832491.8554
  88396724.37547  68893310.64746  21640883.1254                   21640881.3484
 107501316.71947  83779183.20545  22098698.8674                   22098697.5314
 112595941.05547  87748761.55945  22896998.3524                   22896999.4144
  88347743.13748  68856054.57647  19902085.2814                   19902083.5704
  84033219.75447  65490008.47445  22190837.4774                   22190836.3244
 101060798.75847  78760186.17845  22421722.3204                   22421721.6454
 11  8  1  0  2 30.0000000  0  7G02G17G09G10G04G28G27
 103414139.31648  80594944.70646  21813167.0004                   21813163.4844
  88396627.88748  68893235.46446  21640864.5864                   21640862.9454
 107461465.99647  83748130.67145  22091115.3754                   22091113.6724
 112472847.63747  87652844.71845  22873574.5864                   22873575.7274
  88320839.68448  68835090.85047  19896965.5474                   19896964.0394
  84062064.79347  65512485.07745  22196326.2974                   22196324.8134
 101032798.39847  78738367.68045  22416393.5314                   22416392.8284
 11  8  1  0  3  0.0000000  0  7G02G17G09G10G04G28G27
 103312906.31648  80516061.88446  21793902.5634                   21793899.6294
  88396616.05148  68893226.23846  21640862.7344                   21640860.6764
 107422255.35247  83717576.89145  22083653.5164                   22083652.5314
 112349923.21147  87557059.58145  22850183.1954                   22850184.0744
  88294485.26248  68814554.94847  19891950.2814                   19891948.6054
  84091280.74647  65535250.71145  22201886.3204                   22201885.4574
 101005278.39847  78716923.49745  22411157.2734                   22411156.2814
 11  8  1  0  3 30.0000000  0  7G02G17G09G10G04G28G27
 103212013.49248  80437444.14746  21774703.2664                   21774700.2934
  88396689.61748  68893283.55146  21640876.4924                   21640874.7424
 107383685.71147  83687522.59445  22076314.3984                   22076312.9884
 112227172.19147  87461409.56044  22826824.8204                   22826824.6844
  88268679.88748  68794446.87847  19887039.8594                   19887038.6374
  84120868.53147  65558306.07945  22207516.5474                   22207515.2154
 100978238.92247  78695853.74145  22406011.4774                   22406010.8204
 11  8  1  0  4  0.0000000  0  7G02G17G09G10G04G28G27
 103111456.23448  80359087.88646  21755567.7664                   21755564.9884
  88396842.94948  68893403.01946  21640906.0314                   21640904.0354
 107345751.02747  83657963.05645  22069095.3054                   22069094.0204
 112104592.47747  87365893.04345  22803497.8984                   22803498.9024
  88243416.78548  68774761.35247  19882232.6334                   19882230.8714
  84150822.25447  65581646.60045  22213216.7734                   22213215.5274
 100951673.75447  78675153.56645  22400956.5554                   22400955.8634
 11  8  1  0  4 30.0000000  0  7G02G17G09G10G04G28G27
 103011234.85548  80280993.35346  21736496.2584                   21736493.2894
  88397075.71548  68893584.38846  21640950.2034                   21640948.2114
 107308450.48847  83628897.69445  22061996.8984                   22061996.1804
 111982186.82447  87270512.15444  22780204.5084                   22780205.5824
  88218694.66848  68755497.38646  19877527.9304                   19877526.1024
  84181140.83647  65605271.42045  22218986.0004                   22218984.8594
 100925581.85248  78654822.19045  22395991.4384                   22395991.0044
 11  8  1  0  5  0.0000000  0  7G02G17G09G10G04G28G27
 102911355.05148  80203164.96346  21717489.8984                   21717486.9224
  88397392.91448  68893831.54346  21641010.7194                   21641008.8134
 107271788.38747  83600329.79645  22055020.9384                   22055020.1214
 111859963.48047  87175273.31344  22756946.0864                   22756946.8984
  88194517.18048  68736657.79747  19872927.1724                   19872925.7074
  84211828.64147  65629183.94545  22224825.7504                   22224824.4304
 100899967.16447  78634862.65645  22391117.4064                   22391116.5514
 11  8  1  0  5 30.0000000  0  8G02G17G09G10G04G28G27G12
 102811819.85948  80125605.11246  21698548.9454                   21698546.1254
  88397796.36348  68894145.90046  21641087.2584                   21641085.6994
 107235766.08247  83572260.44145  22048165.9304                   22048164.9734
 111737927.60547  87080180.55844  22733723.4064                   22733724.7934
  88170884.67248  68718242.86247  19868429.7504                   19868428.2894
  84242887.33647  65653385.44745  22230735.9774                   22230734.0204
 100874830.82447  78615275.85645  22386333.6724                   22386332.8284
 122849665.91416                  24340937.555
 11  8  1  0  6  0.0000000  0  8G02G17G09G10G04G28G27G12
 102712633.68848  80048317.21646  21679674.5634                   21679671.5164
  88398289.48848  68894530.13146  21641180.8364                   21641179.5354
 107200386.50047  83544691.92845  22041433.6254                   22041432.3954
 111616085.96947  86985239.13545  22710537.5474                   22710538.1564
  88147799.77748  68700254.65247  19864037.0394                   19864035.5274
  84274319.41847  65677877.94845  22236717.3364                   22236716.1604
 100850175.34447  78596063.76845  22381642.2584                   22381641.0864
 122718963.17246  95636719.66043  24316064.9144                   24316063.4574
 11  8  1  0  6 30.0000000  0  8G02G17G09G10G04G28G27G12
 102613778.60548  79971287.32146  21660862.8134                   21660859.7194
  88398853.72347  68894969.78246  21641288.5004                   21641286.8554
 107165630.65247  83517609.40845  22034819.6414                   22034818.4734
 111494423.57047  86890437.37545  22687386.1484                   22687387.0314
  88125242.19548  68682677.34147  19859744.0864                   19859743.2114
  84306106.00047  65702646.64345  22242766.1174                   22242765.3554
 100825981.11748  78577211.10845  22377038.1484                   22377037.8284
 122588253.88746  95534868.27543  24291192.2974                   24291190.3014
 11  8  1  0  7  0.0000000  0  8G02G17G09G10G04G28G27G12
 102515251.03148  79894512.63446  21642113.5234                   21642110.6214
  88399484.54348  68895461.29846  21641408.6724                   21641406.8134
 107131493.27047  83491008.81945  22028323.7734                   22028322.6254
 111372939.06347  86795774.24245  22664268.5784                   22664269.2854
  88103206.20348  68665506.44847  19855551.0704                   19855549.4734
  84338241.82847  65727687.49045  22248881.6884                   22248880.8094
 100802242.71947  78558713.61245  22372520.7814                   22372519.9224
 122457535.03146  95433009.51243  24266316.8984                   24266315.6884
 11  8  1  0  7 30.0000000  0  8G02G17G09G10G04G28G27G12
 102417058.36748  79817998.92346  21623427.9774                   21623425.0744
  88400188.26248  68896009.63646  21641542.4924                   21641540.4384
 107097980.23047  83464894.74445  22021945.8984                   22021945.7544
 111251642.37547  86701257.45845  22641185.9534                   22641186.9184
  88081697.16048  68648746.18347  19851458.0784                   19851456.6094
  84370732.91847  65753005.17045  22255064.8134                   22255063.9224
 100778965.84447  78540575.77445  22368091.2114                   22368090.6334
 122326815.09046  95331149.91943  24241441.9844                   24241440.4804
 11  8  1  0  8  0.0000000  0  8G02G17G09G10G04G28G27G12
 102319205.80948  79741750.22146  21604807.3204                   21604804.3954
  88400969.34048  68896618.24246  21641691.2894                   21641689.2774
 107065095.39847  83439270.18445  22015688.3444                   22015687.8984
 111130540.91047  86606892.79845  22618140.4844                   22618141.8524
  88060718.10948  68632398.88147  19847465.8914                   19847464.4774
  84403583.09047  65778602.64445  22261315.8914                   22261314.9454
 100756154.12147  78522800.36845  22363750.6254                   22363749.8204
 122196100.14846  95229294.12043  24216567.2894                   24216566.2464
 11  8  1  0  8 30.0000000  0  8G02G17G09G10G04G28G27G12
 102221696.89848  79665769.29346  21586252.0634                   21586248.8984
  88401830.43448  68897289.19646  21641855.0784                   21641853.2704
 107032840.46947  83414136.44045  22009550.4844                   22009549.5634
 111009641.01646  86512685.20445  22595134.6954                   22595135.6844
  88040270.49648  68616465.68347  19843574.8204                   19843573.4384
  84436794.45747  65804481.56845  22267635.7424                   22267634.6484
 100733809.00447  78505388.56945  22359498.5164                   22359497.7584
 122065394.83246  95127445.90443  24191694.6254                   24191693.9534
 11  8  1  0  9  0.0000000  0  8G02G17G09G10G04G28G27G12
 102124531.74648  79590056.24046  21567762.1254                   21567759.4804
  88402770.96148  68898022.04246  21642033.8364                   21642032.1724
 107001214.16447  83389492.54845  22003531.9224                   22003531.4654
 110888945.48847  86418636.85845  22572166.8054                   22572167.7734
  88020352.26648  68600944.99947  19839784.3834                   19839783.1484
  84470365.82447  65830641.01145  22274024.1884                   22274023.1604
 100711929.08247  78488339.25845  22355334.7584                   22355334.2894
 121934700.35947  95025606.16944  24166824.5784                   24166823.1914
 11  8  1  0  9 30.0000000  0  8G02G17G09G10G04G28G27G12
 102027713.92648  79514613.81846  21549338.2344                   21549335.2704
  88403794.16847  68898819.32346  21642228.8444                   21642226.7504
 106970218.49247  83365340.05845  21997633.7974                   21997633.2584
 110768460.14147  86324752.29045  22549239.2584                   22549240.2074
  88000964.62148  68585837.74447  19836095.2274                   19836093.4184
  84504299.26647  65857082.59245  22280481.4694                   22280480.5514
 100690516.03548  78471653.74945  22351260.3594                   22351259.1454
 121804021.05147  94923778.11044  24141957.4144                   24141955.6374
 11  8  1  0 10  0.0000000  0  8G02G17G09G10G04G28G27G12
 101931246.58248  79439444.50446  21530981.1804                   21530978.0004
  88404901.91847  68899682.49546  21642439.8364                   21642437.5784
 106939854.60547  83341679.85545  21991856.2814                   21991855.0514
 110648190.36747  86231035.68145  22526352.3984                   22526353.3794
  87982108.42248  68571144.59747  19832506.8674                   19832505.3484
  84538596.11347  65883807.34345  22287008.0004                   22287006.7384
 100669571.09047  78455332.98045  22347274.2274                   22347273.9534
 121673361.42247  94821965.48844  24117093.5864                   24117092.7664
 11  8  1  0 10 30.0000000  0  8G02G17G09G10G04G28G27G12
 101835131.29748  79364549.52246  21512691.0084                   21512688.0314
  88406095.15648  68900612.28446  21642666.3984                   21642664.4884
 106910122.88347  83318512.26245  21986198.3674                   21986197.3484
 110528140.86747  86137490.74845  22503507.8984                   22503508.5744
  87963783.51248  68556865.44747  19829019.9534                   19829018.5314
  84573257.11347  65910815.84345  22293604.2894                   22293603.3094
 100649094.05548  78439376.84345  22343377.3054                   22343377.2274
 121542724.27047  94720170.34944  24092233.4144                   24092233.2504
 11  8  1  0 11  0.0000000  0  8G02G17G09G10G04G28G27G12
 101739372.09848  79289931.99946  21494468.1564                   21494465.2734
  88407377.35948  68901611.39046  21642910.7974                   21642908.6884
 106881025.64147  83295839.06345  21980660.8054                   21980660.2344
 110408318.31346  86044122.64845  22480705.8834                   22480707.3364
  87945991.60548  68543001.62047  19825634.2344                   19825632.6414
  84608284.73047  65938110.02545  22300269.7194                   22300268.3404
 100629087.23047  78423787.07345  22339570.4304                   22339570.2384
 121412114.68847  94618396.72044  24067379.3444                   24067379.0044
 11  8  1  0 11 30.0000000  0  8G02G17G09G10G04G28G27G12
 101643967.38348  79215590.68746  21476313.8054                   21476310.6374
  88408746.09448  68902677.94146  21643170.7894                   21643169.6484
 106852559.84047  83273657.88045  21975244.7114                   21975243.7664
 110288723.62947  85950932.10445  22457948.1094                   22457949.3674
  87928728.78548  68529550.06147  19822349.1484                   19822347.6214
  84643675.69147  65965687.32445  22307004.1484                   22307002.9694
 100609547.23448  78408561.09245  22335851.9144                   22335851.8204
 121281532.12147  94516644.05944  24042530.6254                   24042529.8324
 11  8  1  0 12  0.0000000  0  8G02G17G09G10G04G28G27G12
 101548917.16448  79141525.61546  21458225.5164                   21458223.2034
  88410200.71547  68903811.40746  21643447.8054                   21643446.5084
 106824723.87147  83251967.50045  21969947.5234                   21969946.3524
 110169359.32847  85857921.07245  22435233.9694                   22435234.3914
  87911992.71548  68516508.96747  19819164.6484                   19819162.7934
  84679428.75447  65993546.77245  22313808.3284                   22313806.8204
 100590471.94947  78393697.20345  22332222.7034                   22332221.9534
 121150977.58647  94414913.29744  24017686.8754                   24017686.4774
 11  8  1  0 12 30.0000000  0  8G02G17G09G10G04G28G27G12
 101454215.38348  79067732.06346  21440204.8914                   21440201.8714
  88411734.58248  68905006.62246  21643739.9144                   21643738.3284
 106797509.89547  83230761.77845  21964768.3364                   21964767.8754
 110050221.50447  85765086.50345  22412562.3364                   22412563.2584
  87895775.31648  68503872.03047  19816078.2664                   19816076.6994
  84715535.91847  66021682.17845  22320678.5784                   22320677.4884
 100571853.52047  78379189.30345  22328679.4614                   22328678.6414
 121020446.41847  94313200.70544  23992847.8984                   23992846.8484
 11  8  1  0 13  0.0000000  0  8G02G17G09G10G04G28G27G12
 101359870.31648  78994216.46546  21422251.2424                   21422248.5944
  88413355.24648  68906269.46946  21644048.4534                   21644046.8754
 106770924.68847  83210046.01145  21959710.0944                   21959708.9264
 109931321.49247  85672437.24145  22389936.7274                   22389937.0394
  87880082.66048  68491643.98947  19813091.8984                   19813090.6884
  84752004.55947  66050099.22845  22327618.4064                   22327617.1644
 100553698.36347  78365042.39945  22325224.7034                   22325224.2114
 120889948.23047  94211513.85444  23968014.6804                   23968013.9804
 11  8  1  0 13 30.0000000  0  8G02G17G09G10G04G28G27G12
 101265882.04748  78920978.89446  21404365.8834                   21404362.9104
  88415062.36348  68907599.67846  21644373.1724                   21644371.7384
 106744966.32047  83189818.70845  21954770.3284                   21954769.2734
 109812661.86747  85579975.27245  22367356.7734                   22367356.1414
  87864912.26248  68479822.90247  19810205.1254                   19810203.8444
  84788833.01647  66078796.63545  22334627.1414                   22334625.8984
 100536004.57047  78351254.99345  22321857.8914                   22321857.2384
 120759484.05547  94109853.49244  23943187.7274                   23943186.7424
 11  8  1  0 14  0.0000000  0  8G02G17G09G10G04G28G27G12
 101172252.94948  78848021.17946  21386549.1254                   21386546.0004
  88416857.52748  68908998.48746  21644714.6334                   21644713.2274
 106719635.62547  83170080.48645  21949949.7114                   21949948.9804
 109694247.84847  85487704.72245  22344823.0004                   22344822.9184
  87850264.68848  68468409.21147  19807417.8914                   19807416.4454
  84826022.68847  66107775.52645  22341704.4694                   22341702.7704
 100518773.01247  78337827.77645  22318578.8674                   22318578.1994
 120629057.68047  94008222.59844  23918368.7664                   23918367.6374
 11  8  1  0 14 30.0000000  0  8G02G17G09G10G04G28G27G12
 101078979.77048  78775340.83346  21368799.9224                   21368796.7464
  88418737.47748  68910463.37846  21645072.6414                   21645070.6414
 106694927.65247  83150827.51045  21945248.2734                   21945247.3954
 109576079.24647  85395625.36245  22322336.2664                   22322335.5944
  87836134.55548  68457398.72547  19804729.1644                   19804727.3954
  84863568.66047  66137032.06845  22348848.8834                   22348847.9574
 100501998.59847  78324756.77645  22315386.7584                   22315386.2584
 120498667.34847  93906619.77744  23893556.6724                   23893554.9144
 11  8  1  0 15  0.0000000  0  8G02G17G09G10G04G28G27G12
 100986067.86348  78702941.98846  21351119.1174                   21351116.2974
  88420706.02048  68911997.29446  21645447.1024                   21645445.3204
 106670845.64847  83132062.30745  21940666.0474                   21940664.6054
 109458163.25447  85303742.87545  22299897.6564                   22299898.2704
  87822524.48048  68446793.48147  19802138.9614                   19802137.4804
  84901474.40247  66166568.91645  22356061.9384                   22356061.5124
 100485684.36747  78312044.36945  22312281.6484                   22312281.4414
 120368319.31647  93805049.91244  23868751.9534                   23868750.4884
 11  8  1  0 15 30.0000000  0  8G02G17G09G10G04G28G27G12
 102468937.30147  79858424.70746  21633299.7194                   21633296.6954
  89998180.14548  70141197.90746  21945630.4774                   21945628.5784
 108222806.04347  84341382.07345  22235993.6024                   22235992.8284
 110915924.03147  86439660.45145  22577299.9454                   22577300.3404
  89384850.16848  69664190.12547  20099439.7814                   20099438.4344
  86515154.66847  67423982.03945  22663135.2584                   22663134.9224
 102045246.18047  79527287.31845  22609056.8524                   22609056.0864
 121813436.68847  94931115.46444  24143748.6884                   24143747.3444
 11  8  1  0 16  0.0000000  0  8G02G17G09G10G04G28G27G12
 102376738.30148  79786581.38846  21615754.9144                   21615751.8554
  90000315.53948  70142861.82746  21946036.6644                   21946035.0984
 108199961.56647  84323581.17245  22231646.7194                   22231645.9884
 110798512.57847  86348171.12645  22554957.2114                   22554957.6724
  89372264.31348  69654382.97046  20097044.7344                   20097043.2154
  86553766.32047  67454068.95445  22670482.9844                   22670482.2894
 102029837.11747  79515280.20645  22606124.7734                   22606124.0784
 121683168.23046  94829607.62943  24118958.5394                   24118957.2154
 11  8  1  0 16 30.0000000  0  8G02G17G09G10G04G28G27G12
 102284905.68448  79715023.56846  21598279.5234                   21598276.7234
  90002543.53948  70144597.91746  21946460.4774                   21946458.8754
 108177743.00447  84306267.99245  22227418.7734                   22227417.5824
 110681366.73847  86256888.75045  22532664.9144                   22532665.6094
  89360196.98048  69644979.85346  20094748.4384                   20094746.8444
  86592738.45747  67484436.77745  22677898.7814                   22677898.4774
 102014887.75847  79503631.32545  22603279.8134                   22603279.1764
 121552950.74246  94728139.49544  24094180.1024                   24094177.7894
 11  8  1  0 17  0.0000000  0  8G02G17G09G10G04G28G27G12
 102193428.43848  79643742.64946  21580872.3284                   21580869.1334
  90004852.66847  70146397.21546  21946900.2274                   21946898.1524
 108156137.76247  84289432.73245  22223307.0784                   22223306.4804
 110564479.00047  86165807.48645  22510421.9844                   22510421.5314
  89348635.24648  69635970.70546  20092548.4384                   20092546.5824
  86632059.23447  67515076.25845  22685381.6484                   22685381.4144
 102000385.39147  79492330.73545  22600520.6484                   22600519.4734
 121422775.24646  94626704.13044  24069408.4774                   24069406.2234
 11  8  1  0 17 30.0000000  0  8G02G17G09G10G04G28G27G12
 102102315.52748  79572745.62746  21563533.7974                   21563530.8914
  90007251.68848  70148266.57546  21947356.6884                   21947354.9654
 108135152.81648  84273080.84245  22219314.1484                   22219313.1454
 110447861.14147  86074936.52845  22488230.1174                   22488230.2544
  89337585.77048  69627360.73447  20090445.4694                   20090443.9654
  86671735.84447  67545992.99844  22692931.8134                   22692931.6484
 101986337.09847  79481383.97445  22597846.9384                   22597846.4144
 121292652.55146  94525309.79144  24044646.9454                   24044644.3134
 11  8  1  0 18  0.0000000  0  8G02G17G09G10G04G28G27G12
 102011563.02348  79502029.45546  21546263.9774                   21546261.1724
  90009736.04747  70150202.41846  21947829.4304                   21947828.1174
 108114782.44547  84257207.80745  22215437.4844                   22215436.6914
 110331511.76647  85984274.77345  22466089.7664                   22466089.4494
  89327042.23048  69619144.98946  20088439.2894                   20088437.6334
  86711762.60947  67577182.61145  22700549.0164                   22700548.3914
 101972736.94547  79470786.41945  22595259.1954                   22595258.4534
 121162579.78546  94423954.45444  24019894.3284                   24019893.2424
 11  8  1  0 18 30.0000000  0  8G02G17G09G10G04G28G27G12
 101921169.67648  79431593.13046  21529062.7734                   21529059.9304
  90012303.88747  70152203.30746  21948318.2344                   21948316.7154
 108095023.33247  84241811.09045  22211677.6484                   22211676.8874
 110215432.23847  85893823.29645  22444000.3594                   22444000.4924
  89317001.16848  69611320.78047  20086528.6884                   20086526.9494
  86752137.21547  67608643.25445  22708232.0004                   22708231.1484
 101959581.61347  79460535.44845  22592755.4694                   22592755.1684
 121032556.98847  94322638.02344  23995152.2274                   23995150.4734
 11  8  1  0 19  0.0000000  0  8G02G17G09G10G04G28G27G12
 101831140.59448  79361440.65246  21511930.9384                   21511927.5234
  90014959.83247  70154272.84946  21948823.5234                   21948821.8984
 108075878.80547  84226893.27145  22208034.4534                   22208033.4844
 110099630.07847  85803587.94245  22421964.0234                   22421963.9734
  89307465.15648  69603890.13446  20084713.9384                   20084712.3444
  86792862.93847  67640377.50845  22715982.1414                   22715981.1024
 101946873.92247  79450633.31445  22590337.4144                   22590337.1454
 120902590.71947  94221365.62544  23970420.2424                   23970418.3134
 11  8  1  0 19 30.0000000  0  8G02G17G09G10G04G28G27G12
 101741471.16848  79291568.43346  21494867.3284                   21494864.0784
  90017699.34448  70156407.51146  21949345.0394                   21949342.9384
 108057342.37547  84212449.29445  22204506.7664                   22204506.3404
 109984103.87147  85713567.60945  22399980.3204                   22399979.6134
  89298427.54748  69596847.83647  20082993.9224                   20082992.3404
  86833933.93847  67672380.83744  22723797.3524                   22723796.6804
 101934607.60947  79441075.10945  22588003.4064                   22588002.5594
 120772677.93846  94120134.91444  23945698.6564                   23945697.1414
 11  8  1  0 20  0.0000000  0  8G02G17G09G10G04G28G27G12
 101652164.40648  79221978.80446  21477873.0554                   21477869.8674
  90020524.96547  70158609.28046  21949882.6094                   21949880.9964
 108039415.38747  84198480.20245  22201096.1484                   22201095.2274
 109868859.71947  85623767.06345  22378049.9774                   22378049.5204
  89289889.31648  69590194.67946  20081369.3674                   20081367.7734
  86875351.68847  67704654.33645  22731678.5554                   22731678.2974
 101922783.91447  79431861.79845  22585753.2664                   22585752.5634
 120642823.34047  94018949.58644  23920988.3444                   23920986.8914
 11  8  1  0 20 30.0000000  0  8G02G17G09G10G04G28G27G12
 101563220.64848  79152672.03946  21460947.3914                   21460944.2274
  90023436.80947  70160878.21846  21950436.7734                   21950435.1174
 108022096.04747  84184984.59745  22197799.7114                   22197798.8754
 109753900.29347  85534188.38845  22356173.2274                   22356173.6764
  89281848.19148  69583928.86846  20079838.9224                   20079837.9064
  86917115.13347  67737197.19344  22739626.2114                   22739625.6094
 101911401.17247  79422992.07945  22583587.0164                   22583586.2304
 120513028.91047  93917811.08344  23896289.3134                   23896286.8364
 11  8  1  0 21  0.0000000  0  8G02G17G09G10G04G28G27G12
 101474642.63748  79083650.26846  21444091.4454                   21444088.2934
  90026436.93047  70163215.95546  21951007.4534                   21951005.9654
 108005385.17647  84171963.10845  22194620.2584                   22194619.4614
 109639231.39547  85444836.08045  22334353.0084                   22334352.3134
  89274304.89148  69578050.97246  20078403.7114                   20078402.3754
  86959225.43447  67770010.31844  22747640.3914                   22747638.9734
 101900460.06647  79414466.52245  22581505.4534                   22581504.2934
 120383298.83247  93816722.74944  23871601.9844                   23871600.8244
 11  8  1  0 21 30.0000000  0  8G02G17G09G10G04G28G27G12
 101386426.39848  79014910.39746  21427304.4064                   21427300.9924
  90029521.24647  70165619.29446  21951594.6884                   21951592.9024
 107989276.79347  84159411.09445  22191554.9224                   22191553.8754
 109524851.62147  85355709.07845  22312586.4614                   22312587.5474
  89267253.03548  69572556.02346  20077061.6724                   20077060.4024
  87001677.26647  67803089.60544  22755718.1094                   22755718.3244
 101889954.69947  79406280.47045  22579506.4304                   22579505.7384
 120253630.62947  93715682.66544  23846926.9844                   23846925.5944
 11  8  1  0 22  0.0000000  0  8G02G17G09G10G04G28G27G12
 101298575.23048  78946454.97246  21410587.0084                   21410583.5664
  90032692.81647  70168090.61946  21952198.4534                   21952196.7194
 107973772.43447  84147329.76945  22188604.5474                   22188603.3954
 109410767.68047  85266812.58845  22290877.0004                   22290877.1564
  89260693.70348  69567444.86646  20075813.5004                   20075812.1884
  87044472.29347  67836436.28544  22763861.7814                   22763861.4574
 101879886.64547  79398435.19145  22577590.5164                   22577590.0944
 120124029.25847  93614694.65044  23822264.4454                   23822263.7274
 11  8  1  0 22 30.0000000  0  8G02G17G09G10G04G28G27G12
 101211090.53148  78878285.13746  21393939.1174                   21393935.9694
  90035952.56647  70170630.65746  21952818.7894                   21952816.8834
 107958871.01248  84135718.24945  22185769.2344                   22185768.2464
 109296983.16847  85178149.40145  22269224.6334                   22269224.1524
  89254625.86348  69562716.67546  20074658.9224                   20074657.5704
  87087610.53547  67870050.41945  22772070.8364                   22772070.6414
 101870254.91047  79390929.89245  22575757.8364                   22575757.1764
 119994497.73047  93513761.07044  23797615.8364                   23797614.3014
 11  8  1  0 23  0.0000000  0  8G02G17G09G10G04G28G27G12
 101123970.31348  78810399.27146  21377360.5084                   21377357.5274
  90039298.83648  70173238.11946  21953455.0234                   21953453.5124
 107944569.03147  84124573.81245  22183047.2034                   22183046.4024
 109183499.03947  85089720.28945  22247629.2274                   22247629.1024
  89249045.44548  69558368.28546  20073596.9534                   20073595.4774
  87131088.55147  67903929.29544  22780344.5004                   22780343.7344
 101861055.86347  79383761.76445  22574006.9454                   22574006.6684
 119865035.88747  93412881.79744  23772979.2974                   23772978.5904
 11  8  1  0 23 30.0000000  0  8G02G17G09G10G04G28G27G12
 101037214.57448  78742797.42846  21360851.4454                   21360848.2304
  90042731.07048  70175912.56546  21954108.0704                   21954106.5904
 107930864.57447  84113894.98745  22180439.3984                   22180438.4774
 109070318.42647  85001527.68245  22226091.3754                   22226091.2734
  89243950.34848  69554398.08746  20072627.3914                   20072625.7934
  87174904.84847  67938071.78845  22788682.1024                   22788682.3484
 101852287.59047  79376929.28745  22572338.2974                   22572338.4264
 119735645.42647  93312058.16344  23748356.9454                   23748356.3444
 11  8  1  0 24  0.0000000  0  8G02G17G09G10G04G28G27G12
 100950827.24248  78675482.67546  21344412.4774                   21344409.1334
  90046252.83648  70178656.78146  21954778.4774                   21954776.8364
 107917759.04347  84103682.85345  22177945.6804                   22177944.7344
 108957447.82447  84913576.64845  22204612.5704                   22204612.5514
  89239341.70348  69550806.93446  20071750.4614                   20071749.1174
  87219061.62147  67972479.58845  22797085.5634                   22797085.2464
 101843951.58247  79370433.64545  22570752.7974                   22570752.2704
 119606331.66447  93211294.27444  23723749.6334                   23723748.3984
 11  8  1  0 24 30.0000000  0  8G02G17G09G10G04G28G27G12
 100864799.03148  78608447.73846  21328041.6724                   21328038.4224
  90049854.92647  70181463.57946  21955463.9534                   21955462.5864
 107905241.39847  84093928.78345  22175563.6174                   22175562.8594
 108844880.85247  84825862.18945  22183192.2274                   22183192.1374
  89235208.07048  69547585.91546  20070963.8204                   20070962.4614
  87263548.34447  68007144.46645  22805551.1954                   22805550.6024
 101836036.62147  79364266.08645  22569246.4774                   22569245.7504
 119477087.01647  93110584.24244  23699155.3834                   23699154.1174
 11  8  1  0 25  0.0000000  0  8G02G17G09G10G04G28G27G12
 100779135.56648  78541697.00546  21311740.4694                   21311737.5004
  90053542.26247  70184336.80146  21956165.4924                   21956163.9964
 107893315.20747  84084635.60545  22173293.8914                   22173293.3594
 108732625.92647  84738390.92645  22161830.7274                   22161830.4384
  89231552.79348  69544737.64646  20070268.2274                   20070266.5004
  87308368.84047  68042069.43245  22814080.3364                   22814080.5474
 101828546.47747  79358429.55645  22567821.1334                   22567820.9654
 119347918.92247  93009933.83644  23674575.1644                   23674573.9384
 11  8  1  0 25 30.0000000  0  8G02G17G09G10G04G28G27G12
 100693837.60548  78475231.09846  21295509.2584                   21295505.9964
  90057315.77347  70187277.18946  21956883.8054                   21956882.0234
 107881979.11347  84075802.23845  22171137.0704                   22171135.9454
 108620686.73847  84651165.67145  22140529.0084                   22140528.8754
  89228374.39848  69542260.97146  20069663.6414                   20069661.6804
  87353522.43847  68077253.98345  22822672.3134                   22822672.4654
 101821479.92647  79352923.10745  22566476.4774                   22566476.0274
 119218830.00047  92909345.15644  23650010.9534                   23650009.4964
 11  8  1  0 26  0.0000000  0  8G02G17G09G10G04G28G27G12
 100608905.82848  78409050.50746  21279346.7034                   21279343.3054
  90061176.27347  70190285.33146  21957618.5554                   21957616.6484
 107871231.73447  84067427.60845  22169091.9614                   22169090.8754
 108509067.13347  84564189.44845  22119288.7114                   22119288.6804
  89225671.57048  69540154.85747  20069149.1724                   20069147.4804
  87399008.81647  68112697.81044  22831328.9924                   22831328.4064
 101814835.77047  79347745.78445  22565212.0234                   22565211.3834
 119089823.09847  92808820.33144  23625461.0944                   23625459.8134
 11  8  1  0 26 30.0000000  0  8G02G17G09G10G04G28G27G12
 100524338.68048  78343154.06646  21263254.3054                   21263250.9884
  90065121.98847  70193359.90146  21958369.1804                   21958367.7854
 107861069.40647  84059508.85845  22167157.6484                   22167157.1764
 108397768.48047  84477463.32545  22098108.8524                   22098108.9304
  89223440.33648  69538416.23246  20068724.7584                   20068723.1024
  87444824.70347  68148398.40544  22840046.9844                   22840046.7384
 101808610.21147  79342894.65245  22564027.5474                   22564027.2034
 118960897.75447  92708359.06944  23600927.5164                   23600925.8014
 11  8  1  0 27  0.0000000  0  8G02G17G09G10G04G28G27G12
 100440136.54348  78277542.04846  21247230.9774                   21247228.0084
  90069153.19547  70196501.07646  21959136.8284                   21959134.4534
 107851490.25047  84052044.52145  22165335.3364                   22165334.9534
 108286793.50047  84390989.40245  22076991.4064                   22076991.3094
  89221678.55948  69537043.42046  20068389.2814                   20068387.6254
  87490968.75847  68184354.72844  22848828.1094                   22848827.7774
 101802801.72747  79338368.48945  22562922.1564                   22562921.4494
 118832056.31347  92607963.16844  23576409.8984                   23576407.7344
 11  8  1  0 27 30.0000000  0  8G02G17G09G10G04G28G27G12
 100356295.72748  78212211.57946  21231276.6954                   21231273.4574
  90073266.22747  70199706.02246  21959919.3674                   21959917.6374
 107842488.71947  84045030.28645  22163622.4144                   22163621.2974
 108176142.00048  84304767.55245  22055935.3754                   22055934.7464
  89220380.66848  69536032.07246  20068142.2194                   20068140.6764
  87537436.02047  68220562.89944  22857670.5864                   22857670.9224
 101797404.85547  79334163.08745  22561895.0634                   22561894.8714
 118703297.37547  92507631.54244  23551907.7424                   23551906.1094
 11  8  1  0 28  0.0000000  0  8G02G17G09G10G04G28G27G12
 100272823.31648  78147168.17046  21215392.4454                   21215388.7894
  90077467.68448  70202979.86746  21960718.9224                   21960716.8594
 107834069.84847  84038470.07345  22162020.2034                   22162019.2974
 108065823.85947  84218805.45345  22034942.2114                   22034942.5474
  89219551.23448  69535385.76346  20067984.3204                   20067983.1054
  87584232.02747  68257027.24944  22866575.0004                   22866575.0004
 101792424.32847  79330282.10545  22560946.9224                   22560947.2194
 118574630.08247  92407371.31444  23527423.0084                   23527421.2464
 11  8  1  0 28 30.0000000  0  8G02G17G09G10G04G28G27G12
 100189716.72348  78082409.81446  21199577.6024                   21199574.4414
  90081755.20747  70206320.78246  21961534.8364                   21961533.0124
 107826228.60947  84032359.96545  22160528.2344                   22160527.6954
 107955839.01247  84133103.06145  22014012.6024                   22014012.9184
  89219185.25448  69535100.59146  20067914.7664                   20067912.9614
  87631352.77047  68293744.61544  22875542.0474                   22875542.0084
 101787855.73047  79326722.11445  22560077.9924                   22560077.7624
 118446052.84847  92307181.25344  23502955.6414                   23502954.4734
 11  8  1  0 29  0.0000000  0  8G02G17G09G10G04G28G27G12
 100106975.78948  78017936.39846  21183832.7584                   21183829.3914
  90086128.92648  70209728.86146  21962367.0554                   21962365.2154
 107818962.96147  84026698.35245  22159145.7504                   22159145.2194
 107846190.50847  84047662.74145  21993147.2664                   21993147.0164
  89219280.47348  69535174.80546  20067932.8834                   20067931.2274
  87678796.54347  68330713.71244  22884571.1724                   22884570.0434
 101783696.72747  79323481.27345  22559286.6484                   22559286.4694
 118317567.88347  92207063.10744  23478505.6724                   23478504.4414
 11  8  1  0 29 30.0000000  0  8G02G17G09G10G04G28G27G12
 100024599.30548  77953746.98646  21168156.8984                   21168153.8134
  90090587.53147  70213203.09045  21963215.3364                   21963213.5124
 107812269.51247  84021482.63345  22157871.7814                   22157871.2504
 107736880.32847  83962486.06145  21972346.0004                   21972345.8364
  89219833.23848  69535605.54147  20068037.9844                   20068036.4654
  87726560.62547  68367932.41244  22893660.5004                   22893660.0354
 101779944.00447  79320557.03945  22558572.2664                   22558572.4574
 118189175.91047  92107017.41844  23454073.8754                   23454071.9884
 11  8  1  0 30  0.0000000  0  8G02G17G09G10G04G28G27G12
  99942583.53948  77889838.61646  21152549.8364                   21152546.5274
  90095127.00848  70216740.33446  21964078.9694                   21964077.6054
 107806141.94147  84016707.84045  22156706.1484                   22156705.4384
 107627907.59847  83877572.30145  21951609.3834                   21951609.5944
  89220837.79748  69536388.32446  20068229.0084                   20068227.9264
  87774640.03547  68405396.79644  22902809.5234                   22902808.4024
 101776591.80947  79317944.86545  22557934.2194                   22557934.3834
 118060875.28147  92007042.88444  23429659.0784                   23429657.6954
 11  8  1  0 30 30.0000000  0  8G02G17G09G10G04G28G27G12
  99860933.51648  77826215.26046  21137012.4304                   21137008.9264
  90099752.63348  70220344.71646  21964959.4694                   21964957.8524
 107800583.35547  84012376.43145  22155648.4844                   22155647.1724
 107519280.05547  83792927.52945  21930937.8364                   21930937.5124
  89222296.69948  69537525.14646  20068507.1094                   20068505.2664
  87823038.04347  68443109.47344  22912019.2344                   22912019.0784
 101773643.35547  79315647.33045  22557373.8444                   22557373.4924
 117932673.02747  91907145.03644  23405262.8364                   23405261.5394
 11  8  1  0 31  0.0000000  0  8G02G17G09G10G04G28G27G12
  99779642.99648  77762872.02946  21121543.2664                   21121539.6564
  90104458.14548  70224011.32646  21965854.9844                   21965853.0824
 107795585.30147  84008481.79545  22154697.1954                   22154695.8524
 107410994.39547  83708549.15345  21910332.3524                   21910331.4614
  89224201.46948  69539009.38346  20068869.1884                   20068867.6644
  87871746.41847  68481063.97844  22921288.0784                   22921288.0434
 101771090.25447  79313657.86345  22556887.7894                   22556887.5124
 117804564.59447  91807320.29044  23380884.3914                   23380883.4304
 11  8  1  0 31 30.0000000  0  8G02G17G09G10G04G28G27G12
  99698719.07048  77699814.44946  21106143.7974                   21106140.4844
  90109250.83648  70227745.89146  21966767.0004                   21966765.2854
 107791152.88747  84005027.92245  22153853.8914                   22153853.2704
 107303061.03947  83624445.29245  21889792.7504                   21889792.5514
  89226557.06648  69540844.91246  20069317.5784                   20069316.3014
  87920771.53147  68519265.29344  22930616.8284                   22930616.7974
 101768937.56647  79311980.39545  22556478.7114                   22556477.9144
 117676559.42247  91707576.02244  23356525.7034                   23356524.7304
 11  8  1  0 32  0.0000000  0  8G02G17G09G10G04G28G27G12
  99618156.54348  77637038.49346  21090813.1484                   21090810.0044
  90114125.43448  70231544.26446  21967694.3834                   21967693.0274
 107787278.35247  84002008.77045  22153116.0164                   22153115.6564
 107195477.75848  83540614.21045  21869320.5314                   21869319.7664
  89229355.80148  69543025.75046  20069850.1174                   20069848.2814
  87970106.60947  68557708.14344  22940005.4144                   22940005.3674
 101767177.95347  79310609.22245  22556143.2894                   22556143.3014
 117548654.23847  91607909.64444  23332186.1024                   23332185.4774
 11  8  1  0 32 30.0000000  0  8G02G17G09G10G04G28G27G12
  99537959.69948  77574547.46746  21075552.5394                   21075549.0354
  90119086.41847  70235409.97046  21968638.4694                   21968637.0084
 107783963.87547  83999426.02645  22152485.9224                   22152485.1174
 107088251.63748  83457061.44345  21848915.7584                   21848915.6884
  89232599.75848  69545553.50246  20070467.4614                   20070465.8484
  88019754.02047  68596394.34844  22949452.8674                   22949453.2624
 101765813.67247  79309546.11845  22555884.2034                   22555883.9494
 117420855.25447  91508326.05245  23307867.4844                   23307866.2664
 11  8  1  0 33  0.0000000  0  8G02G17G09G10G04G28G27G12
  99458127.02348  77512340.22046  21060360.6804                   21060357.2624
  90124132.89148  70239342.28646  21969598.7424                   21969597.6094
 107781205.69147  83997276.74845  22151961.2894                   22151960.5124
 106981384.05148  83373788.05745  21828579.8594                   21828579.5984
  89236285.13748  69548425.22346  20071168.6414                   20071167.2734
  88069711.28547  68635321.98344  22958959.7194                   22958959.2704
 101764841.21147  79308788.31945  22555698.8914                   22555698.8204
 117293163.12147  91408825.70945  23283568.2584                   23283566.5044
 11  8  1  0 33 30.0000000  0  8G02G17G09G10G04G28G27G12
  99378663.74648  77450420.81146  21045239.5164                   21045235.9924
  90129269.39848  70243344.75046  21970576.4224                   21970574.0634
 107779006.68447  83995563.21545  22151542.3674                   22151541.8754
 106874883.11748  83290800.35545  21808313.3914                   21808313.0004
  89240415.32048  69551643.53546  20071954.7664                   20071953.1094
  88119981.84847  68674493.77644  22968526.5234                   22968526.0864
 101764263.53547  79308338.13745  22555588.9534                   22555588.6884
 117165585.25847  91309414.43645  23259291.1954                   23259289.5864
 11  8  1  0 34  0.0000000  0  8G02G17G09G10G04G28G27G12
  99299562.96548  77388783.87246  21030186.7894                   21030183.6414
  90134489.85548  70247412.62345  21971569.5634                   21971568.2894
 107777357.75447  83994278.29945  22151228.6884                   22151228.0594
 106768745.28948  83208095.62445  21788115.9144                   21788115.5044
  89244980.87148  69555201.09546  20072823.4924                   20072821.8634
  88170557.25047  68713903.09944  22978150.3594                   22978150.2854
 101764071.71947  79308188.63445  22555552.6954                   22555552.1174
 117038117.50047  91210088.96045  23235034.3594                   23235032.5434
 11  8  1  0 34 30.0000000  0  8G02G17G09G10G04G28G27G12
  99220825.18848  77327429.79846  21015203.3594                   21015199.9804
  90139794.75447  70251546.30245  21972579.2114                   21972578.0394
 107776257.16847  83993420.67645  22151019.1884                   22151018.5704
 106662973.93448  83125676.44645  21767988.0084                   21767987.6914
  89249979.86348  69559096.41147  20073774.7734                   20073773.1954
  88221436.71547  68753549.33844  22987832.4304                   22987832.1454
 101764264.41047  79308338.75345  22555589.2894                   22555589.0274
 116910761.52747  91110850.61444  23210799.5474                   23210797.9654
 11  8  1  0 35  0.0000000  0  8G02G17G09G10G04G28G27G12
  99142452.50048  77266360.19646  21000289.6804                   21000286.2194
  90145186.35547  70255747.53646  21973605.1724                   21973604.0234
 107775704.76247  83992990.20745  22150914.2194                   22150913.0314
 106557573.98448  83043546.69245  21747931.4384                   21747930.8134
  89255412.35548  69563329.50546  20074808.6414                   20074807.1454
  88272620.63747  68793432.78844  22997573.0234                   22997572.8444
 101764841.66446  79308788.53245  22555699.2034                   22555698.9964
 116783521.73447  91011702.78445  23186586.5234                   23186585.0354
 11  8  1  0 35 30.0000000  0  8G02G17G09G10G04G28G27G12
  99064444.06348  77205574.43946  20985445.1254                   20985441.7034
  90150663.91847  70260015.77046  21974647.8594                   21974646.6884
 107775697.18847  83992984.27045  22150912.7504                   22150912.1024
 106452547.86747  82961708.22445  21727945.1024                   21727945.2504
  89261275.14848  69567897.90946  20075924.5004                   20075922.6454
  88324106.96147  68833551.89744  23007370.1254                   23007370.2934
 101765800.37147  79309535.54845  22555881.5394                   22555881.4144
 116656399.63347  90912646.67544  23162396.0864                   23162394.4144
 11  8  1  0 36  0.0000000  0  8G02G17G09G10G04G28G27G12
  98986801.05148  77145073.40846  20970669.9534                   20970666.8364
  90156228.85248  70264352.04946  21975706.5004                   21975704.9964
 107776233.37947  83993402.05245  22151014.7504                   22151014.2194
 106347899.59048  82880164.17545  21708030.7814                   21708030.6134
  89267567.04348  69572800.66646  20077121.5634                   20077119.7424
  88375895.00047  68873906.08044  23017225.6334                   23017224.9384
 101767139.70347  79310579.15645  22556136.2344                   22556136.4064
 116529398.49647  90813684.81745  23138228.1334                   23138227.1644
 11  8  1  0 36 30.0000000  0  8G02G17G09G10G04G28G27G12
  98909519.86348  77084854.32546  20955964.2664                   20955960.7814
  90161878.08248  70268754.03845  21976781.2504                   21976780.1254
 107777307.64847  83994239.13745  22151219.5704                   22151218.6524
 106243628.56648  82798914.09245  21688188.7504                   21688188.7624
  89274282.64848  69578033.59346  20078399.4844                   20078397.9884
  88427979.76647  68914491.54444  23027136.8674                   23027136.6764
 101768854.02747  79311914.94645  22556462.8444                   22556462.9734
 116402517.45347  90714816.52345  23114083.2424                   23114082.0944
 11  8  1  0 37  0.0000000  0  8G02G17G09G10G04G28G27G12
  98832601.41048  77024917.89546  20941326.7274                   20941323.6764
  90167613.02048  70273222.80746  21977872.8914                   21977871.7934
 107778918.44947  83995494.27845  22151526.4774                   22151525.0594
 106139738.81648  82717961.11145  21668419.6484                   21668418.7304
  89281420.33648  69583595.42146  20079757.8524                   20079756.3364
  88480360.89147  68955307.86944  23037104.8284                   23037104.3984
 101770942.23047  79313542.05945  22556859.6024                   22556859.8714
 116275759.28947  90616043.98045  23089962.3754                   23089960.4414
 11  8  1  0 37 30.0000000  0  8G02G17G09G10G04G28G27G12
  98756046.78148  76965264.95646  20926758.8754                   20926755.5314
  90173434.48047  70277758.97345  21978981.0864                   21978979.4654
 107781064.30547  83997166.34045  22151934.1414                   22151933.5944
 106036234.25448  82637308.29245  21648723.2034                   21648722.9184
  89288978.89848  69589485.19946  20081195.9224                   20081194.6994
  88533037.77047  68996354.67344  23047129.0394                   23047128.6644
 101773403.00447  79315459.53145  22557327.8984                   22557328.6254
 116149126.99647  90517369.51645  23065865.3134                   23065863.7034
 11  8  1  0 38  0.0000000  0  9G02G17G09G10G04G28G27G12G05
  98679856.41048  76905895.86246  20912260.1254                   20912256.7344
  90179343.78948  70282363.60945  21980105.4924                   21980103.6294
 107783743.66047  83999254.12945  22152443.8754                   22152443.3984
 105933118.48447  82556958.43646  21629100.9534                   21629100.4884
  89296956.85948  69595701.78147  20082714.3674                   20082712.4304
  88586009.39547  69037631.16544  23057209.1174                   23057208.3404
 101776235.02047  79317666.24545  22557866.9224                   22557867.3134
 116022623.65647  90418795.54045  23041792.3524                   23041790.8244
 124423450.84817                  24235193.227
 11  8  1  0 38 30.0000000  0  9G02G17G09G10G04G28G27G12G05
  98604029.85248  76846810.24846  20897831.0394                   20897828.0394
  90185340.24248  70287036.12945  21981246.0084                   21981244.3484
 107786953.34447  84001755.14645  22153054.7274                   22153054.1954
 105830393.98848  82476913.43545  21609553.2114                   21609552.5234
  89305351.08248  69602242.71746  20084311.9454                   20084310.2034
  88639274.20747  69079136.03644  23067345.2274                   23067345.0004
 101779435.78147  79320160.32245  22558476.2894                   22558476.2854
 115896251.21947  90320323.53645  23017744.2894                   23017743.1524
 124284226.09846  96857547.22753  24208700.4924                   24208702.7584
 11  8  1  0 39  0.0000000  0  9G02G17G09G10G04G28G27G12G05
 100103983.75848  78015605.53846  21183263.0164                   21183259.3914
  91766838.75448  71519372.59746  22282195.6644                   22282193.9144
 109366105.41047  85232263.24145  22453557.6804                   22453556.9304
 107303481.55947  83624773.97145  21889872.1954                   21889871.1334
  90889573.69148  70836701.87946  20385779.2664                   20385777.5944
  90268242.80947  70348462.09344  23377327.4694                   23377327.6254
 103358417.44147  80550535.58645  22858946.4844                   22858946.0084
 117345430.46547  91449554.16645  23293513.8204                   23293512.2774
 125720364.10546  97976616.12644  24481987.7034                   24481990.7274
 11  8  1  0 39 30.0000000  0  9G02G17G09G10G04G28G27G12G05
 100028870.68848  77957075.90146  21168969.3834                   21168966.0864
  91772997.20748  71524171.36145  22283367.8754                   22283365.9574
 109370354.68447  85235574.35845  22454366.0084                   22454365.4224
 107201534.83647  83545335.02645  21870472.1564                   21870471.6254
  90898780.35548  70843875.90346  20387531.2894                   20387529.7974
  90322074.51247  70390408.76944  23387571.4614                   23387571.4264
 103362335.28947  80553588.43245  22859692.0314                   22859692.0864
 117219312.67647  91351280.60245  23269514.1334                   23269512.9574
 125581015.16046  97868032.87544  24455470.4384                   24455474.1054
 11  8  1  0 40  0.0000000  0  9G02G17G09G10G04G28G27G12G05
  99954110.28548  77898821.05446  21154742.8594                   21154739.0744
  91779232.83247  71529030.24945  22284554.1414                   22284552.5204
 109375115.86747  85239284.34145  22455272.1484                   22455271.5044
 107099977.30148  83466199.35045  21851146.7034                   21851145.6884
  90908385.51648  70851360.44146  20389358.9924                   20389357.4964
  90376183.42647  70432571.41944  23397867.9144                   23397867.6844
 103366604.21947  80556914.83845  22860504.8914                   22860504.1374
 117093321.47347  91253105.67445  23245538.4924                   23245537.5394
 125441603.75446  97759400.94944  24428941.0234                   24428944.7274
 11  8  1  0 40 30.0000000  0  9G02G17G09G10G04G28G27G12G05
  99879706.54748  77840844.13946  21140584.3444                   21140580.8404
  91785550.40647  71533953.00245  22285756.2734                   22285754.4104
 109380390.97346  85243394.77645  22456276.0634                   22456275.4774
 106998816.21948  83387372.60545  21831896.1174                   21831895.5984
  90918391.28548  70859157.13146  20391262.9454                   20391261.6054
  90430572.18047  70474952.14344  23408218.3054                   23408218.1764
 103371226.53547  80560516.59445  22861384.0944                   22861383.9804
 116967463.36347  91155034.43945  23221589.0554                   23221587.7504
 125302137.12946  97650726.00144  24402400.6884                   24402404.6914
 11  8  1  0 41  0.0000000  0  9G02G17G09G10G04G28G27G12G05
  99805669.91848  77783153.26846  21126495.2894                   21126492.0554
  91791960.62947  71538947.96145  22286976.3284                   22286974.3444
 109386188.12147  85247912.01045  22457378.9774                   22457378.8594
 106898064.95348  83308865.20545  21812723.4924                   21812722.7934
  90928805.93448  70867272.43446  20393245.2194                   20393243.7304
  90485249.75047  70517557.90144  23418623.2034                   23418623.0594
 103376210.28947  80564400.01845  22862332.4144                   22862332.7424
 116841751.46547  91057077.14245  23197666.6884                   23197665.4494
 125162628.00446  97542017.89944  24375852.8674                   24375856.2584
 11  8  1  0 41 30.0000000  0  9G02G17G09G10G04G28G27G12G05
  99732001.97348  77725749.69846  21112476.8204                   21112473.5044
  91798465.62547  71544016.74145  22288214.4224                   22288212.4964
 109392506.45747  85252835.35545  22458581.1804                   22458581.2504
 106797728.21548  83230680.80446  21793630.1804                   21793629.4184
  90939628.83648  70875705.84646  20395304.3444                   20395303.0824
  90540216.08247  70560388.73044  23429083.0234                   23429082.3874
 103381555.09847  80568564.73845  22863349.2974                   22863349.9104
 116716189.20347  90959236.41645  23173773.4064                   23173771.2814
 125023080.76246  97433280.12544  24349297.7584                   24349300.8284
 11  8  1  0 42  0.0000000  0  9G02G17G09G10G04G28G27G12G05
  99658698.82848  77668630.39246  21098528.0944                   21098524.4774
  91805062.07447  71549156.79645  22289469.5394                   22289468.2344
 109399339.57847  85258159.84345  22459882.0634                   22459881.3204
 106697804.99648  83152818.62845  21774615.3674                   21774614.6454
  90950853.84048  70884452.59846  20397440.9694                   20397439.1294
  90595466.07847  70603440.55644  23439596.1414                   23439596.5554
 103387255.10547  80573006.25545  22864434.3444                   22864434.4224
 116590775.42647  90861511.43045  23149907.6884                   23149905.8444
 124883494.32847  97324511.79544  24322735.3134                   24322737.9884
 11  8  1  0 42 30.0000000  0  9G02G17G09G10G04G28G27G12G05
  99585767.88348  77611801.09946  21084649.4534                   21084646.1334
  91811757.78947  71554374.21845  22290743.4304                   22290741.8984
 109406692.28147  85263889.18345  22461281.0864                   22461280.3874
 106598305.94148  83075286.96246  21755681.4304                   21755680.4104
  90962486.28148  70893516.82346  20399654.1954                   20399652.6174
  90651005.48447  70646717.90444  23450165.4454                   23450164.8714
 103393315.62147  80577728.66345  22865587.9844                   22865587.6334
 116465519.96147  90763909.78045  23126072.0394                   23126070.5164
 124743878.92646  97215720.85644  24296167.7504                   24296170.6724
 11  8  1  0 43  0.0000000  0  9G02G17G09G10G04G28G27G12G05
  99513204.69548  77555258.37646  21070841.0784                   21070837.7774
  91818548.61347  71559665.75645  22292035.6024                   22292034.5594
 109414557.69547  85270018.04545  22462777.9304                   22462777.2464
 106499229.46547  82998084.58245  21736827.8674                   21736826.7774
  90974519.35948  70902893.25146  20401944.0474                   20401942.3324
  90706828.17647  70690215.98344  23460788.8054                   23460788.7734
 103399729.90247  80582726.76345  22866809.1024                   22866808.4144
 116340420.94147  90666430.03545  23102266.6484                   23102265.2384
 124604232.60246  97106905.89344  24269592.6804                   24269596.2704
 11  8  1  0 43 30.0000000  0  9G02G17G09G10G04G28G27G12G05
  99441013.85248  77499005.77846  21057103.5784                   21057100.0944
  91825439.52348  71565035.28045  22293346.8984                   22293345.9694
 109422938.14547  85276548.23345  22464372.3984                   22464371.8524
 106400583.23448  82921217.44246  21718056.0004                   21718055.2304
  90986955.60948  70912583.82946  20404310.4844                   20404308.9614
  90762937.47347  70733937.41844  23471465.3284                   23471465.3134
 103406500.45347  80588002.45245  22868097.0314                   22868096.6764
 116215485.37147  90569077.63545  23078492.6334                   23078490.2074
 124464562.58647  96998072.43244  24243014.4304                   24243017.4384
 11  8  1  0 44  0.0000000  0  9G02G17G09G10G04G28G27G12G05
  99369195.17648  77443043.19946  21043437.0314                   21043433.6764
  91832430.94547  71570483.13045  22294677.5864                   22294676.2584
 109431831.05947  85283477.73145  22466065.1484                   22466064.2854
 106302370.14148  82844687.83646  21699366.3284                   21699365.7034
  90999792.47348  70922586.57646  20406753.0474                   20406751.8954
  90819331.72746  70777880.90444  23482196.2894                   23482197.0664
 103413625.12947  80593554.06145  22869452.8524                   22869453.1334
 116090715.64547  90471854.49745  23054749.6804                   23054747.5514
 124324871.88346  96889222.82944  24216431.0474                   24216435.1414
 11  8  1  0 44 30.0000000  0  9G02G17G09G10G04G28G27G12G05
  99297744.84448  77387367.64846  21029840.2814                   21029837.0704
  91839520.02748  71576007.07245  22296027.0004                   22296025.5314
 109441230.34047  85290801.81345  22467853.6334                   22467853.2504
 106204589.38748  82768495.09246  21680759.6254                   21680758.5274
  91013024.69148  70932897.39246  20409271.3444                   20409269.6994
  90876006.11346  70822042.63744  23492981.8674                   23492981.7034
 103421098.32047  80599377.27345  22870874.9844                   22870874.9804
 115966110.62947  90374759.68845  23031037.9924                   23031036.4574
 124185159.77347  96780356.54144  24189845.9144                   24189848.4774
 11  8  1  0 45  0.0000000  0  9G02G17G09G10G04G28G27G12G05
  99226666.17248  77331981.67746  21016314.5784                   21016311.3594
  91846710.52347  71581610.05645  22297394.8204                   22297392.6454
 109451136.17647  85298520.61445  22469739.0084                   22469738.3284
 106107247.07048  82692643.98846  21662235.8594                   21662234.9844
  91026652.39548  70943516.37446  20411864.3364                   20411862.8914
  90932961.72346  70866423.51043  23503820.4844                   23503820.4774
 103428920.75447  80605472.60545  22872363.4844                   22872363.5354
 115841675.86747  90277797.53245  23007359.0004                   23007357.0004
 124045432.05547  96671478.06144  24163255.6174                   24163259.4024
 11  8  1  0 45 30.0000000  0  9G02G17G09G10G04G28G27G12G05
  99155956.02748  77276882.88146  21002859.0164                   21002855.5234
  91853999.46948  71587289.72345  22298782.3054                   22298780.3444
 109461543.14147  85306629.88545  22471719.0234                   22471718.5514
 106010343.05148  82617134.41346  21643795.7114                   21643794.9534
  91040670.94948  70954439.91846  20414532.2424                   20414530.3634
  90990193.87146  70911019.84444  23514711.6024                   23514712.4924
 103437087.26247  80611836.03645  22873917.5084                   22873917.5634
 115717410.83647  90180967.66045  22983711.4694                   22983710.1604
 123905688.41047  96562587.17844  24136663.0164                   24136666.3204
 11  8  1  0 46  0.0000000  0  9G02G17G09G10G04G28G27G12G05
  99085619.58248  77222075.27346  20989474.5634                   20989470.9494
  91861392.77748  71593050.72145  22300189.1334                   22300186.7274
 109472454.09847  85315131.88045  22473795.3914                   22473794.8364
 105913885.75848  82541972.95246  21625440.5004                   21625439.3284
  91055083.23448  70965670.27046  20417274.8754                   20417273.2234
  91047706.59446  70955834.85244  23525655.7274                   23525657.0474
 103445601.19147  80618470.19445  22875537.5864                   22875537.8954
 115593323.40647  90084276.15445  22960098.4144                   22960096.8954
 123765936.73447  96453690.00144  24110069.0864                   24110071.7664
 11  8  1  0 46 30.0000000  0  9G02G17G09G10G04G28G27G12G05
  99015651.83648  77167554.98346  20976159.9384                   20976156.2854
  91868886.12947  71598889.69045  22301614.5234                   22301613.3484
 109483861.79747  85324020.93645  22475965.9534                   22475965.6604
 105817873.01648  82467157.87646  21607169.6254                   21607168.5274
  91069882.19148  70977201.92746  20420090.8524                   20420089.5514
  91105493.71946  71000863.60344  23536651.6484                   23536653.9344
 103454455.32847  80625369.44845  22877222.6954                   22877222.8054
 115469411.21547  89987721.20045  22936519.1884                   22936517.6214
 123626175.26647  96344785.16744  24083473.2974                   24083475.8324
 11  8  1  0 47  0.0000000  0  9G02G17G09G10G04G28G27G12G05
  98946057.61748  77113325.73646  20962916.5234                   20962913.4414
  91876485.19947  71604811.03145  22303060.4224                   22303059.2934
 109495768.86747  85333299.11245  22478232.4534                   22478231.5354
 105722313.26647  82392695.78046  21588985.0944                   21588984.2424
  91085070.69548  70989037.12146  20422980.9144                   20422979.7424
  91163558.52747  71046108.85544  23547702.0084                   23547702.6884
 103463652.70347  80632536.17145  22878973.1024                   22878973.4614
 115345682.28947  89891309.06245  22912974.3444                   22912972.4774
 123486411.78946  96235878.80844  24056876.6254                   24056879.6844
 11  8  1  0 47 30.0000000  0  9G02G17G09G10G04G28G27G12G05
  98876838.32848  77059388.64846  20949744.3914                   20949741.1914
  91884191.48447  71610815.93245  22304526.9774                   22304525.4184
 109508173.55547  85342965.05345  22480592.3984                   22480592.1294
 105627210.61747  82318589.87946  21570887.4454                   21570886.9734
  91100647.63348  71001174.98746  20425945.3364                   20425943.9024
  91221900.31647  71091569.87244  23558804.6484                   23558805.1174
 103473192.06347  80639969.36844  22880788.4384                   22880788.6094
 115222139.53947  89795041.99945  22889464.6564                   22889463.1524
 123346650.41447  96126974.04844  24030280.4774                   24030284.0944
 11  8  1  0 48  0.0000000  0  9G02G17G09G10G04G28G27G12G05
  98807986.64548  77005738.01746  20936642.4064                   20936639.1294
  91891999.04347  71616899.74545  22306012.7034                   22306011.5514
 109521065.96947  85353011.01445  22483046.0784                   22483045.9344
 105532560.84847  82244836.86346  21552876.1564                   21552875.4344
  91116603.74648  71013608.32246  20428981.6724                   20428980.0984
  91280510.71546  71137240.19744  23569957.5394                   23569957.8094
 103483064.16447  80647661.84745  22882666.7664                   22882667.1094
 115098778.59047  89698916.58345  22865990.0944                   22865988.2934
 123206886.98447  96018067.70944  24003684.3204                   24003687.2504
 11  8  1  0 48 30.0000000  0  9G02G17G09G10G04G28G27G12G05
  98739505.94148  76952376.44146  20923611.2734                   20923607.8714
  91899911.34447  71623065.16445  22307518.5394                   22307517.2704
 109534447.21147  85363437.89045  22485592.7194                   22485592.2704
 105438370.51247  82171441.83446  21534952.2974                   21534951.3794
  91132940.42248  71026338.18946  20432090.4384                   20432088.6914
  91339391.72746  71183121.35644  23581162.4614                   23581162.6454
 103493270.41847  80655614.69145  22884609.1884                   22884609.1844
 114975606.16447  89602938.09445  22842550.8444                   22842549.7274
 123067127.43847  95909164.36244  23977089.3984                   23977092.2424
 11  8  1  0 49  0.0000000  0  9G02G17G09G10G04G28G27G12G05
  98671398.07048  76899305.40146  20910650.8524                   20910647.1994
  91907931.28548  71629314.46445  22309044.6174                   22309043.3284
 109548316.69147  85374245.22045  22488231.2424                   22488231.1564
 105344644.21147  82098408.41146  21517117.0234                   21517116.1454
  91149657.41848  71039364.42246  20435271.2344                   20435269.8794
  91398543.77747  71229213.76643  23592418.6644                   23592418.4144
 103503810.56347  80663827.68144  22886614.6484                   22886614.9844
 114852626.33647  89507109.70445  22819148.8444                   22819147.2304
 122927377.19947  95800268.32344  23950495.0704                   23950499.0084
 11  8  1  0 49 30.0000000  0  9G02G17G09G10G04G28G27G12G05
  98603658.82048  76846521.58146  20897760.3444                   20897756.8674
  91916055.45348  71635644.95345  22310590.9064                   22310589.3164
 109562667.52047  85385427.59545  22490962.5234                   22490962.2854
 105251380.81647  82025735.70146  21499369.5314                   21499368.6524
  91166748.37148  71052682.04846  20438523.7584                   20438522.3834
  91457961.10247  71275512.89543  23603725.1564                   23603726.1294
 103514678.32847  80672295.99945  22888683.3674                   22888682.7974
 114729837.49247  89411430.13045  22795783.2584                   22795781.3134
 122787635.00047  95691378.48444  23923903.4924                   23923906.1334
 11  8  1  0 50  0.0000000  0  9G02G17G09G10G04G28G27G12G05
  98536290.11748  76794026.51746  20884939.9144                   20884936.7504
  91924285.91848  71642058.29945  22312157.0084                   22312155.5554
 109577499.11347  85396984.64745  22493784.5314                   22493784.5354
 105158585.24647  81953427.51846  21481710.9384                   21481710.2034
  91184212.99648  71066290.83446  20441847.5394                   20441845.9774
  91517644.09846  71322018.97843  23615082.4304                   23615082.8244
 103525873.44947  80681019.41444  22890813.3204                   22890814.4454
 114607244.57847  89315903.22745  22772453.7894                   22772452.4774
 122647905.47746  95582498.57544  23897312.8204                   23897316.5314
 11  8  1  0 50 30.0000000  0  9G02G17G09G10G04G28G27G12G05
  98469292.16848  76741820.34846  20872190.9694                   20872187.6844
  91932624.12947  71648555.58945  22313743.6644                   22313742.6054
 109592809.18047  85408914.48045  22496698.2504                   22496698.2974
 105066260.74247  81881486.40546  21464141.9694                   21464141.4414
  91202049.63748  71080189.51446  20445241.8594                   20445239.9734
  91577591.70346  71368731.26643  23626490.0704                   23626490.5634
 103537394.17247  80689996.54344  22893005.6174                   22893006.1294
 114484850.59047  89220531.35045  22749163.3834                   22749161.3204
 122508192.23047  95473631.31544  23870726.6724                   23870730.2304
 11  8  1  0 51  0.0000000  0  9G02G17G09G10G04G28G27G12G05
  98402662.14548  76689900.87546  20859511.7274                   20859508.2544
  91941067.85947  71655135.11345  22315350.8054                   22315349.1524
 109608592.59847  85421213.19545  22499702.0784                   22499702.1334
 104974407.60947  81809912.59346  21446662.8054                   21446662.0124
  91220253.55148  71094374.38846  20448705.8754                   20448704.0864
  91637799.33646  71415646.20643  23637947.6804                   23637948.4064
 103549235.73047  80699223.66244  22895259.1954                   22895259.9384
 114362655.27747  89125314.29745  22725910.3984                   22725908.6764
 122368495.40647  95364776.87844  23844142.5554                   23844146.1644
 11  8  1  0 51 30.0000000  0  9G02G17G09G10G04G28G27G12G05
  98336398.25448  76638266.70646  20846902.2894                   20846898.5434
  91949616.23447  71661796.17045  22316977.7194                   22316976.0434
 109624845.02347  85433877.34945  22502795.3914                   22502794.5784
 104883026.91448  81738706.91046  21429273.6804                   21429272.4064
  91238820.62148  71108842.23046  20452238.5474                   20452237.5864
  91698264.28546  71462761.59143  23649453.2274                   23649454.6804
 103561394.30947  80708697.81544  22897573.0004                   22897572.9264
 114240659.69547  89030252.87145  22702695.0864                   22702693.4454
 122228816.36347  95255936.26644  23817563.0554                   23817566.0984
 11  8  1  0 52  0.0000000  0  9G02G17G09G10G04G28G27G12G05
  98270502.03148  76586919.02046  20834362.7664                   20834358.8554
  91958271.19547  71668540.27845  22318624.4614                   22318623.2074
 109641565.18447  85446905.97945  22505976.8834                   22505976.1764
 104792122.94548  81667872.69446  21411975.6724                   21411974.3284
  91257750.37948  71123592.68446  20455840.7664                   20455839.6764
  91758986.15646  71510077.26643  23661008.7974                   23661009.2034
 103573868.96947  80718418.27144  22899946.9384                   22899947.0704
 114118867.87947  88935350.22545  22679518.7504                   22679517.0004
 122089159.53547  95147112.96945  23790987.3134                   23790990.6254
 11  8  1  0 52 30.0000000  0  9G02G17G09G10G04G28G27G12G05
  98204974.22348  76535858.40946  20821893.0864                   20821889.4104
  91967034.65647  71675368.94545  22320291.9924                   22320290.0354
 109658751.44547  85460297.81745  22509247.5394                   22509246.9144
 104701699.79747  81597413.14346  21394768.2664                   21394767.5904
  91277041.54748  71138624.77246  20459512.1724                   20459510.5594
  91819964.28546  71557592.52043  23672612.9844                   23672613.2704
 103586658.69147  80728384.23344  22902381.0634                   22902380.9344
 113997283.63347  88840609.33545  22656381.8674                   22656380.4574
 121949528.88747  95038310.07044  23764416.2504                   23764418.8524
 11  8  1  0 53  0.0000000  0  9G02G17G09G10G04G28G27G12G05
  98139812.42248  76485083.00746  20809492.6564                   20809489.6524
  91975904.63347  71682280.59045  22321979.8914                   22321978.4804
 109676398.92247  85474049.03045  22512605.8204                   22512605.0824
 104611757.87547  81527328.58346  21377652.8364                   21377651.9654
  91296689.87948  71153935.14746  20463251.0084                   20463249.6254
  91881195.17246  71605304.81243  23684264.9694                   23684264.9024
 103599759.00447  80738592.22844  22904873.5864                   22904874.0554
 113875907.45747  88746030.54245  22633284.9924                   22633283.0984
 121809925.06647  94929528.06544  23737850.7814                   23737852.6294
 11  8  1  0 53 30.0000000  0  9G02G17G09G10G04G28G27G12G05
  98075019.27348  76434594.86746  20797163.2034                   20797159.7734
  91984884.69547  71689278.04045  22323688.6484                   22323687.6214
 109694507.63347  85488159.64045  22516051.6094                   22516051.1524
 104522302.79347  81457623.36846  21360630.1954                   21360628.9614
  91316695.87148  71169524.23346  20467058.1334                   20467056.8554
  91942679.60546  71653214.64243  23695965.1254                   23695965.6294
 103613170.27747  80749042.51244  22907425.7584                   22907426.4654
 113754745.05947  88651618.35345  22610228.3754                   22610226.5204
 121670353.93447  94820771.50844  23711290.6174                   23711293.0634
 11  8  1  0 54  0.0000000  0  9G02G17G09G10G04G28G27G12G05
  98010591.89848  76384391.75246  20784903.2424                   20784899.5274
  91993972.83647  71696359.67845  22325418.4064                   22325416.8324
 109713071.85947  85502625.23345  22519584.0634                   22519583.9844
 104433334.83248  81388297.74646  21343700.0164                   21343698.8324
  91337054.59848  71185388.16746  20470932.2504                   20470930.9964
  92004413.37146  71701318.81343  23707712.2974                   23707713.0514
 103626887.49247  80759731.18744  22910036.2894                   22910036.5474
 113633796.02047  88557372.39445  22587212.3364                   22587210.6374
 121530815.69947  94712040.64644  23684736.8054                   23684739.3484
 11  8  1  0 54 30.0000000  0  9G02G17G09G10G04G28G27G12G05
  97946529.75448  76334473.21146  20772712.5234                   20772708.7734
  92003169.79347  71703526.13945  22327168.3984                   22327167.0204
 109732088.92647  85517443.67145  22523202.7974                   22523203.0784
 104344856.39548  81319353.56146  21326862.8674                   21326862.1804
  91357763.49248  71201524.96746  20474873.1414                   20474871.0744
  92066394.59446  71749615.75143  23719507.1644                   23719508.6454
 103640908.17647  80770656.33744  22912704.4144                   22912704.5044
 113513062.40247  88463294.28945  22564237.7974                   22564235.8484
 121391313.40647  94603337.78044  23658190.3984                   23658193.3794
 11  8  1  0 55  0.0000000  0  9G02G17G09G10G04G28G27G12G05
  97882832.46148  76284838.98446  20760591.2584                   20760587.5434
  92012475.67247  71710777.47345  22328939.3524                   22328937.9454
 109751555.88347  85532612.65345  22526907.9844                   22526907.1884
 104256870.12148  81250792.88046  21310119.5634                   21310118.4414
  91378820.51648  71217933.02546  20478879.7814                   20478878.6374
  92128621.66846  71798104.27443  23731349.0634                   23731350.1094
 103655229.91447  80781816.09344  22915429.4384                   22915429.6764
 113392547.28147  88369386.44245  22541304.7584                   22541302.6564
 121251849.74647  94494665.02644  23631651.1254                   23631653.4304
 11  8  1  0 55 30.0000000  0  9G02G17G09G10G04G28G27G12G05
  97819499.03548  76235488.27546  20748539.2424                   20748535.8834
  92021890.20747  71718113.44945  22330730.8674                   22330729.4774
 109771468.85947  85548129.20845  22530696.3834                   22530696.8444
 104169377.74648  81182617.05146  21293470.3204                   21293469.4064
  91400222.30948  71234609.74846  20482952.7974                   20482951.0084
  92191091.77346  71846782.15943  23743236.1804                   23743236.7854
 103669849.36347  80793207.82044  22918211.4454                   22918212.1454
 113272252.16447  88275650.01245  22518413.0474                   22518411.0594
 121112426.59047  94386023.82245  23605119.4844                   23605122.6134
 11  8  1  0 56  0.0000000  0  9G02G17G09G10G04G28G27G12G05
  97756530.10948  76186421.59546  20736556.7274                   20736552.6564
  92031414.98047  71725535.34845  22332542.9614                   22332541.8404
 109791826.00846  85563991.86745  22534570.7814                   22534570.4734
 104082382.88348  81114828.89546  21276915.8594                   21276914.8484
  91421967.51248  71251554.05746  20487090.6334                   20487089.2464
  92253804.08646  71895648.83543  23755170.0864                   23755170.7774
 103684765.24247  80804830.51544  22921050.2194                   22921050.6024
 113152180.81347  88182087.95245  22495564.1024                   22495562.0824
 120973047.75447  94277417.18145  23578597.1254                   23578599.4924
 11  8  1  0 56 30.0000000  0  9G02G17G09G10G04G28G27G12G05
  97693925.64148  76137638.92346  20724643.3984                   20724639.6764
  92041051.10547  71733044.00945  22334376.9924                   22334375.5474
 109812624.90647  85580198.74445  22538528.5234                   22538528.5004
 103995888.57448  81047430.78146  21260456.7814                   21260455.4304
  91444054.43048  71268764.63046  20491293.3524                   20491292.0514
  92316757.45346  71944703.31243  23767149.6334                   23767150.0704
 103699975.56647  80816682.63544  22923944.5474                   22923944.8714
 113032336.12147  88088702.50545  22472758.4534                   22472756.5864
 120833716.87547  94168847.87445  23552083.2344                   23552085.1484
 11  8  1  0 57  0.0000000  0  9G02G17G09G10G04G28G27G12G05
  97631685.53548  76089140.14946  20712799.7114                   20712795.8794
  92050799.99247  71740640.52945  22336231.8524                   22336230.6844
 109833862.95746  85596747.81445  22542570.2034                   22542570.3754
 103909898.06348  80980425.23646  21244093.2114                   21244091.7274
  91466480.86748  71286239.76746  20495561.1484                   20495559.7854
  92379950.44946  71993944.49643  23779175.0474                   23779176.4844
 103715478.41047  80828762.72244  22926894.9144                   22926895.3554
 112912721.28547  87995496.13845  22449996.7344                   22449994.5944
 120694437.30147  94060318.57145  23525578.8364                   23525581.0434
 11  8  1  0 57 30.0000000  0  9G02G17G09G10G04G28G27G12G05
  97569808.64848  76040924.40946  20701024.8914                   20701021.1054
  92060660.39147  71748323.94645  22338108.3524                   22338107.0204
 109855535.87147  85613635.73445  22546694.6024                   22546694.6884
 103824412.66048  80913813.29746  21227825.7894                   21227824.4304
  91489243.78948  71303977.10446  20499892.6724                   20499891.2624
  92443380.05146  72043370.06343  23791245.7504                   23791247.1564
 103731270.05547  80841067.83944  22929899.3364                   22929900.7034
 112793337.84047  87902470.09145  22427278.5394                   22427276.4654
 120555210.64147  93951830.48245  23499085.0944                   23499086.9064
 11  8  1  0 58  0.0000000  0  9G02G17G09G10G04G28G27G12G05
  97508292.89848  75992990.08546  20689318.5864                   20689315.0274
  92070631.23447  71756093.43145  22340005.8834                   22340004.2624
 109877639.25446  85630859.10345  22550900.5394                   22550900.7034
 103739433.17648  80847595.55846  21211655.0234                   21211653.4694
  91512339.05948  71321973.41546  20504287.8594                   20504286.3164
  92507042.66446  72092977.19443  23803359.6884                   23803360.6684
 103747346.39547  80853594.80344  22932959.3674                   22932959.7074
 112674186.16047  87809624.64645  22404604.8674                   22404602.9384
 120416038.28947  93843384.71545  23472600.7504                   23472603.1254
 11  8  1  0 58 30.0000000  0  9G02G17G09G10G04G28G27G12G05
  97447135.79748  75945335.22346  20677681.1024                   20677677.2344
  92080711.77347  71763948.39345  22341924.2894                   22341923.0164
 109900168.48046  85648414.27545  22555187.8914                   22555187.8674
 103654960.22748  80781772.53446  21195579.7664                   21195578.8284
  91535762.38747  71340225.34146  20508745.4224                   20508743.7344
  92570934.94946  72142763.23343  23815518.3364                   23815519.6214
 103763703.28147  80866340.36044  22936071.5314                   22936071.9734
 112555267.23847  87716960.55945  22381975.3834                   22381973.4344
 120276921.17247  93734981.99044  23446127.7034                   23446129.5904
 11  8  1  0 59  0.0000000  0  9G02G17G09G10G04G28G27G12G05
  97386337.87548  75897960.22146  20666111.4614                   20666107.4494
  92090902.93847  71771889.55545  22343863.3914                   22343862.3914
 109923121.05547  85666299.33645  22559555.8754                   22559555.6134
 103570996.94548  80716346.66646  21179602.0864                   21179601.0234
  91559512.36348  71358731.78746  20513264.5084                   20513262.7664
  92635055.78546  72192727.42243  23827720.4384                   23827721.8674
 103780338.98447  80879303.17444  22939237.8284                   22939237.9924
 112436584.35247  87624480.39345  22359390.7734                   22359388.7544
 120137863.03547  93626625.22044  23419665.4694                   23419666.9964
 11  8  1  0 59 30.0000000  0  9G02G17G09G10G04G28G27G12G05
  97325900.15648  75850865.91346  20654610.3524                   20654606.6134
  92101206.85547  71779918.59745  22345823.8674                   22345822.8284
 109946495.66447  85684513.26145  22564003.6484                   22564004.0394
 103487547.79348  80651321.39046  21163722.1954                   21163721.4694
  91583588.25448  71377492.22146  20517846.1094                   20517844.6214
  92699404.95346  72242869.53443  23839965.3444                   23839966.0904
 103797252.69947  80892482.60744  22942456.0784                   22942456.2544
 112318142.22747  87532187.83545  22336851.8984                   22336850.0904
 119998868.65247  93518318.11844  23393214.9694                   23393216.5234
 11  8  1  1  0  0.0000000  0  9G02G17G09G10G04G28G27G12G05
  97265820.67248  75804050.74446  20643177.8134                   20643174.2854
  92111622.66847  71788034.83145  22347806.2734                   22347805.1884
 109970287.79746  85703052.51545  22568531.1414                   22568531.6054
 103404613.19148  80586697.07146  21147940.6724                   21147939.4614
  91607986.20748  71396503.60546  20522488.8524                   20522487.7664
  92763978.76246  72293186.67543  23852254.0784                   23852254.8674
 103814440.31647  80905875.50445  22945727.0394                   22945727.4494
 112199941.46547  87440083.36545  22314358.7344                   22314357.1684
 119859939.28147  93410061.67544  23366777.9224                   23366779.3054
 11  8  1  1  0 30.0000000  0  9G02G17G09G10G04G28G27G12G05
  97206100.97748  75757515.92846  20631813.6644                   20631809.9344
  92122152.75847  71796240.10745  22349809.7194                   22349808.2814
 109994496.24647  85721916.19445  22573137.7274                   22573138.2194
 103322197.92648  80522477.43546  21132257.1724                   21132256.3524
  91632705.60548  71415765.46946  20527192.6954                   20527191.2704
  92828777.58646  72343679.15543  23864584.8984                   23864586.3244
 103831901.29347  80919481.38044  22949049.5004                   22949050.2664
 112081986.77347  87348170.63545  22291913.0084                   22291910.8754
 119721079.52347  93301859.53644  23340353.1724                   23340355.6134
 11  8  1  1  1  0.0000000  0  9G02G17G09G10G04G28G27G12G05
  97146737.55948  75711258.74947  20620516.8754                   20620513.4494
  92132795.31347  71804533.00645  22351835.1334                   22351834.2304
 110019115.13347  85741099.69045  22577823.0004                   22577822.8014
 103240301.47348  80458662.06346  21116672.3674                   21116671.6134
  91657741.55548  71435273.98146  20531957.1564                   20531955.5314
  92893796.51646  72394343.22843  23876956.7664                   23876958.6564
 103849630.15647  80933296.05444  22952423.5554                   22952424.2734
 111964277.57447  87256449.21045  22269513.7424                   22269511.8094
 119582289.54747  93193711.72945  23313942.1484                   23313943.8834
 11  8  1  1  1 30.0000000  0  8G02G17G09G10G04G27G12G05
  97087731.68848  75665280.16447  20609288.5944                   20609284.8164
  92143551.65647  71812914.56745  22353882.1254                   22353880.4574
 110044142.84847  85760601.72545  22582585.9304                   22582585.7894
 103158927.84448  80395254.09146  21101187.9534                   21101186.7934
  91683093.03148  71455028.36746  20536781.2894                   20536779.4884
 103867625.99647  80947318.66345  22955847.6174                   22955848.5204
 111846818.16847  87164922.41945  22247161.2664                   22247159.7734
 119443573.90647  93085621.86845  23287545.8594                   23287547.1254
 11  8  1  1  2  0.0000000  0  8G02G17G09G10G04G27G12G05
  98604507.71148  76847183.57747  20897921.3364                   20897917.5434
  93729845.14547  73048987.42145  22655744.0944                   22655742.5044
 111644998.14847  87008021.39845  22887217.9144                   22887218.1884
 104653504.78148  81559859.54246  21385596.3674                   21385595.5904
  93284179.75448  72702628.39146  20841457.9224                   20841456.2464
 105461308.54347  82189149.15644  23259115.8364                   23259116.3594
 113305038.15247  88301197.76445  22524651.8134                   22524649.9494
 120880362.93047  94205197.97945  23560957.5944                   23560958.9454
 11  8  1  1  2 30.0000000  0  8G02G17G09G10G04G27G12G05
  98546227.44948  76801770.41446  20886831.0704                   20886827.4654
  93740843.71147  73057557.73045  22657836.6884                   22657834.8954
 111670846.50847  87028162.93445  22892136.8984                   22892137.3404
 104573195.55148  81497280.96546  21370314.1884                   21370312.8134
  93310167.55948  72722878.62246  20846402.8444                   20846402.0164
 105479842.85947  82203591.38944  23262642.1254                   23262643.5784
 113188098.39547  88210075.90045  22502398.5554                   22502396.6174
 120741816.81347  94097240.22745  23534592.7814                   23534594.5634
 11  8  1  1  3  0.0000000  0  8G02G17G09G10G04G27G12G05
  98488321.76648  76756649.10846  20875811.8134                   20875808.1134
  93751976.60247  73066232.70045  22659955.4224                   22659953.9024
 111697112.98047  87048630.27645  22897135.4534                   22897135.5124
 104493434.50048  81435129.54446  21355135.7974                   21355134.9964
  93336482.44148  72743383.71546  20851410.7344                   20851409.2304
 105498654.94147  82218250.06244  23266222.4534                   23266223.5394
 113071434.61747  88119169.09445  22480198.8914                   22480196.5354
 120603372.48047  93989361.76545  23508247.9774                   23508249.0514
 11  8  1  1  3 30.0000000  0  8G02G17G09G10G04G27G12G05
  98430777.04348  76711809.08446  20864861.2194                   20864857.9694
  93763231.43047  73075002.69845  22662096.8984                   22662095.5044
 111723781.36747  87069410.78845  22902210.1564                   22902210.3244
 104414211.02747  81373397.00946  21340060.0944                   21340058.8364
  93363109.09048  72764131.74046  20856477.6954                   20856476.2034
 105517729.43847  82233113.24344  23269852.4774                   23269853.2584
 112955036.91447  88028469.61845  22458048.6884                   22458046.9104
 120465019.61347  93881554.59245  23481919.7664                   23481920.9104
 11  8  1  1  4  0.0000000  0  8G02G17G09G10G04G27G12G05
  98373594.20748  76667251.04446  20853979.8984                   20853976.4144
  93774610.67647  73083869.63945  22664262.7734                   22664260.4574
 111750850.19147  87090503.33245  22907361.4774                   22907361.4024
 104335528.91048  81312086.31946  21325087.3914                   21325086.6844
  93390046.75048  72785122.12946  20861603.8364                   20861602.2034
 105537065.20747  82248179.98244  23273532.0084                   23273533.0704
 112838908.85547  87937980.25245  22435950.4774                   22435948.1724
 120326762.83247  93773822.26045  23455609.7114                   23455611.9734
 11  8  1  1  4 30.0000000  0  8G02G17G09G10G04G27G12G05
  98316764.72748  76622968.33546  20843165.7974                   20843161.9344
  93786106.42247  73092827.34145  22666449.3134                   22666447.9024
 111778308.23047  87111899.15545  22912586.3914                   22912586.6254
 104257382.19548  81251192.81546  21310216.8594                   21310215.4064
  93417285.02348  72806346.75546  20866786.6884                   20866785.5904
 105556651.60547  82263442.01644  23277259.2734                   23277260.0084
 112723045.13347  87847696.88345  22413902.0084                   22413900.2304
 120188596.97747  93666160.79645  23429317.7424                   23429318.8834
 11  8  1  1  5  0.0000000  0  8G02G17G09G10G04G27G12G05
  98260294.82448  76578965.84347  20832419.7814                   20832416.1914
  93797725.80547  73101881.40645  22668661.4534                   22668659.3874
 111806158.99247  87133601.01045  22917886.3914                   22917886.6764
 104179779.85248  81190723.50446  21295449.2814                   21295447.4614
  93444828.34448  72827809.06846  20872028.1644                   20872026.9224
 105576492.78947  82278902.61444  23281035.2734                   23281035.5594
 112607455.39147  87757626.99146  22391905.8364                   22391903.7504
 120050531.62147  93558577.61745  23403044.7114                   23403046.3444
 11  8  1  1  5 30.0000000  0  8G02G17G09G10G04G27G12G05
  98204177.86348  76535238.35347  20821741.1644                   20821737.3054
  93809463.42247  73111027.57545  22670894.6564                   22670893.0474
 111834393.22347  87155601.64545  22923259.4694                   22923259.8524
 104102718.23848  81130675.54846  21280784.9454                   21280783.9494
  93472668.10248  72849502.37746  20877325.9774                   20877324.4694
 105596579.99247  82294554.88144  23284857.7584                   23284858.4454
 112492135.49247  87667767.37145  22369961.2034                   22369959.4024
 119912563.72747  93451070.39145  23376790.1334                   23376791.9614
 11  8  1  1  6  0.0000000  0  8G02G17G09G10G04G27G12G05
  98148414.03548  76491786.03846  20811129.5784                   20811125.8134
  93821321.36347  73120267.52545  22673151.2664                   22673149.6954
 111863008.60547  87177899.28245  22928705.0554                   22928705.0164
 104026200.52748  81071051.39546  21266224.0234                   21266222.9264
  93500802.91048  72871425.60546  20882680.0704                   20882678.5164
 105616911.68447  82310397.68044  23288726.8524                   23288727.5274
 112377089.26247  87578120.98745  22348068.6804                   22348066.7664
 119774697.16447  93343642.09345  23350554.4454                   23350555.9414
 11  8  1  1  6 30.0000000  0  8G02G17G09G10G04G27G12G05
  98093000.39148  76448606.59946  20800584.4694                   20800580.5394
  93833296.69947  73129598.95845  22675429.8984                   22675428.4414
 111891999.60246  87200489.63745  22934221.3524                   22934221.8524
 103950226.05148  81011850.55546  21251766.2664                   21251764.9224
  93529227.94548  72893574.98946  20888089.2194                   20888087.4694
 105637482.72747  82326426.98044  23292641.0784                   23292642.3554
 112262317.06347  87488688.13945  22326228.4224                   22326226.4454
 119636932.25047  93236292.99945  23324338.8674                   23324340.1334
 11  8  1  1  7  0.0000000  0  8G02G17G09G10G04G27G12G05
  98037935.66848  76405699.06247  20790106.1414                   20790102.5204
  93845390.25447  73139022.49245  22677731.2584                   22677730.4144
 111921362.72747  87223369.93145  22939808.7274                   22939809.1684
 103874796.64848  80953074.44046  21237413.0864                   21237411.3754
  93557940.59048  72915948.48146  20893553.0394                   20893551.5044
 105658290.18847  82342640.53244  23296600.2194                   23296601.8094
 112147820.68447  87399470.23046  22304440.3674                   22304438.6724
 119499271.85547  93129025.32945  23298143.1884                   23298144.2624
 11  8  1  1  7 30.0000000  0  8G02G17G09G10G04G27G12G05
  97983216.74648  76363060.95746  20779693.5314                   20779689.9184
  93857599.80147  73148536.41945  22680054.5394                   22680053.4694
 111951091.91046  87246535.46145  22945466.9694                   22945466.5234
 103799912.07448  80894722.87346  21223162.6804                   21223161.5664
  93586935.88347  72938542.21846  20899070.4614                   20899069.0164
 105679328.77347  82359034.14044  23300604.2894                   23300605.5084
 112033600.10947  87310467.22946  22282704.8834                   22282703.3324
 119361716.20747  93021839.30145  23271966.9534                   23271967.6254
 11  8  1  1  8  0.0000000  0  8G02G17G09G10G04G27G12G05
  97928847.78148  76320695.53646  20769347.4454                   20769343.6764
  93869930.71547  73158144.90645  22682400.8444                   22682400.1564
 111981188.75046  87269987.49845  22951194.0314                   22951193.8554
 103725578.85548  80836800.92946  21209017.4534                   21209016.3204
  93616215.97748  72961357.87746  20904642.0314                   20904640.9414
 105700600.62147  82375609.52344  23304651.8524                   23304653.3204
 111919663.12547  87221685.22246  22261023.4064                   22261021.7854
 119224272.70347  92914740.64245  23245811.8984                   23245812.8204
 11  8  1  1  8 30.0000000  0  8G02G17G09G10G04G27G12G05
  97874826.24648  76278600.84646  20759067.3284                   20759063.6804
  93882381.92647  73167847.13545  22684770.6724                   22684769.1334
 112011648.32446  87293722.16945  22956990.4774                   22956989.6954
 103651797.28948  80779308.84446  21194977.3524                   21194976.0474
  93645776.94548  72984392.39946  20910267.8054                   20910266.0634
 105722101.34847  82392363.25744  23308743.7814                   23308744.7544
 111806010.12147  87133124.48846  22239396.1174                   22239393.9734
 119086942.87947  92807730.58145  23219678.4224                   23219679.9964
 11  8  1  1  9  0.0000000  0  8G02G17G09G10G04G27G12G05
  97821149.28148  76236774.66247  20748853.3674                   20748849.4654
  93894951.41847  73177641.54245  22687162.6954                   22687161.3834
 112042464.96147  87317735.06845  22962854.2504                   22962854.2854
 103578567.19148  80722246.46246  21181042.1884                   21181040.5204
  93675613.97748  73007642.04046  20915945.1564                   20915943.8164
 105743825.89847  82409291.43444  23312877.3834                   23312878.4654
 111692641.27747  87044785.16746  22217822.6174                   22217821.1254
 118949727.25847  92700809.50345  23193567.1414                   23193568.3954
 11  8  1  1  9 30.0000000  0  8G02G17G09G10G04G27G12G05
  97767818.03548  76195217.85747  20738704.7194                   20738700.8404
  93907641.73447  73187530.11045  22689577.6334                   22689576.0234
 112073637.77047  87342025.50844  22968785.7814                   22968786.6094
 103505892.69548  80665617.03546  21167212.4144                   21167211.5044
  93705726.95748  73031106.72046  20921675.3834                   20921673.9924
 105765773.65247  82426393.52144  23317053.9774                   23317055.0594
 111579561.39847  86956671.02546  22196304.1884                   22196302.2074
 118812630.84447  92593981.32545  23167478.7194                   23167479.8754
 11  8  1  1 10  0.0000000  0  8G02G17G09G10G04G27G12G05
  97714833.92248  76153931.55447  20728621.8524                   20728617.8484
  93920455.34847  73197514.73045  22692016.2734                   22692014.4304
 112105164.77747  87366591.96044  22974785.7034                   22974785.5554
 103433777.41848  80609423.33846  21153489.5864                   21153487.8204
  93736115.18848  73054785.86246  20927458.1024                   20927456.9694
 105787943.66047  82443668.76044  23321273.2974                   23321274.3324
 111466774.87547  86868785.46646  22174841.3524                   22174839.7704
 118675658.31647  92487249.66745  23141413.6174                   23141414.7854
 11  8  1  1 10 30.0000000  0  8G02G17G09G10G04G27G12G05
  97662193.36748  76112912.96147  20718604.8594                   20718600.9454
  93933390.34447  73207593.95345  22694477.2974                   22694475.8444
 112137039.92246  87391429.67045  22980851.0084                   22980851.6134
 103362220.52048  80553664.76246  21139872.8204                   21139871.2854
  93766773.65248  73078675.58346  20933292.7584                   20933291.2384
 105810330.50847  82461112.99444  23325533.0314                   23325534.4144
 111354281.56347  86781128.36646  22153434.6334                   22153432.8524
 118538809.98047  92380614.77345  23115371.9844                   23115373.2154
 11  8  1  1 11  0.0000000  0  8G02G17G09G10G04G27G12G05
  97609897.34448  76072162.83646  20708653.1804                   20708649.4024
  93946448.44947  73217769.10645  22696962.3284                   22696960.2544
 112169261.89147  87416537.60545  22986983.1804                   22986983.3634
 103291225.86748  80498344.30246  21126362.6954                   21126361.2234
  93797701.64548  73102775.32746  20939177.8054                   20939176.1134
 105832933.21547  82478725.41544  23329834.9534                   23329835.8874
 111242085.58247  86693702.96346  22132084.2424                   22132082.5124
 118402090.32047  92274080.15545  23089354.7584                   23089355.7584
 11  8  1  1 11 30.0000000  0  8G02G17G09G10G04G27G12G05
  97557943.78148  76031679.54946  20698766.6094                   20698762.8754
  93959629.06647  73228039.71645  22699470.2114                   22699468.6994
 112201825.96947  87441912.13744  22993179.9224                   22993180.2034
 103220793.81648  80443462.21746  21112960.3134                   21112958.7304
  93828895.60248  73127082.30846  20945113.9844                   20945112.3134
 105855747.79747  82496502.95044  23334176.4534                   23334177.0434
 111130188.30147  86606510.31946  22110791.0704                   22110789.2074
 118265501.05547  92167647.14345  23063362.3984                   23063363.7704
 11  8  1  1 12  0.0000000  0  8G02G17G09G10G04G27G12G05
  97506335.29348  75991465.16547  20688945.7894                   20688942.2424
  93972936.35247  73238409.02945  22702002.0634                   22702001.3364
 112234732.23447  87467553.32044  22999441.1024                   22999441.9064
 103150929.68848  80389022.68146  21099665.0704                   21099663.7234
  93860356.20348  73151597.06746  20951100.6024                   20951099.0904
 105878774.94147  82514446.07444  23338558.3754                   23338558.9494
 111018595.69547  86519555.06546  22089555.8444                   22089553.5004
 118129048.52747  92061320.66845  23037397.0944                   23037396.9494
 11  8  1  1 12 30.0000000  0  8G02G17G09G10G04G27G12G05
  97455066.96548  75951515.83447  20679189.9224                   20679186.0984
  93986366.37547  73248873.98245  22704558.1174                   22704556.7304
 112267973.04747  87493455.17645  23005767.2814                   23005767.7504
 103081631.07848  80335023.79146  21086478.1174                   21086476.2934
  93892077.36348  73176314.85146  20957136.9384                   20957135.6334
 105902007.78947  82532549.49644  23342979.9924                   23342980.1884
 110907305.97747  86432835.82846  22068377.6724                   22068375.5944
 117992731.16047  91955099.51645  23011456.0314                   23011457.1054
 11  8  1  1 13  0.0000000  0  8G02G17G09G10G04G27G12G05
  97404138.67248  75911831.47446  20669498.5004                   20669494.9844
  93999920.44947  73259435.62645  22707137.8364                   22707135.7384
 112301545.77047  87519615.69545  23012155.7894                   23012156.6254
 103012900.51248  80281467.55346  21073399.0004                   21073397.6334
  93924056.92248  73201234.00146  20963222.4224                   20963221.0314
 105925444.12147  82550811.55244  23347439.0704                   23347440.1094
 110796322.13347  86346354.92746  22047258.1094                   22047255.9614
 117856553.06347  91848986.90645  22985542.0084                   22985542.7274
 11  8  1  1 13 30.0000000  0  8G02G17G09G10G04G27G12G05
  97353549.00448  75872410.97747  20659871.4534                   20659868.0554
  94013598.58647  73270093.89745  22709740.4304                   22709738.9884
 112335446.66047  87546031.90445  23018607.3674                   23018607.5394
 102944739.23048  80228354.90046  21060428.4694                   21060426.8874
  93956292.43848  73226352.58746  20969356.5394                   20969355.2734
 105949080.94947  82569229.75844  23351937.2424                   23351937.9804
 110685646.29747  86260114.04246  22026197.2974                   22026195.2344
 117720516.58247  91742984.61845  22959655.3754                   22959655.8554
 11  8  1  1 14  0.0000000  0  8G02G17G09G10G04G27G12G05
  97303298.93048  75833255.09747  20650309.4304                   20650305.3244
  94027402.70747  73280850.34545  22712367.2974                   22712365.3954
 112369673.88747  87572702.40944  23025120.4224                   23025121.0514
 102877150.43848  80175688.33546  21047566.8054                   21047565.4694
  93988782.70348  73251669.68946  20975539.2344                   20975537.7664
 105972916.93047  82587803.14444  23356473.5394                   23356474.0944
 110575282.91848  86174116.61146  22005195.7664                   22005194.2074
 117584625.98847  91637096.02645  22933796.0474                   22933796.2504
 11  8  1  1 14 30.0000000  0  8G02G17G09G10G04G27G12G05
  97253387.79348  75794363.33247  20640811.2734                   20640807.4924
  94041333.67247  73291705.64145  22715018.5314                   22715016.2774
 112404224.44947  87599624.88744  23031695.4694                   23031695.4694
 102810136.41048  80123469.65846  21034814.1024                   21034812.7154
  94021525.76648  73277183.76346  20981770.3834                   20981768.9884
 105996949.69947  82606529.89744  23361046.2814                   23361046.9344
 110465234.50047  86088364.61746  21984254.3054                   21984252.9884
 117448884.58247  91531323.67445  22907965.1564                   22907965.4614
 11  8  1  1 15  0.0000000  0  8G02G17G09G10G04G27G12G05
  97203817.25848  75755736.94747  20631378.4304                   20631374.6254
  94055394.50447  73302662.14245  22717693.8444                   22717692.3914
 112439097.21147  87626798.37244  23038330.6024                   23038332.1484
 102743701.00448  80071701.86446  21022172.1094                   21022170.6054
  94054521.73448  73302894.90346  20988048.9924                   20988047.8794
 106021178.78547  82625409.58544  23365657.0634                   23365658.0274
 110355505.79747  86002861.75346  21963374.0004                   21963371.8204
 117313297.44547  91425671.53045  22882163.9694                   22882163.7894
 11  8  1  1 15 30.0000000  0  8G02G17G09G10G04G27G12G05
  97154587.84448  75717376.40047  20622010.4144                   20622006.5704
  94069587.19547  73313721.39145  22720394.6804                   22720392.8674
 112474290.08647  87654221.33544  23045028.8524                   23045028.7974
 102677847.46148  80020387.45746  21009640.4224                   21009639.2034
  94087769.53948  73328802.27146  20994376.0944                   20994374.8134
 106045602.73847  82644441.15444  23370305.2974                   23370306.5594
 110246100.89847  85917611.18246  21942554.5394                   21942552.4844
 117177869.07047  91320143.10345  22856392.6804                   22856392.3754
 11  8  1  1 16  0.0000000  0  8G02G17G09G10G04G27G12G05
  97105693.55948  75679276.98847  20612706.2274                   20612702.2774
  94083907.31647  73324879.93645  22723119.7274                   22723117.6024
 112509794.87147  87681887.33044  23051785.1334                   23051785.2854
 102612572.60547  79969523.97146  20997218.9454                   20997217.5314
  94121262.25048  73354900.50346  21000749.3054                   21000748.1484
 106070214.21146  82663618.79844  23374988.3524                   23374989.5744
 110137017.74648  85832611.34246  21921797.0474                   21921794.7304
 117042597.57447  91214736.92145  22830650.7894                   22830651.0554
 11  8  1  1 16 30.0000000  0  8G02G17G09G10G04G27G12G05
  97057134.02748  75641438.41947  20603465.4064                   20603461.6884
  94098355.53147  73336138.28545  22725868.9144                   22725867.3054
 112545608.34047  87709793.86644  23058599.8594                   23058600.1564
 102547878.44148  79919112.97546  20984908.1564                   20984906.2424
  94154997.38748  73381187.60646  21007168.7504                   21007167.5864
 106095010.56646  82682940.53844  23379707.6024                   23379708.2504
 110028258.95747  85747864.23546  21901100.7194                   21901098.6764
 116907486.31347  91109455.60345  22804939.7734                   22804940.1914
 11  8  1  1 17  0.0000000  0  8G02G17G09G10G04G27G12G05
  97008906.83248  75603858.82547  20594288.2664                   20594284.2584
  94112930.50847  73347495.40845  22728642.4774                   22728640.8554
 112581725.25047  87737936.84044  23065472.7424                   23065473.4774
 102483764.09448  79869153.80046  20972707.4224                   20972705.9064
  94188970.95348  73407660.51146  21013634.1644                   21013632.3094
 106119986.97746  82702402.59444  23384460.3754                   23384461.3204
 109919824.87547  85663370.17146  21880466.4384                   21880464.2544
 116772536.00447  91004299.70245  22779259.9064                   22779259.5234
 11  8  1  1 17 30.0000000  0  8G02G17G09G10G04G27G12G05
  96961014.68848  75566540.29747  20585174.6954                   20585170.6254
  94127636.92647  73358954.95545  22731441.3524                   22731439.7584
 112618146.25847  87766316.80044  23072403.4384                   23072404.2384
 102420235.16448  79819650.77546  20960618.3134                   20960616.8484
  94223184.62148  73434320.49846  21020144.6724                   21020143.3014
 106145144.73046  82722005.92244  23389247.7424                   23389248.2664
 109811722.05148  85579134.21846  21859895.1884                   21859893.1024
 116637753.95347  90899274.90945  22753611.3054                   22753610.9264
 11  8  1  1 18  0.0000000  0  8G02G17G09G10G04G27G12G05
  96913457.21148  75529482.54747  20576124.8524                   20576121.1484
  94142475.26247  73370517.29845  22734264.8054                   22734263.5004
 112654868.02747  87794931.13844  23079392.0784                   23079391.9384
 102357293.61748  79770605.47346  20948640.6954                   20948639.1804
  94257635.96948  73461165.69546  21026700.3054                   21026699.0474
 106170481.19146  82741748.49744  23394068.5704                   23394070.5984
 109703953.30948  85495158.56546  21839387.5864                   21839385.5474
 116503143.01647  90794383.43345  22727995.4924                   22727995.7854
 11  8  1  1 18 30.0000000  0  8G02G17G09G10G04G27G12G05
  96866230.94148  75492682.89047  20567137.8984                   20567134.2624
  94157443.52047  73382180.89745  22737113.4064                   22737111.4574
 112691884.75047  87823775.26644  23086435.6644                   23086435.9304
 102294938.54348  79722017.15146  20936774.6724                   20936773.1764
  94292320.57048  73488192.64546  21033300.4614                   21033299.2344
 106195991.39546  82761626.46244  23398923.3134                   23398925.1174
 109596519.05147  85411443.57346  21818943.5944                   21818941.1844
 116368703.49647  90689625.56045  22702412.2194                   22702412.1294
 11  8  1  1 19  0.0000000  0  8G02G17G09G10G04G27G12G05
  96819335.90248  75456141.32047  20558213.8984                   20558210.0634
  94172543.63747  73393947.25445  22739986.4384                   22739985.1374
 112729194.30947  87852847.59044  23093535.5864                   23093535.7344
 102233172.77748  79673888.03746  20925021.3204                   20925019.7154
  94327237.05148  73515400.27946  21039944.8984                   21039943.7194
 106221673.54346  82781638.37844  23403810.5944                   23403812.0514
 109489422.29747  85327991.56646  21798563.3984                   21798561.3874
 116234439.76647  90585004.62745  22676862.4454                   22676862.7384
 11  8  1  1 19 30.0000000  0  8G02G17G09G10G04G27G12G05
  96772770.64848  75419856.75047  20549352.9844                   20549349.2114
  94187775.12947  73405815.95445  22742884.9224                   22742883.0354
 112766792.07847  87882144.49644  23100690.2194                   23100690.6524
 102171996.95348  79626218.60246  20913379.9454                   20913378.0474
  94362382.43448  73542786.28446  21046633.1644                   21046631.5594
 106247524.03146  82801781.50744  23408729.8834                   23408731.2464
 109382664.82448  85244803.90946  21778248.2814                   21778245.9774
 116100353.89547  90480522.31945  22651346.6094                   22651346.8674
 11  8  1  1 20  0.0000000  0  8G02G17G09G10G04G27G12G05
  96726531.09848  75383825.96147  20540553.6484                   20540549.9774
  94203135.89547  73417785.41445  22745807.5704                   22745806.5514
 112804671.91847  87911661.18244  23107898.5234                   23107899.0744
 102111409.22748  79579007.43946  20901850.5004                   20901848.5824
  94397751.03148  73570346.21746  21053363.4144                   21053361.8284
 106273537.07046  82822051.26444  23413680.2814                   23413682.0554
 109276246.26648  85161880.36546  21757997.5944                   21757995.3054
 115966445.58647  90376178.35345  22625864.8984                   22625865.2304
 11  8  1  1 20 30.0000000  0  8G02G17G09G10G04G27G12G05
  96680622.51648  75348053.06947  20531817.5164                   20531813.6334
  94218631.76647  73429860.13545  22748756.8914                   22748754.7814
 112842836.49247  87941399.74944  23115161.1334                   23115161.3874
 102051417.05548  79532260.33246  20890434.3364                   20890432.4774
  94433346.79348  73598083.15946  21060137.1334                   21060135.5554
 106299715.86347  82842450.17444  23418662.3984                   23418663.2074
 109170175.23047  85079227.62746  21737812.9924                   21737810.6054
 115832723.95747  90271979.85945  22600418.5004                   22600418.3674
 11  8  1  1 21  0.0000000  0  8G02G17G09G10G04G27G12G05
  96635041.87948  75312535.72647  20523143.8594                   20523140.0204
  94234261.47746  73442039.15645  22751730.4384                   22751729.7464
 112881280.14847  87971355.79844  23122476.2274                   23122477.0084
 101992019.75048  79485976.76646  20879131.4694                   20879129.8554
  94469165.18048  73625993.58846  21066952.8984                   21066951.7344
 106326055.39546  82862974.34344  23423674.0004                   23423675.3874
 109064451.92247  84996845.83846  21717694.3674                   21717692.7274
 115699189.69147  90167927.34145  22575007.4224                   22575007.1914
 11  8  1  1 21 30.0000000  0  8G02G17G09G10G04G27G12G05
  96589787.06348  75277272.26946  20514532.1564                   20514528.0824
  94250024.66047  73454322.19545  22754730.3444                   22754728.8364
 112919998.29747  88001525.69044  23129843.9064                   23129844.8954
 101933217.69148  79440157.03946  20867941.6564                   20867940.0554
  94505203.15248  73654075.12746  21073810.7344                   21073809.4024
 106352551.91046  82883620.86244  23428716.6414                   23428718.0864
 108959077.99647  84914736.31246  21697642.3914                   21697640.6094
 115565844.89147  90064022.46345  22549632.6724                   22549633.1294
 11  8  1  1 22  0.0000000  0  8G02G17G09G10G04G27G12G05
  96544853.95348  75242259.48647  20505981.3834                   20505977.6604
  94265918.38346  73466706.92745  22757754.6884                   22757753.3364
 112958984.15247  88031904.23744  23137263.0704                   23137264.0354
 101875008.65248  79394799.36946  20856865.0234                   20856863.1764
  94541454.74648  73682323.11746  21080709.6254                   21080707.8054
 106379199.14546  82904384.80244  23433787.6564                   23433789.5984
 108854052.19548  84832898.05446  21677656.7344                   21677654.7664
 115432688.91047  89960264.71145  22524293.8754                   22524293.7854
 11  8  1  1 22 30.0000000  0  8G02G17G09G10G04G27G12G05
  96500248.82048  75207502.26447  20497493.4844                   20497489.8014
  94281950.67247  73479199.65145  22760806.0394                   22760803.8324
 112998241.63747  88062494.40644  23144733.4224                   23144734.1484
 101817401.44548  79349910.68046  20845902.5234                   20845900.7504
  94577925.00848  73710741.50646  21087649.8134                   21087647.8794
 106406001.52346  82925269.66444  23438888.1484                   23438889.9264
 108749384.63348  84751338.96946  21657739.1484                   21657736.9344
 115299732.24647  89856662.28545  22498993.1254                   22498992.2344
 11  8  1  1 23  0.0000000  0  8G02G17G09G10G04G27G12G05
  96455970.28548  75172999.53947  20489067.6564                   20489063.8404
  94298121.48447  73491800.29245  22763883.2584                   22763882.0394
 113037767.10947  88093293.40344  23152255.2584                   23152255.9804
 101760397.16848  79305491.81346  20835054.6804                   20835053.1914
  94614611.50448  73739328.41546  21094630.9844                   21094629.2814
 106432956.22347  82946273.16144  23444017.4064                   23444019.0234
 108645077.45347  84670060.71246  21637889.3914                   21637888.0204
 115166977.59047  89753217.25245  22473730.6414                   22473730.2734
 11  8  1  1 23 30.0000000  0  8G02G17G09G10G04G27G12G05
  96412011.77748  75138746.18747  20480702.2814                   20480698.3954
  94314425.31347  73504504.61345  22766985.1644                   22766983.7074
 113077551.15247  88124293.84444  23159826.1884                   23159826.5394
 101703991.12148  79261539.07846  20824321.2424                   20824319.4924
  94651506.13748  73768077.48346  21101651.8914                   21101649.8324
 106460054.55147  82967388.59444  23449174.4144                   23449175.8014
 108541127.49648  84589060.80446  21618108.9454                   21618106.7194
 115034421.74247  89649927.12945  22448506.1024                   22448505.7974
 11  8  1  1 24  0.0000000  0  8G02G17G09G10G04G27G12G05
  96368373.92648  75104742.69347  20472398.5004                   20472394.7114
  94330864.78147  73517314.60745  22770113.9064                   22770112.8164
 113117592.07847  88155494.51544  23167445.5864                   23167446.3594
 101648186.33648  79218054.88246  20813701.9224                   20813699.8204
  94688608.02748  73796988.05646  21108711.8594                   21108710.3164
 106487295.32446  82988615.04544  23454357.4844                   23454359.5664
 108437538.57047  84508342.22946  21598396.6484                   21598394.1844
 114902069.55147  89546795.71545  22423320.0784                   22423319.8094
 11  8  1  1 24 30.0000000  0  8G02G17G09G10G04G27G12G05
  96325062.67248  75070993.69147  20464156.7894                   20464152.7854
  94347447.16847  73530235.95345  22773269.4144                   22773267.8554
 113157893.18447  88186897.90744  23175114.9064                   23175115.0474
 101592990.70348  79175045.35146  20803198.5704                   20803196.9104
  94725922.28948  73826064.12446  21115812.6804                   21115810.8794
 106514682.78146  83009955.75644  23459569.9384                   23459571.2304
 108334320.24248  84427912.43546  21578754.5634                   21578752.6294
 114769930.65247  89443830.47345  22398174.5554                   22398173.8094
 11  8  1  1 25  0.0000000  0  8G02G17G09G10G04G27G12G05
  96282070.53948  75037493.36946  20455975.5314                   20455971.4454
  94364166.10247  73543263.71845  22776450.9694                   22776449.2304
 113198444.60947  88218496.31544  23182831.8054                   23182832.4414
 101538398.83248  79132506.27646  20792809.9304                   20792807.9224
  94763439.93048  73855298.67646  21122951.6954                   21122950.3284
 106542207.59046  83031403.53944  23464807.3834                   23464809.4384
 108231468.19947  84347768.05146  21559182.3914                   21559180.2114
 114638001.54347  89341028.72646  22373069.0234                   22373069.1914
 11  8  1  1 25 30.0000000  0  8G02G17G09G10G04G27G12G05
  97814820.49248  76231844.00747  20747648.2504                   20747643.9884
  95956444.78147  74784000.37345  23079451.4694                   23079449.4844
 114814664.08247  89477888.02344  23490387.8834                   23490388.8134
 103059836.22348  80318041.94546  21082329.9384                   21082328.2384
  96376579.75448  75112290.76646  21429922.4144                   21429920.4224
 108145288.33246  84280557.23544  23769863.8054                   23769865.8204
 109704410.82047  85495515.60846  21839474.0474                   21839472.2154
 116081712.07447  90465998.10145  22647798.1414                   22647797.6254
 11  8  1  1 26  0.0000000  0  8G02G17G09G10G04G27G12G05
  97772468.86348  76198842.76647  20739588.8524                   20739584.9734
  95973444.19947  74797246.68045  23082686.8134                   23082684.7194
 114855710.82847  89509872.40144  23498198.8524                   23498199.7974
 103006460.68448  80276450.65646  21072172.7894                   21072171.0664
  96414502.37948  75141840.88946  21437138.2814                   21437136.9534
 108173084.24246  84302216.26544  23775153.1954                   23775155.2034
 109602303.92247  85415951.85646  21820043.8914                   21820041.8284
 115950216.65647  90363534.28945  22622775.3834                   22622774.5944
 11  8  1  1 26 30.0000000  0  8G02G17G09G10G04G27G12G05
  97730432.79748  76166087.40747  20731589.6024                   20731585.7424
  95990581.63347  74810600.53245  23085947.7584                   23085946.0004
 114896996.98047  89542043.34544  23506055.1724                   23506056.8134
 102953691.81648  80235332.09946  21062131.0474                   21062129.4694
  96452621.02748  75171543.74546  21444391.8444                   21444390.7584
 108201008.47746  84323975.30044  23780467.5084                   23780469.2274
 109500570.30548  85336678.95646  21800683.9844                   21800681.8524
 115818939.28147  90261240.36546  22597793.8984                   22597793.3524
 11  8  1  1 27  0.0000000  0  8G02G17G09G10G04G27G12G05
  97688713.49248  76133578.89147  20723650.8444                   20723646.6334
  96007860.03946  74824064.21545  23089235.4774                   23089233.7664
 114938521.16047  89574399.75644  23513957.2504                   23513957.9184
 102901532.85248  80194688.80946  21052205.4384                   21052203.7304
  96490935.75048  75201399.40246  21451683.4304                   21451681.6804
 108229060.56646  84345833.93144  23785805.4304                   23785807.6254
 109399214.52748  85257700.48446  21781397.2584                   21781394.7114
 115687885.03947  90159120.31246  22572854.8754                   22572854.7074
 11  8  1  1 27 30.0000000  0  8G02G17G09G10G04G27G12G05
  97647308.99648  76101315.67147  20715771.7734                   20715767.8954
  96025277.87547  74837636.56945  23092550.3444                   23092548.1844
 114980278.64547  89606937.93544  23521903.4064                   23521904.4964
 102849983.42248  80154520.46046  21042395.9614                   21042394.4064
  96529443.13348  75231405.17946  21459011.0554                   21459009.1484
 108257236.37947  84367788.97544  23791167.0704                   23791168.9064
 109298237.51648  85179017.13646  21762181.7664                   21762179.4614
 115557055.74647  90057175.54146  22547958.7734                   22547958.4454
 11  8  1  1 28  0.0000000  0  8G02G17G09G10G04G27G12G05
  97606219.44148  76069297.86547  20707952.5164                   20707948.4454
  96042837.40246  74851319.33445  23095891.4304                   23095889.9414
 115022267.43847  89639656.38544  23529893.7274                   23529894.8594
 102799046.00448  80114829.01246  21032703.0474                   21032700.9734
  96568142.16848  75261560.29746  21466374.8834                   21466373.5204
 108285534.53146  84389839.33944  23796552.3054                   23796554.1804
 109197643.56347  85100632.27346  21743039.3444                   21743037.1094
 115426455.86347  89955409.52646  22523106.1954                   22523106.1334
 11  8  1  1 28 30.0000000  0  8G02G17G09G10G04G27G12G05
  97565446.39848  76037526.68447  20700193.7194                   20700189.6214
  96060541.78547  74865114.97845  23099260.3204                   23099259.3244
 115064486.69947  89672554.41044  23537927.6564                   23537928.3594
 102748724.23448  80075617.28646  21023126.6484                   21023125.1524
  96607033.23448  75291865.04646  21473775.8674                   21473774.1134
 108313954.61746  84411984.75944  23801960.1724                   23801962.8954
 109097437.38748  85022549.57246  21723970.8364                   21723968.0784
 115296090.55547  89853826.30546  22498298.5164                   22498298.8444
 11  8  1  1 29  0.0000000  0  8G02G17G09G10G04G27G12G05
  97524984.75448  76005998.15247  20692494.1644                   20692490.0824
  96078387.62147  74879020.83045  23102655.9384                   23102655.3634
 115106929.03547  89705626.26544  23546004.7344                   23546005.3244
 102699015.01648  80036882.88046  21013667.9844                   21013665.7774
  96646110.23047  75322314.65546  21481212.0314                   21481209.9494
 108342489.82046  84434219.85143  23807390.2664                   23807393.8324
 108997617.30947  84944767.71546  21704975.6334                   21704973.2194
 115165958.50047  89752424.81745  22473535.2424                   22473534.3404
 11  8  1  1 29 30.0000000  0  8G02G17G09G10G04G27G12G05
  97484831.62948  75974710.02147  20684853.2814                   20684849.0204
  96096373.53947  74893035.86145  23106078.8834                   23106077.1254
 115149588.86347  89738867.59144  23554121.9384                   23554122.9534
 102649917.66448  79998625.24346  21004324.7034                   21004322.7624
  96685368.85548  75352905.81646  21488682.5704                   21488680.9064
 108371135.39846  84456540.94844  23812841.6724                   23812843.6334
 108898184.07448  84867287.29446  21686054.1724                   21686051.7464
 115036061.18047  89651206.25345  22448816.5634                   22448815.5204
 11  8  1  1 30  0.0000000  0  8G02G17G09G10G04G27G12G05
  97444990.52748  75943665.04347  20677271.5164                   20677267.5514
  96114504.13747  74907163.60545  23109529.6094                   23109527.7664
 115192467.07047  89772279.05644  23562282.0234                   23562283.2234
 102601437.09448  79960848.22446  20995099.0474                   20995096.9304
  96724811.69948  75383640.50346  21496188.3364                   21496186.5864
 108399893.03546  84478949.36843  23818314.5004                   23818316.1844
 108799144.57847  84790113.69746  21667207.4304                   21667204.7814
 114906405.94547  89550176.34446  22424143.6564                   22424143.1954
 11  8  1  1 30 30.0000000  0  8G02G17G09G10G04G27G12G05
  97405457.58648  75912860.18046  20669748.7344                   20669744.8284
  96132777.09847  74921402.26345  23113006.2894                   23113004.9024
 115235557.55147  89805855.97244  23570481.8754                   23570483.0554
 102553571.53948  79923550.43146  20985990.6644                   20985988.4694
  96764433.65248  75414514.77946  21503727.9224                   21503726.4104
 108428757.16446  84501440.77043  23823806.7504                   23823808.9264
 108700498.17647  84713246.38246  21648435.5164                   21648433.3594
 114776992.69547  89449334.96745  22399517.0864                   22399516.1454
 11  8  1  1 31  0.0000000  0  8G02G17G09G10G04G27G12G05
  97366239.12548  75882300.34947  20662285.7194                   20662281.8594
  96151200.70747  74935758.31045  23116512.3524                   23116510.4734
 115278864.41447  89839601.49044  23578723.1174                   23578724.5864
 102506329.05548  79886738.15246  20977000.5864                   20976998.3954
  96804239.87948  75445532.64446  21511302.6724                   21511301.2194
 108457732.34446  84524018.70044  23829320.8134                   23829322.7584
 108602254.42647  84636692.83246  21629740.4614                   21629738.5084
 114647832.02747  89348690.41646  22374938.5084                   22374937.6054
 11  8  1  1 31 30.0000000  0  9G02G17G09G10G04G25G27G12G05
  97327326.38747  75851978.76147  20654880.9614                   20654876.5864
  96169767.64147  74950226.04045  23120045.5474                   23120044.3014
 115322376.09447  89873506.57744  23587003.1724                   23587004.5084
 102459702.66048  79850405.93346  20968127.6334                   20968125.6764
  96844220.29748  75476686.22246  21518910.7894                   21518909.3364
 129150561.50416                  24436953.063
 108486808.03946  84546674.96443  23834854.2814                   23834856.3874
 108504407.99647  84560448.90046  21611121.1644                   21611118.8244
 114518918.84447  89248238.71346  22350406.8134                   22350406.3484
 11  8  1  1 32  0.0000000  0  9G02G17G09G10G04G25G27G12G05
  97288715.17648  75821892.12647  20647533.5084                   20647529.1134
  96188475.17247  74964803.36645  23123605.6484                   23123603.5514
 115366086.05547  89907566.19744  23595321.0004                   23595321.8164
 102413690.09448  79814552.04446  20959372.0314                   20959369.7504
  96884369.69948  75507971.48146  21526550.9924                   21526549.8164
 129015205.51646 100543628.62643  24411197.6564                   24411198.9414
 108515978.13346  84569404.74044  23840405.2584                   23840407.4654
 108406958.37947  84484514.16046  21592576.9534                   21592574.6024
 114390253.10947  89147979.83446  22325923.1024                   22325922.1564
 11  8  1  1 32 30.0000000  0  9G02G17G09G10G04G25G27G12G05
  97250401.38748  75792037.24547  20640242.3284                   20640238.5554
  96207320.39547  74979487.99845  23127191.3134                   23127189.7544
 115409988.12946  89941775.51644  23603675.5944                   23603676.2304
 102368289.41848  79779174.92146  20950732.6254                   20950730.2274
  96924682.84048  75539384.32645  21534222.4774                   21534220.3674
 128879982.27746 100438259.95843  24385465.3134                   24385467.3984
 108545236.90646  84592203.62244  23845972.8364                   23845975.3054
 108309904.96147  84408888.16146  21574108.1804                   21574105.7774
 114261834.22347  89047913.30346  22301485.3754                   22301484.1954
 11  8  1  1 33  0.0000000  0  9G02G17G09G10G04G25G27G12G05
  97212381.80148  75762411.61747  20633007.4304                   20633003.5864
  96226302.21947  74994279.04945  23130803.5234                   23130801.6414
 115454076.66047  89976130.14344  23612065.0554                   23612066.2934
 102323499.28148  79744273.58246  20942209.1644                   20942207.1094
  96965155.94148  75570921.81646  21541924.3054                   21541922.5864
 128744892.48046 100332995.26043  24359758.5314                   24359760.9534
 108574579.69946  84615067.96044  23851556.9384                   23851559.2154
 108213248.19547  84333571.22446  21555714.9454                   21555712.4024
 114133663.71947  88948040.31346  22277095.0944                   22277094.4494
 11  8  1  1 33 30.0000000  0  9G02G17G09G10G04G25G27G12G05
  97174656.75047  75733015.49147  20625828.9614                   20625824.6374
  96245423.16847  75009178.50545  23134442.6094                   23134440.4344
 115498349.85247  90010628.64544  23620490.0164                   23620490.8914
 102279321.60248  79709849.47246  20933801.8204                   20933799.9654
  97005788.23848  75602583.37046  21549656.1334                   21549654.3954
 128609939.85946 100227837.42843  24334077.6174                   24334079.6954
 108604005.28146  84637996.85444  23857156.2344                   23857158.9224
 108116991.78947  84258566.26346  21537397.7424                   21537395.6484
 114005745.71947  88848364.07846  22252753.1884                   22252752.6294
 11  8  1  1 34  0.0000000  0  9G02G17G09G10G04G25G27G12G05
  97137226.28548  75703848.91247  20618705.9144                   20618701.9384
  96264683.16847  75024186.31845  23138107.3594                   23138104.2114
 115542804.35547  90045268.42044  23628949.1724                   23628950.2234
 102235757.58648  79675903.53446  20925512.0864                   20925509.9224
  97046577.99648  75634367.60946  21557418.5004                   21557416.7074
 128475127.52746 100122788.95943  24308423.8054                   24308425.6804
 108633511.05546  84660988.19944  23862770.9304                   23862773.7304
 108021138.53148  84183875.43946  21519157.9144                   21519155.4384
 113878083.55547  88748887.20346  22228459.9304                   22228458.8054
 11  8  1  1 34 30.0000000  0  9G02G17G09G10G04G25G27G12G05
  97100096.25848  75674916.45947  20611640.4224                   20611636.0824
  96284090.46147  75039308.92245  23141800.5864                   23141797.6914
 115587444.05947  90080052.48744  23637444.3834                   23637445.5554
 102192815.14848  79642441.92546  20917340.4534                   20917338.4184
  97087530.20348  75666278.42745  21565211.1644                   21565209.4184
 128340465.14147 100017857.30444  24282798.7734                   24282800.3594
 108663101.48046  84684045.48344  23868403.0004                   23868404.8054
 107925697.88347  84109506.14146  21500995.5784                   21500993.5394
 113750687.54747  88649617.70846  22204217.5314                   22204216.0474
 11  8  1  1 35  0.0000000  0  9G02G17G09G10G04G25G27G12G05
  97063267.10248  75646218.43247  20604631.7814                   20604628.0084
  96303647.52747  75054548.21544  23145521.7584                   23145519.2344
 115632267.55947  90114979.78744  23645973.5234                   23645975.2194
 102150496.93448  79609466.75146  20909287.7274                   20909285.3444
  97128644.82848  75698315.81646  21573034.9144                   21573033.5314
 128205957.16847  99913045.95544  24257202.6484                   24257204.1564
 108692775.58246  84707167.96944  23874048.6804                   23874051.5744
 107830674.18447  84035461.74246  21482913.3204                   21482911.3444
 113623562.35547  88550559.24346  22180025.9064                   22180025.0704
 11  8  1  1 35 30.0000000  0  9G02G17G09G10G04G25G27G12G05
  97026734.02048  75617751.12347  20597679.8914                   20597675.8164
  96323350.30947  75069901.05245  23149271.2504                   23149269.0944
 115677267.21147  90150044.35344  23654537.3444                   23654538.9454
 102108799.08248  79576974.96546  20901353.0944                   20901350.5634
  97169915.48848  75730474.79546  21580888.4844                   21580886.5944
 128071602.05947  99808353.74644  24231636.0394                   24231637.1454
 108722526.59846  84730350.42444  23879711.0554                   23879713.5594
 107736065.35247  83961740.59946  21464910.0234                   21464907.8244
 113496706.54347  88451710.67246  22155886.1644                   22155885.0704
 11  8  1  1 36  0.0000000  0  9G02G17G09G10G04G25G27G12G05
  96990500.66448  75589517.36347  20590785.0784                   20590780.8794
  96343204.55947  75085371.92244  23153049.3914                   23153046.6414
 115722444.38347  90185247.23144  23663134.1724                   23663135.3404
 102067727.09848  79544970.87546  20893537.0944                   20893535.0984
  97211344.92648  75762757.48145  21588772.3204                   21588770.1054
 127937407.16047  99703786.30444  24206099.1884                   24206101.0864
 108752356.48846  84753594.29444  23885387.6254                   23885390.0744
 107641878.77748  83888348.50546  21446986.7034                   21446984.6214
 113370127.93447  88353078.10046  22131798.7424                   22131797.9844
 11  8  1  1 36 30.0000000  0  9G02G17G09G10G04G25G27G12G05
  96954565.84048  75561516.23347  20583946.9454                   20583942.3954
  96363210.76247  75100961.20344  23156856.2894                   23156853.8554
 115767795.85547  90220585.91744  23671764.5554                   23671765.8014
 102027281.58648  79513454.92546  20885840.4304                   20885838.0864
  97252931.20348  75795162.39045  21596686.2814                   21596684.3524
 127803375.12147  99599345.80244  24180593.4384                   24180595.3134
 108782262.41447  84776897.40944  23891078.7424                   23891080.7304
 107548116.93048  83815287.35546  21429144.3834                   21429142.1214
 113243829.18447  88254663.60346  22107764.5944                   22107764.0234
 11  8  1  1 37  0.0000000  0  9G02G17G09G10G04G25G27G12G05
  96918932.13348  75533749.74647  20577166.1254                   20577161.5204
  96383372.80147  75116671.91644  23160692.3674                   23160690.7464
 115813321.56647  90256060.38044  23680428.2114                   23680429.4304
 101987466.79348  79482430.46346  20878264.1334                   20878262.2344
  97294675.81348  75827690.66045  21604629.5704                   21604627.8954
 127669512.05147  99495036.93044  24155120.2584                   24155121.9064
 108812245.27746  84800260.49644  23896784.5634                   23896786.9804
 107454785.55148  83742561.63146  21411383.8754                   21411381.5864
 113117817.31647  88156472.65146  22083785.2114                   22083784.4804
 11  8  1  1 37 30.0000000  0  9G02G17G09G10G04G25G27G12G05
  96883594.43048  75506213.90647  20570441.3444                   20570437.3404
  96403687.19547  75132501.31144  23164558.9144                   23164555.8324
 115859014.21147  90291664.95744  23689123.4384                   23689124.7504
 101948278.71148  79451894.34246  20870806.6884                   20870804.4534
  97336572.78548  75860337.66945  21612602.2814                   21612601.0044
 127535816.59847  99390858.64744  24129679.0554                   24129680.8594
 108842298.27046  84823678.24544  23902503.5004                   23902506.1134
 107361883.04747  83670170.10546  21393705.4454                   21393703.0664
 112992091.28547  88058504.41646  22059860.5394                   22059859.3014
 11  8  1  1 38  0.0000000  0  9G02G17G09G10G04G25G27G12G05
  96848553.85948  75478909.60347  20563773.1954                   20563769.0164
  96424156.40247  75148451.31744  23168453.7194                   23168451.8094
 115904872.05547  90327398.23044  23697849.3054                   23697851.2934
 101909719.94547  79421848.59846  20863469.1644                   20863466.9844
  97378621.89548  75893103.21845  21620603.7894                   21620601.9694
 127402293.20747  99286814.51944  24104270.3674                   24104271.7584
 108872420.62946  84847150.03144  23908235.7814                   23908238.0354
 107269413.27347  83598115.75646  21376109.0314                   21376106.5864
 112866655.68847  87960762.49046  22035990.9844                   22035989.7704
 11  8  1  1 38 30.0000000  0  9G02G17G09G10G04G25G27G12G05
  96813809.48448  75451836.10847  20557161.4844                   20557157.4264
  96444781.26247  75164522.63645  23172378.8444                   23172376.9384
 115950892.29347  90363258.01744  23706607.2114                   23706607.9414
 101871791.30148  79392293.84346  20856251.5164                   20856249.5434
  97420821.54348  75925986.06046  21628634.2584                   21628632.8204
 127268944.97747  99182906.85444  24078894.8914                   24078896.4884
 108902609.96946  84870673.96544  23913980.9064                   23913983.3594
 107177379.16848  83526400.89046  21358595.5004                   21358593.2814
 112741513.50847  87863249.20946  22012176.8834                   22012175.9534
 11  8  1  1 39  0.0000000  0  9G02G17G09G10G04G25G27G12G05
  96779358.39148  75424991.14447  20550605.7584                   20550601.6994
  96465560.54347  75180714.32045  23176332.5234                   23176331.6334
 115997069.76247  90399240.37544  23715394.7344                   23715395.8364
 101834491.57048  79363229.15446  20849153.5004                   20849151.3554
  97463167.98848  75958983.31645  21636692.3364                   21636690.8244
 127135772.66847  99079136.28244  24053552.9774                   24053554.5514
 108932861.68046  84894246.57844  23919736.4384                   23919739.9924
 107085781.14548  83455025.84746  21341164.5314                   21341162.5474
 112616666.21947  87765965.70746  21988419.1564                   21988418.1254
 11  8  1  1 39 30.0000000  0  9G02G17G09G10G04G25G27G12G05
  96745200.23848  75398374.44147  20544105.9534                   20544101.6134
  96486495.33247  75197027.14945  23180316.4454                   23180314.9494
 116043401.34446  90435342.75644  23724210.8444                   23724212.0664
 101797821.58248  79334655.19446  20842175.4924                   20842173.2734
  97505659.77048  75992093.80345  21644778.9534                   21644777.2344
 127002779.45747  98975505.27844  24028245.3284                   24028246.5124
 108963173.75846  84917866.18344  23925505.8444                   23925507.9024
 106994622.37948  83383993.06446  21323817.8754                   21323815.4844
 112492117.28547  87668914.69446  21964718.2504                   21964716.9384
 11  8  1  1 40  0.0000000  0  9G02G17G09G10G04G25G27G12G05
  96711331.52048  75371983.27047  20537660.4064                   20537656.0314
  96507583.82047  75213459.76045  23184329.6644                   23184328.4384
 116089881.45747  90471560.92644  23733055.9774                   23733056.9804
 101761779.39847  79306570.40546  20835316.8054                   20835314.6484
  97548292.60248  76025314.18845  21652891.3134                   21652889.7584
 126869965.68847  98872014.12244  24002970.9454                   24002972.6804
 108993541.03546  84941528.80444  23931284.1094                   23931286.9844
 106903902.56648  83313302.32746  21306554.2734                   21306552.2234
 112367867.06347  87572096.42446  21941074.2974                   21941073.4024
 11  8  1  1 40 30.0000000  0  9G02G17G09G10G04G25G27G12G05
  96677752.71948  75345818.02347  20531270.7114                   20531266.5004
  96528828.21547  75230013.83645  23188372.4384                   23188370.4454
 116136508.51647  90507893.55844  23741929.0474                   23741929.7814
 101726366.90648  79278976.29446  20828578.5394                   20828575.7464
  97591065.92248  76058644.04445  21661031.2344                   21661029.4774
 126737335.57847  98768666.00544  23977733.3914                   23977734.4224
 109023962.45746  84965233.60444  23937073.1954                   23937076.3954
 106813625.38348  83242956.50646  21289375.2424                   21289373.1024
 112243919.84847  87475514.28746  21917487.7114                   21917487.0164
 11  8  1  1 41  0.0000000  0  9G02G17G09G10G04G25G27G12G05
  96644459.06348  75319874.95446  20524935.2194                   20524930.9104
  96550225.48047  75246687.03345  23192444.0234                   23192442.4144
 116183275.52747  90544335.26844  23750828.0164                   23750829.9494
 101691580.80547  79251870.28346  20821958.3524                   20821955.7234
  97633974.71548  76092079.48845  21669196.1254                   21669194.6484
 126604888.29347  98665460.46944  23952528.8364                   23952530.2544
 109054431.72746  84988975.68143  23942871.7504                   23942873.7934
 106723789.91048  83172954.87046  21272280.3594                   21272277.7544
 112120275.41447  87379168.07546  21893959.2584                   21893957.7624
 11  8  1  1 41 30.0000000  0  9G02G17G09G10G04G25G27G12G05
  96611453.94148  75294156.72447  20518654.2664                   20518650.5204
  96571780.20747  75263482.93745  23196546.2344                   23196544.0704
 116230183.37147  90580886.70344  23759754.9224                   23759756.2504
 101657425.74648  79225255.98746  20815458.9454                   20815456.8524
  97677020.94948  76125622.02245  21677387.4454                   21677385.5784
 126472630.57847  98562402.61043  23927361.3204                   23927361.6994
 109084950.23446  85012756.14943  23948679.1954                   23948682.2814
 106634402.50848  83103302.38646  21255270.2734                   21255267.8954
 111996940.73447  87283063.21746  21870488.5554                   21870487.0824
 11  8  1  1 42  0.0000000  0  9G02G17G09G10G04G25G27G12G05
  96578735.84048  75268662.12847  20512428.5784                   20512423.8134
  96593492.05947  75280401.25745  23200677.2034                   23200675.5904
 116277227.81347  90617544.58144  23768707.1484                   23768708.8794
 101623901.60948  79199133.32446  20809079.4844                   20809077.0704
  97720201.53548  76159269.23045  21685604.2114                   21685602.7814
 126340564.31647  98459493.87743  23902229.6564                   23902230.1684
 109115514.36746  85036572.11043  23954495.2664                   23954498.9494
 106545464.33248  83033999.94346  21238345.6254                   21238343.5664
 111873917.87547  87187201.35646  21847078.5784                   21847076.9654
 11  8  1  1 42 30.0000000  0  9G02G17G09G10G04G25G27G12G05
  96546303.15248  75243389.95247  20506256.3674                   20506252.4574
  96615361.94947  75297442.74945  23204838.9844                   23204837.6804
 116324405.67247  90654306.40644  23777685.0314                   23777686.6374
 101591008.03148  79173502.00746  20802819.6484                   20802817.5394
  97763515.23048  76193020.16445  21693846.8834                   21693845.3594
 126208692.34847  98356736.61943  23877134.9924                   23877136.6054
 109146121.69546  85060421.80243  23960319.9924                   23960324.1884
 106456978.15248  82965049.71846  21221507.4844                   21221505.1564
 111751209.77047  87091584.75646  21823728.2114                   21823726.5474
 11  8  1  1 43  0.0000000  0  9G02G17G09G10G04G25G27G12G05
  96514153.89548  75218338.63147  20500138.6804                   20500134.6484
  96637389.35947  75314607.00145  23209030.7814                   23209028.8874
 116371712.59047  90691168.84144  23786686.9924                   23786688.7704
 101558744.43047  79148361.56646  20796680.3054                   20796678.0784
  97806959.13348  76226872.56145  21702114.0784                   21702112.5594
 126077016.33247  98254131.99543  23852077.6644                   23852079.0084
 109176768.81346  85084302.45243  23966152.2114                   23966154.6294
 106368945.10548  82896452.57146  21204755.0864                   21204752.6604
 111628818.41847  86996214.98546  21800437.4694                   21800435.9804
 11  8  1  1 43 30.0000000  0  9G02G17G09G10G04G25G27G12G05
  96482285.95348  75193506.49447  20494074.2194                   20494069.9344
  96659573.57847  75331893.40144  23213251.3364                   23213250.5904
 116419144.23847  90728128.39644  23795713.3364                   23795714.9104
 101527110.03148  79123711.40846  20790660.4844                   20790658.3794
  97850529.90248  76260823.81345  21710405.4534                   21710403.2544
 125945537.84047  98151681.30844  23827058.0784                   23827059.4574
 109207451.50846  85108210.84243  23971991.2894                   23971994.5514
 106281366.07048  82828209.21646  21188089.6564                   21188087.0634
 111506745.50047  86901093.32846  21777207.7344                   21777206.1524
 11  8  1  1 44  0.0000000  0  9G02G17G09G10G04G25G27G12G05
  96450703.23848  75168896.61947  20488064.3674                   20488060.0664
  96681919.62547  75349305.91844  23217504.3754                   23217503.0514
 116466701.78947  90765186.11844  23804763.2664                   23804764.9774
 101496109.85548  79099555.46046  20784761.4304                   20784759.2814
  97894230.68448  76294876.39645  21718721.0554                   21718719.5124
 125814264.34447  98049390.38244  23802077.8754                   23802079.6024
 109238172.19146  85132148.80743  23977837.5784                   23977840.8524
 106194248.06648  82760325.10146  21171511.3834                   21171509.1174
 111384998.48847  86806225.63246  21754039.9224                   21754038.2934
 11  8  1  1 44 30.0000000  0  9G02G17G09G10G04G25G27G12G05
  96419403.89848  75144507.54746  20482108.2664                   20482103.8244
  96704427.59447  75366844.64444  23221787.5864                   23221785.6254
 116514381.52047  90802339.03544  23813836.6954                   23813838.6134
 101465743.06648  79075893.06646  20778982.3754                   20778980.3874
  97938058.71948  76329028.10845  21727061.6954                   21727059.2544
 125683197.86347  97947260.67744  23777136.4774                   23777137.9144
 109268927.42246  85156113.70943  23983689.8524                   23983693.5354
 106107592.58248  82692801.39046  21155021.2974                   21155018.8444
 111263579.76247  86711613.73146  21730934.9224                   21730932.7194
 11  8  1  1 45  0.0000000  0  9G02G17G09G10G04G25G27G12G05
  96388387.25048  75120338.77447  20476206.1024                   20476201.5474
  96727098.43047  75384510.24344  23226101.6094                   23226099.9304
 116562180.28546  90839584.70144  23822932.3834                   23822934.6414
 101436010.14847  79052724.59946  20773324.9224                   20773322.2734
  97982012.77048  76363278.02045  21735425.7664                   21735423.8134
 125552341.52747  97845294.81544  23752235.2194                   23752236.9304
 109299714.69546  85180103.62643  23989548.6094                   23989553.1214
 106021402.98848  82625640.71846  21138619.9614                   21138617.5474
 111142492.97747  86617260.49746  21707892.7034                   21707891.2854
 11  8  1  1 45 30.0000000  0  9G02G17G09G10G04G25G27G12G05
  96357644.68448  75096383.54647  20470355.9774                   20470351.5474
  96749925.25447  75402297.38844  23230444.9774                   23230443.6804
 116610087.27047  90876914.66944  23832048.7274                   23832051.0784
 101406903.67248  79030044.26146  20767786.1174                   20767783.6804
  98026083.12548  76397618.56045  21743811.9454                   21743809.8714
 125421690.42647  97743488.85344  23727373.2664                   23727374.8554
 109330523.77746  85204110.39543  23995411.5944                   23995415.5944
 105935672.97748  82558838.15946  21122306.4064                   21122303.4654
 111021732.73447  86523161.70846  21684912.4304                   21684910.9414
 11  8  1  1 46  0.0000000  0  9G02G17G09G10G04G25G27G12G05
  96327184.21948  75072648.14746  20464559.4534                   20464554.7974
  96772917.22347  75420213.20144  23234820.5864                   23234819.0124
 116658108.20346  90914333.45944  23841187.1884                   23841189.2234
 101378432.64848  79007859.07946  20762368.0944                   20762365.6954
  98070277.34048  76432055.62245  21752221.5554                   21752219.6024
 125291256.28547  97641851.92144  23702552.1884                   23702554.1684
 109361361.12145  85228139.24943  24001279.4454                   24001283.6564
 105850413.96148  82492402.60646  21106082.0394                   21106079.2344
 110901311.34847  86429326.96246  21661996.9304                   21661995.7664
 11  8  1  1 46 30.0000000  0  9G02G17G09G10G04G25G27G12G05
  96296993.64548  75049123.05546  20458814.7344                   20458810.0824
  96796064.01647  75438249.70344  23239225.1024                   23239223.0594
 116706228.94547  90951829.96944  23850344.5634                   23850345.8874
 101350586.23848  78986160.61146  20757069.1804                   20757066.6524
  98114582.38748  76466579.06045  21760652.5864                   21760651.0984
 125161030.87547  97540377.66944  23677771.3054                   23677772.8484
 109392213.08646  85252179.47543  24007151.1174                   24007155.1724
 105765617.47348  82426327.47846  21089945.6644                   21089943.1174
 110781220.53548  86335749.80046  21639144.2274                   21639142.8714
 11  8  1  1 47  0.0000000  0  9G02G17G09G10G04G25G27G12G05
  96267072.82448  75025808.15646  20453120.5004                   20453116.1844
  96819367.21947  75456408.08344  23243659.6644                   23243657.7424
 116754447.05947  90989402.40144  23859519.9924                   23859522.3714
 101323365.43448  78964949.61846  20751889.3134                   20751886.7114
  98158997.64548  76501188.36745  21769104.6484                   21769102.8554
 125031017.91847  97439068.95144  23653030.5234                   23653032.2774
 109423078.13346  85276229.95543  24013024.6954                   24013028.5274
 105681286.27348  82360614.89946  21073897.8984                   21073895.2974
 110661464.30548  86242433.36246  21616355.6174                   21616354.1454
 11  8  1  1 47 30.0000000  0  9G02G17G09G10G04G25G27G12G05
  96237428.04348  75002708.36647  20447479.1884                   20447475.1764
  96842834.40247  75474694.19945  23248126.0634                   23248124.0984
 116802766.29346  91027053.58044  23868714.7584                   23868716.8874
 101296777.27748  78944231.60946  20746829.4454                   20746827.0594
  98203528.30548  76535887.62145  21777578.3054                   21777576.7664
 124901227.10247  97337933.33344  23628331.7344                   23628333.3054
 109453960.64846  85300293.99043  24018901.7034                   24018905.9184
 105597429.63348  82295272.11146  21057940.3284                   21057938.0044
 110542052.30948  86149385.14546  21593632.0004                   21593630.0904
 11  8  1  1 48  0.0000000  0  9G02G17G09G10G04G25G27G12G05
  96208061.11748  74979825.07146  20441890.8674                   20441886.8244
  96866469.05947  75493110.81945  23252623.2194                   23252621.5124
 116851186.36747  91064783.38644  23877929.0314                   23877931.1254
 101270824.94548  78924009.05546  20741890.7114                   20741888.6764
  98248175.52748  76570677.67245  21786074.4844                   21786072.8674
 124771664.37947  97236975.43344  23603677.1484                   23603678.6094
 109484861.04346  85324371.94943  24024781.9844                   24024786.0004
 105514052.78948  82230303.19046  21042074.3834                   21042071.8834
 110422990.71948  86056609.97646  21570975.3054                   21570973.7234
 11  8  1  1 48 30.0000000  0  9G02G17G09G10G04G25G27G12G05
  97754391.93848  76184758.20646  20736147.9304                   20736143.0594
  98465690.88747  76739257.69745  23556944.9774                   23556942.6454
 118475122.68046  92330188.13544  24186953.6804                   24186955.4734
 102820928.76248  80131882.18446  21036865.8754                   21036863.5004
  99868356.05948  77833156.02645  22094384.5314                   22094382.8524
 126217756.82847  98363800.79144  23878859.2034                   23878860.8444
 111091195.65246  86576061.04944  24330457.8674                   24330461.9884
 107006580.80948  83393312.07446  21326092.9924                   21326090.4654
 111879706.15247  87191713.01346  21848179.0164                   21848177.5744
 11  8  1  1 49  0.0000000  0  9G02G17G09G10G04G25G27G12G05
  97725564.82448  76162295.55647  20730662.3594                   20730657.7934
  98489649.53147  76757926.79645  23561504.1094                   23561502.8094
 118523722.66447  92368058.10244  24196202.3364                   24196204.4384
 102796234.41848  80112639.87646  21032166.3674                   21032164.5664
  99913218.70348  77868113.96745  22102921.7814                   22102920.0744
 126088645.91847  98263194.96244  23854290.3984                   23854291.7464
 111122111.35546  86600150.96043  24336340.4614                   24336344.6564
 106924157.52048  83329086.18346  21310408.3134                   21310405.6524
 111761341.27348  87099480.71846  21825654.7424                   21825652.9654
 11  8  1  1 49 30.0000000  0  9G02G17G09G10G04G25G27G12G05
  97697004.35548  76140040.66947  20725227.2274                   20725222.7304
  98513769.15247  76776721.31944  23566093.5864                   23566092.1214
 118572406.01247  92405993.01944  24205466.4774                   24205468.4494
 102772167.50848  80093886.46946  21027586.8674                   21027584.2894
  99958184.79348  77903152.51045  22111478.3054                   22111476.3554
 125959763.25047  98162767.01144  23829764.3364                   23829765.6564
 111153029.00046  86624242.38943  24342224.1174                   24342228.7624
 106842212.29748  83265232.80046  21294814.5634                   21294812.1254
 111643327.01648  87007521.64346  21803197.4224                   21803195.5864
 11  8  1  1 50  0.0000000  0  9G02G17G09G10G04G25G27G12G05
  97668710.21548  76117993.31346  20719843.4144                   20719838.8444
  98538050.99247  76795642.22044  23570714.7664                   23570712.1484
 118621170.09446  92443990.83243  24214745.7274                   24214747.8954
 102748728.12548  80075622.05546  21023126.3914                   21023124.0824
 100003253.14848  77938270.73045  22120054.4844                   22120052.9304
 125831112.31647  98062519.61744  23805282.7894                   23805284.7424
 111183946.63346  86648333.82443  24348108.7274                   24348112.1024
 106760748.02348  83201754.18446  21279312.3984                   21279310.0704
 111525666.62948  86915838.30946  21780807.2274                   21780805.3634
 11  8  1  1 50 30.0000000  0  8G02G17G09G10G04G25G12G05
  97640682.84848  76096153.83747  20714509.7734                   20714505.4844
  98562497.05147  76814691.13244  23575365.6724                   23575364.7274
 118670012.94947  92482050.02944  24224041.3284                   24224043.3404
 102725917.82048  80057847.82346  21018785.5704                   21018783.3014
 100048423.50448  77973468.42945  22128649.9694                   22128648.1484
 125702697.21947  97962455.97444  23780846.0084                   23780848.0984
 106679768.02748  83138652.91546  21263902.2424                   21263900.0354
 111408364.67647  86824434.27346  21758485.4844                   21758483.5234
 11  8  1  1 51  0.0000000  0  8G02G17G09G10G04G25G12G05
  97612924.25848  76074523.79447  20709227.8834                   20709222.9304
  98587111.13347  76833870.93844  23580050.0164                   23580048.8874
 118718935.07847  92520170.97244  24233350.5634                   24233352.6764
 102703739.93848  80040566.38646  21014565.5234                   21014563.0434
 100093697.78547  78008747.10645  22137265.4694                   22137264.3594
 125574524.22347  97862580.99444  23756455.6644                   23756457.4694
 106599278.30548  83075933.69746  21248585.6174                   21248583.0634
 111291427.69147  86733314.62046  21736233.0394                   21736231.3094
 11  8  1  1 51 30.0000000  0  8G02G17G09G10G04G25G12G05
  97585436.67248  76053104.92347  20703996.6174                   20703992.1094
  98611896.91447  76853184.54044  23584766.6414                   23584765.0274
 118767936.12147  92558353.42144  24242675.4384                   24242677.0394
 102682197.06347  80023779.76946  21010466.1884                   21010463.5354
 100139077.13747  78044107.66845  22145900.9384                   22145899.2504
 125446599.13747  97762899.19844  23732112.3134                   23732113.4924
 106519283.55147  83013600.15146  21233363.1884                   21233360.3524
 111174861.21947  86642483.68646  21714051.0474                   21714049.3164
 11  8  1  1 52  0.0000000  0  8G02G17G09G10G04G25G12G05
  97558225.52348  76031901.46046  20698818.4064                   20698813.9924
  98636861.36346  76872637.37844  23589517.2584                   23589515.0634
 118817019.53946  92596600.07044  24252016.5084                   24252018.4064
 102661295.22747  80007492.64946  21006488.2424                   21006486.2034
 100184566.17248  78079553.67545  22154556.9694                   22154555.4574
 125318931.21947  97663417.79844  23707817.9614                   23707819.3754
 106439792.20348  82951658.86246  21218236.5554                   21218233.7384
 111058674.71547  86551948.83346  21691941.2344                   21691939.1024
 11  8  1  1 52 30.0000000  0  8G02G17G09G10G04G25G12G05
  97531282.44948  76010906.88046  20693691.4064                   20693687.1334
  98661997.68447  76892224.10044  23594301.0314                   23594298.6724
 118866174.80546  92634902.67544  24261369.8834                   24261372.3484
 102641027.35948  79991699.53646  21002631.2974                   21002629.0554
 100230156.73848  78115078.82345  22163232.7894                   22163231.0634
 125191516.26247  97564133.47044  23683571.9384                   23683573.2814
 106360799.59048  82890106.20546  21203204.6334                   21203202.1994
 110942863.56648  86461706.45946  21669903.2274                   21669901.3984
 11  8  1  1 53  0.0000000  0  8G02G17G09G10G04G25G12G05
  97504607.35948  75990121.12547  20688615.3594                   20688610.8874
  98687307.43446  76911946.01344  23599116.4844                   23599115.1804
 118915399.74246  92673259.60544  24270736.9224                   24270739.6374
 102621393.95747  79976400.82446  20998895.4614                   20998893.2734
 100275847.52048  78150682.06145  22171927.6804                   22171925.8554
 125064357.71147  97465048.93944  23659373.9064                   23659374.5744
 106282307.96948  82828943.93846  21188268.1884                   21188265.5084
 110827431.73848  86371759.65846  21647937.3754                   21647935.2704
 11  8  1  1 53 30.0000000  0  8G02G17G09G10G04G25G12G05
  97478196.20348  75969541.02947  20683589.3134                   20683585.0204
  98712787.79747  76931800.85244  23603964.8444                   23603963.8014
 118964687.97346  92711665.84544  24280115.7344                   24280119.1954
 102602391.28147  79961593.58346  20995279.1414                   20995276.8594
 100321633.84047  78186359.73145  22180640.1024                   22180638.3874
 124937455.23447  97366163.94344  23635225.4614                   23635226.4184
 106204316.63348  82768171.50246  21173426.8444                   21173424.2424
 110712378.61748  86282107.95546  21626043.2034                   21626041.3554
 11  8  1  1 54  0.0000000  0  8G02G17G09G10G04G25G12G05
  97452044.29748  75949162.94046  20678612.7274                   20678608.3524
  98738436.15247  76951786.61744  23608846.3984                   23608844.3634
 119014032.66047  92750116.01044  24289506.7504                   24289509.4494
 102584015.54347  79947274.85746  20991782.7664                   20991779.9304
 100367510.49647  78222107.79145  22189369.9384                   22189369.0204
 124810808.11347  97267477.91944  23611125.5084                   23611125.8634
 106126823.94148  82707787.61646  21158680.6804                   21158678.0434
 110597703.52347  86192750.81046  21604221.3834                   21604219.0904
 11  8  1  1 54 30.0000000  0  8G02G17G09G10G04G25G12G05
  97426143.81348  75928980.77947  20673684.0944                   20673679.8754
  98764245.74647  76971898.02944  23613757.4844                   23613755.9804
 119063423.96146  92788602.56544  24298905.0394                   24298909.0514
 102566259.39148  79933438.92546  20988403.5634                   20988400.9774
 100413469.25447  78257919.82845  22198116.5554                   22198114.3834
 124684412.30147  97168987.73744  23587073.1334                   23587073.8364
 106049825.05548  82647788.51546  21144028.1174                   21144025.5824
 110483402.25848  86103684.95246  21582470.4614                   21582468.4224
 11  8  1  1 55  0.0000000  0  8G02G17G09G10G04G25G12G05
  97400496.52348  75908995.90147  20668803.6724                   20668799.3244
  98790219.53547  76992137.38144  23618700.7274                   23618698.3594
 119112861.48846  92827125.14044  24308313.0554                   24308316.1024
 102549125.53148  79920087.89746  20985142.7194                   20985140.6134
 100459510.87547  78293796.45945  22206877.2114                   22206876.1564
 124558273.21147  97070697.57944  23563069.2114                   23563070.3594
 105973324.49248  82588177.72946  21129470.1884                   21129467.8524
 110369480.34448  86014914.70546  21560792.0394                   21560789.7424
 11  8  1  1 55 30.0000000  0  8G02G17G09G10G04G25G12G05
  97375105.22748  75889210.50547  20663971.6484                   20663967.5084
  98816362.48047  77012508.50944  23623675.7424                   23623673.2974
 119162346.10947  92865684.32344  24317730.5704                   24317733.0434
 102532617.48048  79907224.51246  20982001.5554                   20981999.5944
 100505638.09847  78329739.77745  22215654.8134                   22215653.2194
 124432397.86747  96972612.96644  23539116.4064                   23539116.9884
 105897328.55148  82528960.15746  21115008.8054                   21115006.5434
 110255944.45748  85926445.25246  21539186.4844                   21539184.8284
 11  8  1  1 56  0.0000000  0  8G02G17G09G10G04G25G12G05
  97349964.05548  75869619.99746  20659187.3204                   20659183.3204
  98842670.85247  77033008.54044  23628681.9534                   23628679.2664
 119211870.69147  92904274.68544  24327154.7664                   24327157.4104
 102516730.22347  79894844.85146  20978978.2814                   20978976.2234
 100551845.07847  78365745.23345  22224448.3524                   22224445.8444
 124306784.80147  96874732.67744  23515212.7344                   23515213.1094
 105821835.01248  82470134.05846  21100642.9534                   21100640.5784
 110142793.30148  85838275.59346  21517654.3984                   21517652.4534
 11  8  1  1 56 30.0000000  0  8G02G17G09G10G04G25G12G05
  97325074.33648  75850225.43846  20654451.0394                   20654446.6374
  98869146.80547  77053639.21844  23633719.9384                   23633717.4304
 119261433.46947  92942894.81944  24336586.6564                   24336589.1524
 102501464.74248  79882949.69646  20976073.1254                   20976070.9844
 100598131.71947  78401812.77645  22233255.9694                   22233254.2624
 124181438.37947  96777060.21344  23491360.1414                   23491360.9924
 105746847.10248  82411701.94546  21086372.9924                   21086370.2894
 110030031.22748  85750409.11446  21496196.5944                   21496194.8524
 11  8  1  1 57  0.0000000  0  8G02G17G09G10G04G25G12G05
  97300432.60548  75831024.11347  20649761.8524                   20649757.3874
  98895787.86347  77074398.52044  23638788.9774                   23638787.5234
 119311028.77047  92981540.25244  24346024.8754                   24346026.5864
 102486818.21948  79871536.86546  20973286.3914                   20973283.9264
 100644493.95347  78437939.20245  22242078.5314                   22242076.1684
 124056358.87547  96679595.72444  23467558.1564                   23467558.9304
 105672364.21148  82353663.36146  21072199.4144                   21072196.7274
 109917658.07048  85662845.69046  21474812.5314                   21474810.5744
 11  8  1  1 57 30.0000000  0  8G02G17G09G10G04G25G12G05
  97276041.73048  75812018.26847  20645120.3834                   20645116.1884
  98922599.10246  77095290.42744  23643891.6954                   23643889.4534
 119360657.70347  93020211.91744  24355467.7584                   24355471.0044
 102472794.34448  79860609.19146  20970617.7114                   20970615.3134
 100690934.64147  78474126.77445  22250915.7344                   22250913.8634
 123931553.40647  96582344.77944  23443808.1024                   23443809.2664
 105598392.29748  82296022.95446  21058123.0084                   21058120.7664
 109805681.34448  85575591.16346  21453504.1024                   21453502.3754
 11  8  1  1 58  0.0000000  0  8G02G17G09G10G04G25G12G05
  97251903.60948  75793209.36047  20640527.1954                   20640522.8324
  98949583.84047  77116317.52044  23649026.2734                   23649024.6724
 119410319.78146  93058909.39244  24364918.1334                   24364921.2464
 102459395.19948  79850168.33046  20968067.8754                   20968065.5784
 100737454.92647  78510376.36445  22259767.9924                   22259766.3404
 123807027.42247  96485311.63944  23420111.5554                   23420112.5904
 105524936.40648  82238784.64146  21044144.9844                   21044142.1484
 109694106.22748  85488649.58546  21432272.1094                   21432270.0984
 11  8  1  1 58 30.0000000  0  8G02G17G09G10G04G25G12G05
  97228010.38748  75774591.28046  20635980.3524                   20635976.2424
  98976735.49246  77137474.67344  23654193.3284                   23654191.2544
 119460005.76646  93097625.50844  24374374.5314                   24374376.9844
 102446613.68448  79840208.74246  20965635.8284                   20965633.2154
 100784046.67647  78546681.63045  22268634.3284                   22268632.3674
 123682777.13347  96388493.32644  23396467.6254                   23396468.9734
 105451991.47348  82181944.46846  21030263.8204                   21030261.2894
 109582928.63748  85402017.75446  21411115.7274                   21411113.7974
 11  8  1  1 59  0.0000000  0  8G02G17G09G10G04G25G12G05
  97204363.49248  75756165.15846  20631480.3754                   20631476.2154
  99004057.21146  77158764.34244  23659392.1724                   23659390.3484
 119509714.92246  93136359.66743  24383833.5004                   24383837.3054
 102434451.81348  79830731.98246  20963321.4224                   20963318.8524
 100830710.94547  78583043.43045  22277514.5394                   22277511.9064
 123558808.06647  96291894.14444  23372876.8984                   23372878.4064
 105379562.34848  82125506.21946  21016481.2114                   21016478.5784
 109472154.08648  85315700.00546  21390035.7114                   21390033.6334
 11  8  1  1 59 30.0000000  0  8G02G17G09G10G04G25G12G05
  97180960.33248  75737928.96146  20627027.0784                   20627022.7704
  99031547.91846  77180185.71344  23664623.0864                   23664622.4694
 119559442.53146  93175108.18343  24393296.5784                   24393299.7704
 102422906.83248  79821735.92446  20961123.9694                   20961121.8594
 100877444.61747  78619459.29045  22286407.2344                   22286405.0704
 123435121.18047  96195514.84745  23349340.2424                   23349341.2194
 105307648.75848  82069469.69146  21002796.3914                   21002793.9104
 109361783.23848  85229696.81146  21369032.7894                   21369030.8554
 11  8  1  2  0  0.0000000  0  8G02G17G09G10G04G25G12G05
  97157801.99248  75719883.52146  20622619.8914                   20622615.7814
  99059210.13346  77201740.70444  23669886.6334                   23669885.7584
 119609187.43846  93213870.23343  24402762.9534                   24402766.2624
 102411980.33648  79813221.79846  20959044.8054                   20959042.2274
 100924248.20347  78655929.64345  22295313.8054                   22295311.8324
 123311721.36347  96099359.22045  23325857.9224                   23325859.4264
 105236254.43048  82013837.77746  20989210.3364                   20989207.8054
 109251820.77348  85144011.83546  21348107.5864                   21348105.7664
 11  8  1  2  0 30.0000000  0  8G02G17G09G10G04G25G12G05
  97134883.52348  75702024.99047  20618259.1564                   20618254.5204
  99087040.48046  77223426.70744  23675183.2584                   23675181.5044
 119658943.00846  93252640.51443  24412230.9224                   24412234.5044
 102401667.95348  79805186.20746  20957082.7114                   20957080.1724
 100971116.47747  78692450.37545  22304233.0474                   22304230.8094
 123188607.63347  96003426.55645  23302430.1804                   23302430.8204
 105165377.74648  81958609.22146  20975723.0784                   20975720.4144
 109142266.05548  85058644.60146  21327260.0634                   21327258.3054
 11  8  1  2  1  0.0000000  0  8G02G17G09G10G04G25G12G05
  97112205.88748  75684354.13547  20613943.4774                   20613938.9414
  99115041.16446  77245245.44844  23680511.7664                   23680509.8444
 119708707.94146  93291418.15243  24421701.0314                   24421704.9734
 102391970.48848  79797629.75746  20955237.1644                   20955234.9304
 101018049.31347  78729021.43145  22313163.5234                   22313161.6954
 123065784.62947  95907720.42445  23279057.1644                   23279058.3014
 105095022.04348  81903786.62246  20962334.8594                   20962332.0864
 109033123.03148  84973598.14346  21306490.6884                   21306488.8134
 11  8  1  2  1 30.0000000  0  8G02G17G09G10G04G25G12G05
  97089768.17248  75666870.23547  20609673.5704                   20609669.2974
  99143212.99246  77267197.53644  23685872.0314                   23685870.8634
 119758479.71146  93330201.14943  24431173.0944                   24431176.9774
 102382888.00847  79790552.53946  20953509.0864                   20953506.2734
 101065046.28547  78765642.46345  22322106.5944                   22322104.9454
 122943255.59847  95812243.34145  23255740.9694                   23255742.0044
 105025189.58248  81849371.74546  20949046.1644                   20949043.3914
 108924394.92648  84888875.01746  21285800.1414                   21285798.3134
 11  8  1  2  2  0.0000000  0  8G02G17G09G10G04G25G12G05
  97067564.75848  75649568.89547  20605448.8444                   20605444.0704
  99171551.77347  77289279.67044  23691265.4534                   23691263.6724
 119808250.38746  93368983.18543  24440643.6804                   24440647.9304
 102374414.42247  79783949.76146  20951896.9454                   20951893.3324
 101112100.89547  78802308.40145  22331060.7504                   22331058.6994
 122821018.36747  95716993.68045  23232480.0784                   23232481.1174
 104955877.07448  81795362.01946  20935856.2894                   20935853.6954
 108816079.55148  84804473.48646  21265188.8364                   21265186.4614
 11  8  1  2  2 30.0000000  0  8G02G17G09G10G04G25G12G05
  97045598.73848  75632452.54646  20601268.6024                   20601264.1844
  99200061.98846  77311495.49744  23696690.2504                   23696687.9184
 119858021.32046  93407765.47243  24450115.4844                   24450119.2344
 102366553.48047  79777824.38646  20950400.5634                   20950398.0514
 101159216.03548  78839021.52545  22340026.4454                   22340024.4454
 122699080.12547  95621976.96345  23209275.9454                   23209276.6454
 104887090.92248  81741762.44046  20922766.7424                   20922764.0474
 108708183.66848  84720398.84746  21244656.5234                   21244655.1374
 11  8  1  2  3  0.0000000  0  8G02G17G09G10G04G25G12G05
  97023871.55148  75615522.29747  20597134.2034                   20597129.3594
  99228746.39847  77333846.97544  23702149.2194                   23702146.7544
 119907791.55946  93446547.20543  24459586.2344                   24459591.4264
 102359306.64147  79772177.52846  20949021.6724                   20949019.1684
 101206392.69947  78875782.56745  22349004.0314                   22349001.6134
 122577446.05147  95527197.27445  23186129.3284                   23186130.1914
 104818834.84848  81688575.90646  20909778.0784                   20909775.1954
 108600712.07848  84636654.80846  21224205.2814                   21224203.3594
 11  8  1  2  3 30.0000000  0  7G02G17G10G04G25G12G05
  97002381.51648  75598776.84747  20593044.4144                   20593040.0274
  99257605.10546  77356334.32644  23707639.8594                   23707638.4494
 102352672.26647  79767007.91446  20947758.8594                   20947756.4694
 101253628.63347  78912589.82645  22357992.6724                   22357990.7344
 122456118.25847  95432656.20244  23163041.6954                   23163042.6174
 104751110.03947  81635803.35946  20896890.3914                   20896887.6604
 108493666.94548  84553243.08046  21203835.2734                   21203833.4184
 11  8  1  2  4  0.0000000  0  7G02G17G10G04G25G12G05
  96981125.62948  75582213.85247  20588999.5394                   20588995.0204
  99286636.44147  77378956.19044  23713165.0084                   23713162.7734
 102346647.56647  79762313.36446  20946612.5704                   20946609.7304
 101300920.73447  78949440.79945  22366991.9924                   22366990.2464
 122335097.60947  95338354.45845  23140011.7114                   23140012.3484
 104683916.14547  81583444.49646  20884103.5554                   20884101.1994
 108387048.71548  84470164.01346  21183546.6884                   21183544.4964
 11  8  1  2  4 30.0000000  0  7G02G17G10G04G25G12G05
  96960113.21948  75565840.57047  20585001.3984                   20584996.6724
  99315851.00046  77401720.79144  23718724.3754                   23718722.0944
 102341241.91847  79758101.19146  20945583.9694                   20945581.3444
 101348277.80147  78986342.45545  22376003.5784                   22376001.5744
 122214397.32847  95244302.35244  23117043.3754                   23117043.9024
 104617265.46547  81531508.92946  20871420.4614                   20871417.7194
 108280870.44548  84387427.76346  21163341.1484                   21163339.5634
 11  8  1  2  5  0.0000000  0  7G02G17G10G04G25G12G05
  96939344.34448  75549657.06147  20581048.6174                   20581044.5474
  99345250.50847  77424629.50444  23724318.3134                   23724316.8714
 102336455.56348  79754371.59746  20944672.8834                   20944670.5204
 101395699.73047  79023294.61845  22385027.8754                   22385026.5354
 122094021.23447  95150502.85845  23094136.2894                   23094137.1524
 104551160.28148  81479998.41646  20858841.5634                   20858838.5164
 108175135.73448  84305037.14446  21143221.1254                   21143218.6954
 11  8  1  2  5 30.0000000  0  7G02G17G10G04G25G12G05
  96918817.28148  75533661.97846  20577142.6024                   20577138.2384
  99374834.68447  77447682.14844  23729948.8984                   23729946.2424
 102332287.15248  79751123.50446  20943879.7194                   20943877.4224
 101443184.63747  79060295.84045  22394064.0784                   22394062.5164
 121973971.65247  95056957.78245  23071292.0634                   23071292.6954
 104485601.80948  81428913.91646  20846365.7894                   20846362.7774
 108069846.51648  84222993.66046  21123184.9064                   21123182.2934
 11  8  1  2  6  0.0000000  0  7G02G17G10G04G25G12G05
  96898524.20348  75517849.22647  20573281.2424                   20573276.5864
  99404597.02347  77470873.59544  23735612.4144                   23735609.8554
 102328728.78947  79748350.78346  20943202.8834                   20943199.9344
 101490724.03147  79097339.53445  22403110.6884                   22403108.4964
 121854244.36747  94963663.82945  23048508.7114                   23048508.8164
 104420584.72348  81378251.26646  20833993.3364                   20833990.5594
 107964998.61348  84141294.05546  21103233.0234                   21103230.6994
 11  8  1  2  6 30.0000000  0  7G02G17G10G04G25G12G05
  96878464.35948  75502218.20746  20569463.9614                   20569459.4614
  99434538.10247  77494204.33744  23741309.2814                   23741306.7584
 102325779.28548  79746052.49546  20942641.6954                   20942638.2304
 101538316.54747  79134424.61245  22412166.4924                   22412164.7624
 121734842.24247  94870623.29945  23025786.9844                   23025787.6954
 104356110.70348  81328011.80046  20821724.6484                   20821721.7194
 107860594.18848  84059940.01746  21083365.6884                   21083363.3404
 11  8  1  2  7  0.0000000  0  7G02G17G10G04G25G12G05
  96858633.00848  75486765.22747  20565689.9144                   20565685.2384
  99464654.65247  77517671.79543  23747040.6564                   23747037.2154
 102323434.06347  79744225.07546  20942194.9304                   20942192.1804
 101585957.84047  79171547.69845  22421232.7114                   22421231.0944
 121615764.63747  94777835.60745  23003127.0474                   23003127.9574
 104292177.85248  81278194.02646  20809558.3134                   20809555.4104
 107756632.25448  83978930.77546  21063581.8054                   21063579.9694
 11  8  1  2  7 30.0000000  0  7G02G17G10G04G25G12G05
  96839023.32848  75471484.98747  20561958.3524                   20561953.6914
  99494941.10546  77541271.64844  23752803.6174                   23752801.1764
 102321685.87948  79742862.87646  20941862.2424                   20941859.8984
 101633640.13747  79208702.77445  22430306.3054                   22430304.4924
 121497008.29347  94685298.23045  22980528.9144                   22980529.2464
 104228781.73048  81228794.47246  20797494.7894                   20797491.6334
 107653109.28548  83898263.59446  21043882.1724                   21043879.9344
 11  8  1  2  8  0.0000000  0  7G02G17G10G04G25G12G05
  96819636.06348  75456378.06446  20558268.8524                   20558264.5044
  99525399.88346  77565005.75844  23758600.0634                   23758597.1454
 102320535.62547  79741966.58946  20941643.7424                   20941641.0904
 101681364.19947  79245890.35945  22439388.0234                   22439385.9964
 121378577.94947  94593014.87945  22957992.2584                   22957992.4384
 104165925.57047  81179815.67546  20785533.3674                   20785530.6914
 107550029.83648  83817942.00246  21024266.7894                   21024264.5354
 11  8  1  2  8 30.0000000  0  7G02G17G10G04G25G12G05
  96800471.45748  75441444.63446  20554622.1644                   20554617.4264
  99556032.54346  77588875.40344  23764429.2734                   23764427.1094
 102319983.47347  79741536.35346  20941538.4304                   20941536.0744
 101729130.17247  79283110.62045  22448477.5634                   22448475.7584
 121260477.70347  94500988.74245  22935518.6484                   22935519.0004
 104103612.10547  81131259.75546  20773675.5084                   20773672.3794
 107447397.59448  83737968.88346  21004736.6094                   21004734.5594
 11  8  1  2  9  0.0000000  0  7G02G17G10G04G25G12G05
  96781528.11348  75426683.61546  20551017.4614                   20551012.5634
  99586839.16446  77612880.54744  23770290.7664                   23770289.7234
 102320027.93448  79741571.02346  20941546.8594                   20941544.1604
 101776936.13347  79320361.99145  22457574.6724                   22457572.9804
 121142709.89147  94409221.65445  22913107.7114                   22913108.5704
 104041842.47748  81083127.61346  20761920.8674                   20761918.2384
 107345214.48448  83658345.75246  20985291.7734                   20985289.4924
 11  8  1  2  9 30.0000000  0  7G02G17G10G04G25G12G05
  96762809.97748  75412098.08446  20547455.4144                   20547450.7504
  99617824.53946  77637025.00144  23776187.7034                   23776185.9304
 102320672.91448  79742073.62246  20941669.4774                   20941666.8714
 101824785.64547  79357647.35244  22466680.3284                   22466677.8484
 121025282.10947  94317719.54145  22890762.3054                   22890763.0354
 103980623.15248  81035424.26746  20750271.3284                   20750268.3524
 107243487.84048  83579078.30246  20965933.7344                   20965931.6954
 11  8  1  2 10  0.0000000  0  7G02G17G10G04G25G12G05
  96744312.98848  75397684.86846  20543935.3914                   20543930.8404
  99648986.53546  77661307.09244  23782117.8674                   23782116.3954
 102321914.00447  79743040.74246  20941905.7114                   20941903.1024
 101872674.83247  79394963.61545  22475793.2974                   22475790.9964
 120908194.28147  94226482.30945  22868481.1094                   22868481.7154
 103919952.94148  80988148.81746  20738726.0554                   20738723.3914
 107142217.30948  83500166.25446  20946662.5634                   20946660.5434
 11  8  1  2 10 30.0000000  0  7G02G17G10G04G25G12G05
  96726033.34048  75383441.02847  20540456.9304                   20540452.2894
  99680322.48846  77685724.72944  23788081.5944                   23788079.2034
 102323747.30547  79744469.31246  20942254.6414                   20942251.7814
 101920599.49647  79432307.53745  22484913.1094                   22484910.5004
 120791446.32847  94135509.91345  22846264.0474                   22846265.0354
 103859829.57848  80941299.47646  20727285.2114                   20727282.3594
 107041402.02048  83421608.94846  20927477.9844                   20927475.5824
 11  8  1  2 11  0.0000000  0  7G02G17G10G04G25G12G05
  96707970.59448  75369366.18146  20537019.6094                   20537014.9964
  99711833.34046  77710278.61944  23794078.1024                   23794074.8404
 102326171.93848  79746358.64646  20942715.8754                   20942713.3244
 101968558.87147  79469678.48744  22494039.5554                   22494037.3444
 120675041.38347  94044804.83745  22824113.3834                   22824114.0124
 103800255.50448  80894878.15946  20715948.4304                   20715945.5274
 106941045.06348  83343408.78546  20908380.7274                   20908378.4964
 11  8  1  2 11 30.0000000  0  7G02G17G10G04G25G12G05
  98265545.20748  76583060.70146  20833416.5084                   20833411.7584
 101318939.21146  78962568.92044  24099898.9064                   24099896.8134
 103904607.47748  80976308.42746  21243082.0864                   21243079.2664
 103591970.74247  80734674.77444  22802964.2734                   22802961.4964
 122134407.03147  95181972.92545  23101821.2664                   23101822.3484
 105316654.84048  82076488.05646  21004509.5234                   21004506.9224
 108416572.75448  84493170.67646  21189163.9844                   21189162.0204
 11  8  1  2 12  0.0000000  0  7G02G17G10G04G25G12G05
  98247914.25848  76569322.33846  20830060.9924                   20830056.5394
 101350802.15246  78987397.19344  24105962.2814                   24105960.6094
 103908212.34848  80979117.43746  21243768.1564                   21243765.8014
 103639996.77347  80772097.68044  22812102.9224                   22812100.9144
 122018697.75047  95091809.89545  23079802.6954                   23079803.1724
 105258184.05548  82030926.43046  20993383.1884                   20993380.3164
 108317140.43048  84415690.99646  21170242.6484                   21170240.3954
 11  8  1  2 12 30.0000000  0  7G02G17G10G04G25G12G05
  98230500.46548  76555753.17046  20826747.7034                   20826742.9654
 101382844.01246  79012364.87144  24112060.4844                   24112058.1054
 103912407.91048  80982386.73146  21244566.6024                   21244563.6604
 103688057.22747  80809547.42344  22821248.8984                   22821246.7034
 121903343.12947  95001923.22745  23057851.2664                   23057851.7664
 105200269.97348  81985798.60646  20982362.0004                   20982359.3674
 108218176.85948  84338576.58846  21151410.6254                   21151408.0354
 11  8  1  2 13  0.0000000  0  7G02G17G10G04G25G12G05
  98213299.45748  76542349.80746  20823474.0234                   20823469.6954
 101415061.66446  79037469.54644  24118190.7734                   24118188.6724
 103917189.21948  80986112.45046  21245476.2194                   21245473.5744
 103736147.23047  80847020.16645  22830400.5474                   22830397.6684
 121788342.40247  94912312.32545  23035967.1724                   23035967.8594
 105142910.06348  81941102.59746  20971446.9454                   20971444.1524
 108119680.49248  84261826.23446  21132666.9144                   21132665.0044
 11  8  1  2 13 30.0000000  0  7G02G17G10G04G25G12G05
  98196315.89148  76529115.87247  20820242.4694                   20820238.1334
 101447461.69946  79062716.33444  24124356.6564                   24124354.3674
 103922561.02048  80990298.29646  21246498.1484                   21246495.9414
 103784271.52747  80884519.62744  22839557.8444                   22839555.6024
 121673704.15247  94822983.88345  23014152.4064                   23014152.9064
 105086111.60948  81896844.09446  20960638.6644                   20960635.7384
 108021659.60248  84185446.36746  21114014.2974                   21114012.0394
 11  8  1  2 14  0.0000000  0  7G02G17G10G04G25G12G05
  98179543.40648  76516046.42647  20817050.6954                   20817046.2424
 101480038.60546  79088100.95844  24130555.4304                   24130553.4454
 103928516.39848  80994938.86646  21247632.1414                   21247628.9414
 103832423.52747  80922040.71244  22848721.4844                   22848718.9654
 121559425.74647  94733935.85045  22992405.3284                   22992406.0554
 105029870.41448  81853019.80146  20949936.2034                   20949933.4064
 107924110.88348  84109434.43846  21095451.4534                   21095449.0354
 11  8  1  2 14 30.0000000  0  7G02G17G10G04G25G12G05
  98162982.62548  76503141.94846  20813899.3834                   20813894.5394
 101512794.16846  79113624.79044  24136788.1174                   24136786.5004
 103935055.42648  81000034.23146  21248876.1564                   21248873.3674
 103880603.53547  80959583.58944  22857889.3444                   22857886.9104
 121445511.27347  94645171.40245  22970728.4064                   22970729.1054
 104974189.14548  81809631.82647  20939340.4694                   20939337.7814
 107827038.29748  84033793.53146  21076979.1174                   21076976.7624
 11  8  1  2 15  0.0000000  0  7G02G17G10G04G25G12G05
  98146630.89148  76490400.35847  20810787.5554                   20810783.0514
 101545727.32047  79139286.97944  24143056.1564                   24143053.8524
 103942175.07048  81005582.02346  21250230.8834                   21250227.9494
 103928808.88347  80997146.22044  22867062.1094                   22867060.2194
 121331961.96147  94556691.48145  22949120.9304                   22949121.2154
 104919067.50448  81766679.92346  20928850.9774                   20928848.0824
 107730442.31648  83958523.98646  21058597.7344                   21058595.0084
 11  8  1  2 15 30.0000000  0  7G02G17G10G04G25G12G05
  98130488.48048  76477821.87746  20807715.4774                   20807711.1374
 101578839.46547  79165088.73844  24149356.4614                   24149354.8204
 103949875.36347  81011582.27146  21251696.1334                   21251693.3634
 103977039.69947  81034728.70444  22876240.1804                   22876238.3594
 121218781.90247  94468499.27645  22927583.2504                   22927583.3674
 104864508.28948  81724166.27446  20918469.0234                   20918465.9654
 107634326.64848  83883628.70946  21040307.3284                   21040305.0234
 11  8  1  2 16  0.0000000  0  7G02G17G10G04G25G12G05
  98114552.53148  76465404.27746  20804683.1564                   20804678.4264
 101612129.16446  79191028.73944  24155690.0864                   24155688.9454
 103958152.85547  81018032.28246  21253271.0164                   21253268.6764
 104025292.81647  81072328.53944  22885422.6174                   22885420.5824
 121105971.70747  94380595.28345  22906116.1484                   22906116.6094
 104810509.93048  81682089.65447  20908193.1804                   20908190.4024
 107538691.27348  83809107.69946  21022108.4844                   21022105.8794
 11  8  1  2 16 30.0000000  0  7G02G17G10G04G25G12G05
  98098821.67248  76453146.48446  20801689.3914                   20801685.0004
 101645596.35546  79217107.06544  24162059.9694                   24162057.9614
 103967005.62947  81024930.55246  21254955.8674                   21254952.9384
 104073566.87547  81109944.71644  22894608.9384                   22894606.7894
 120993533.86747  94292981.46045  22884719.7664                   22884720.8324
 104757073.87948  81640451.19746  20898024.7584                   20898022.0004
 107443538.27348  83734962.55246  21004001.3054                   21003998.8484
 11  8  1  2 17  0.0000000  0  7G02G17G10G04G25G12G05
  98083290.92648  76441044.62946  20798734.3984                   20798729.6884
 101679236.91447  79243320.47044  24168462.0554                   24168459.1214
 103976427.88348  81032272.59746  21256748.4844                   21256746.3594
 104121856.61747  81147573.11044  22903798.2584                   22903796.3134
 120881466.90647  94205656.61845  22863394.3204                   22863394.8524
 104704196.77348  81599248.28646  20887962.5474                   20887959.6054
 107348865.63748  83661191.71846  20985985.6804                   20985983.6994
 11  8  1  2 17 30.0000000  0  7G02G17G10G04G25G12G05
  98067965.24648  76429102.56446  20795817.7504                   20795813.2424
 101713056.98847  79269673.81944  24174897.0164                   24174895.2734
 103986424.11748  81040061.88446  21258651.1254                   21258648.5164
 104170166.77347  81185217.39744  22912990.3444                   22912988.8524
 120769779.40647  94118627.46045  22842140.7274                   22842141.7034
 104651885.86348  81558486.55946  20878008.1564                   20878004.8524
 107254681.25848  83587801.34546  20968063.1094                   20968060.3634
 11  8  1  2 18  0.0000000  0  7G02G17G10G04G25G12G05
  98052846.62148  76417321.84546  20792940.9144                   20792936.2544
 101747059.82047  79296169.50944  24181367.3284                   24181364.9614
 103996995.48448  81048299.32546  21260662.7344                   21260660.1724
 104218499.34447  81222879.12644  22922188.7344                   22922186.4654
 120658477.00847  94031898.38345  22820960.5394                   22820960.9574
 104600145.12948  81518169.13746  20868162.2034                   20868159.5274
 107160990.41048  83514795.54946  20950234.2814                   20950231.8954
 11  8  1  2 18 30.0000000  0  7G02G17G10G04G25G12G05
  98037931.85948  76405699.97846  20790102.6724                   20790097.9184
 101781243.84446  79322806.42543  24187872.9064                   24187870.5984
 104008138.75448  81056982.40146  21262782.9924                   21262780.6804
 104266851.22347  81260555.95744  22931389.5164                   22931387.9064
 120547560.41047  93945469.92245  22799853.9224                   22799854.2854
 104548973.52348  81478295.18347  20858424.3834                   20858421.8204
 107067793.19948  83442174.38146  20932499.4844                   20932496.5554
 11  8  1  2 19  0.0000000  0  7G02G17G10G04G25G12G05
  98023220.42248  76394236.53946  20787303.1174                   20787298.2854
 101815609.50446  79349584.89943  24194412.3364                   24194409.9304
 104019852.21948  81066109.79346  21265012.4064                   21265009.4694
 104315221.40647  81298247.01444  22940594.3594                   22940592.2774
 120437032.43447  93859344.29045  22778821.5314                   22778821.6174
 104498372.48848  81438865.83746  20848795.0784                   20848792.4104
 106975091.63348  83369939.44347  20914858.7194                   20914856.2344
 11  8  1  2 19 30.0000000  0  7G02G17G10G04G25G12G05
  98008712.00848  76382931.31746  20784542.2194                   20784537.5314
 101850157.69946  79376505.58843  24200987.1414                   24200984.1844
 104032135.19548  81075680.94946  21267350.0944                   21267347.0704
 104363609.73447  81335952.24044  22949802.1334                   22949800.5004
 120326896.51247  93773524.15245  22757862.5554                   22757863.1024
 104448343.48848  81399882.23046  20839275.5314                   20839272.3754
 106882888.68848  83298093.04546  20897313.0704                   20897310.4024
 11  8  1  2 20  0.0000000  0  7G02G17G10G04G25G12G05
  97994400.54348  76371779.54846  20781818.8444                   20781813.9844
 101884883.37146  79403564.50643  24207594.2814                   24207591.6994
 104044980.91848  81085690.61246  21269794.3134                   21269791.4414
 104412010.01247  81373666.74844  22959012.4144                   22959010.3714
 120217150.18047  93688007.60045  22736979.0084                   22736978.8404
 104398882.48848  81361341.21847  20829863.0004                   20829860.2894
 106791181.06348  83226632.61246  20879861.5554                   20879859.4774
 11  8  1  2 20 30.0000000  0  7G02G17G10G04G25G12G05
  97980289.32448  76360783.82546  20779133.5554                   20779128.8444
 101919791.14146  79430765.40543  24214237.5474                   24214234.7034
 104058391.58248  81096140.50246  21272346.1644                   21272343.4454
 104460425.45347  81411393.06145  22968225.4304                   22968223.7424
 120107800.34847  93602799.96945  22716170.1884                   22716170.4454
 104349994.88348  81323247.00746  20820560.1484                   20820557.2624
 106699975.11348  83155563.07746  20862505.6254                   20862503.5944
 11  8  1  2 21  0.0000000  0  7G02G17G10G04G25G12G05
  97966373.21148  76349940.13746  20776485.2504                   20776480.5234
 101954876.57446  79458104.65843  24220913.7894                   24220911.5084
 104072361.54747  81107026.19946  21275004.6564                   21275002.2034
 104508850.66047  81449127.07144  22977440.3524                   22977438.5704
 119998845.17647  93517899.88945  22695436.6414                   22695437.0744
 104301676.85248  81285596.61946  20811365.3134                   20811362.5354
 106609268.87148  83084882.93946  20845245.0554                   20845242.5044
 11  8  1  2 21 30.0000000  0  7G02G17G10G04G25G12G05
  97952655.71948  76339251.20246  20773875.0704                   20773870.2114
 101990144.91846  79485586.49043  24227625.2734                   24227622.6724
 104086893.72347  81118349.98246  21277769.7504                   21277767.0744
 104557289.38747  81486871.50544  22986657.8134                   22986655.9184
 119890292.20747  93433313.22945  22674779.5864                   22674779.9144
 104253934.14548  81248394.54046  20802280.1564                   20802277.1954
 106519068.83248  83014597.24047  20828080.1724                   20828077.8954
 11  8  1  2 22  0.0000000  0  6G02G10G04G25G12G05
  97939131.13748  76328712.59846  20771301.5634                   20771296.5554
 104101981.21547  81130106.48946  21280640.8754                   21280637.9884
 104605735.60247  81524621.80844  22995877.0704                   22995874.3404
 119782138.99647  93349038.07745  22654198.6724                   22654199.0044
 104206762.63348  81211637.55046  20793303.9304                   20793300.9454
 106429371.93448  82944703.60147  20811011.5314                   20811009.0594
 11  8  1  2 22 30.0000000  0  6G02G10G04G25G12G05
  97925801.65248  76318326.01146  20768764.6644                   20768759.9144
 104117625.65247  81142296.96346  21283617.7734                   21283614.9104
 104654191.70747  81562379.82844  23005098.0234                   23005095.1524
 119674391.49647  93265079.05645  22633695.0084                   22633695.2234
 104160167.35948  81175329.57146  20784437.1254                   20784434.1054
 106340183.50448  82875206.17347  20794039.6414                   20794037.3014
 11  8  1  2 23  0.0000000  0  6G02G10G04G25G12G05
  97912671.32448  76308094.61446  20766266.1644                   20766261.6804
 104133830.18047  81154923.88746  21286701.2504                   21286699.0594
 104702661.39547  81600148.43844  23014321.6644                   23014319.2664
 119567057.12947  93181441.94645  22613269.7344                   22613270.6684
 104114152.97748  81139474.23746  20775680.7034                   20775678.0234
 106251510.18048  82806110.11746  20777165.3674                   20777162.8364
 11  8  1  2 23 30.0000000  0  6G02G10G04G25G12G05
  97899747.38348  76298024.04146  20763806.7504                   20763802.1054
 104150601.41048  81167992.39646  21289893.0394                   21289890.5664
 104751152.18846  81637933.47344  23023549.0234                   23023547.2814
 119460146.83247  93098135.28245  22592925.4614                   22592925.9774
 104068728.56648  81104078.62146  20767036.5394                   20767033.7344
 106163362.50448  82737423.65447  20760391.5394                   20760389.0944
 11  8  1  2 24  0.0000000  0  6G02G10G04G25G12G05
  97887015.75848  76288103.32746  20761383.9384                   20761379.2304
 104167923.99647  81181490.52046  21293188.8524                   21293186.2854
 104799649.69946  81675723.75644  23032777.1484                   23032775.0664
 119353649.82447  93015150.65045  22572659.3134                   22572659.8714
 104023881.89848  81069133.18746  20758502.4694                   20758500.0434
 106075728.78548  82669137.67847  20743715.3674                   20743713.1414
 11  8  1  2 24 30.0000000  0  6G02G10G04G25G12G05
  97874476.80147  76278332.74446  20758997.7194                   20758993.2344
 104185797.43047  81195417.88846  21296590.3524                   21296587.6764
 104848154.15246  81713519.43744  23042007.6174                   23042005.6374
 119247569.88747  92932491.03145  22552473.0864                   22552473.5904
 103979615.05947  81034639.57746  20750078.7664                   20750075.7974
 105988612.05548  82601254.55547  20727137.6174                   20727135.1454
 11  8  1  2 25  0.0000000  0  6G02G10G04G25G12G05
  97862128.26647  76268710.53446  20756648.3204                   20756643.3094
 104204218.63347  81209772.07246  21300096.1024                   21300093.0594
 104896663.45746  81751318.89244  23051238.0944                   23051237.1764
 119141908.38747  92850157.46245  22532366.6174                   22532366.7424
 103935927.50847  81000597.35846  20741765.4144                   20741762.7034
 105902013.12148  82533774.91546  20710658.3914                   20710655.7544
 11  8  1  2 25 30.0000000  0  6G02G10G04G25G12G05
  97849969.37147  76259236.09046  20754334.3674                   20754329.2304
 104223185.73847  81224551.66046  21303705.5234                   21303702.2304
 104945176.86346  81789121.57244  23060470.0004                   23060468.9454
 119036668.09447  92768152.09945  22512339.7974                   22512340.7584
 103892820.19547  80967007.26247  20733562.3984                   20733559.4224
 105815933.80948  82466700.16647  20694277.6884                   20694275.4574
 11  8  1  2 26  0.0000000  0  6G02G10G04G25G12G05
  97837999.68048  76249909.08646  20752056.4694                   20752051.6604
 104242697.17647  81239755.39746  21307418.0864                   21307415.1374
 104993693.76646  81826926.98844  23069702.8444                   23069701.1054
 118931851.72747  92686477.07445  22492393.8524                   22492394.5354
 103850293.98048  80933869.98547  20725470.0704                   20725467.1994
 105730376.27348  82400031.98747  20677996.7114                   20677994.5204
 11  8  1  2 26 30.0000000  0  6G02G10G04G25G12G05
  97826213.06348  76240724.73046  20749813.3914                   20749808.8164
 104262746.14847  81255377.99446  21311233.4384                   21311230.4384
 105042208.37946  81864730.57744  23078935.0554                   23078933.5314
 118827456.98847  92605130.59245  22472528.1804                   22472528.4224
 103808344.60948  80901182.18246  20717487.2894                   20717484.4884
 105645337.35548  82333767.94647  20661814.2274                   20661811.7154
 11  8  1  2 27  0.0000000  0  6G02G10G04G25G12G05
  97814610.09048  76231683.48146  20747605.4384                   20747600.9024
 104283331.93047  81271418.88246  21315150.7664                   21315148.0044
 105090721.17646  81902532.75844  23088166.9614                   23088164.9574
 118723487.89548  92524115.77745  22452743.8134                   22452744.0124
 103766974.36348  80868945.65046  20709614.2734                   20709611.7544
 105560820.28948  82267910.53247  20645731.3054                   20645728.6604
 11  8  1  2 27 30.0000000  0  6G02G10G04G25G12G05
  97803190.50848  76222785.12846  20745432.2504                   20745428.0004
 104304453.45347  81287877.21746  21319170.5394                   21319167.4344
 105139231.69946  81940333.16544  23097397.5634                   23097396.3054
 118619947.38347  92443434.92545  22433040.1484                   22433040.9064
 103726183.94548  80837160.93546  20701852.4064                   20701849.3014
 105476827.16848  82202461.39247  20629748.0234                   20629745.3984
 11  8  1  2 28  0.0000000  0  6G02G10G04G25G12G05
  97791951.90648  76214027.80046  20743293.7274                   20743289.0864
 104326107.14847  81304750.23246  21323290.3524                   21323287.9734
 105187737.55946  81978129.92944  23106628.0864                   23106626.5904
 118516836.31347  92363088.70645  22413418.8134                   22413419.3244
 103685972.71947  80805827.52646  20694200.5634                   20694197.4884
 105393358.25848  82137420.71047  20613864.1024                   20613861.7504
 11  8  1  2 28 30.0000000  0  6G02G10G04G25G12G05
  97780889.92648  76205408.10146  20741188.5314                   20741183.9884
 104348287.62147  81322033.73246  21327511.5314                   21327508.4924
 105236234.73446  82015919.94444  23115857.1884                   23115854.9184
 118414154.07847  92283076.62445  22393879.1174                   22393879.6214
 103646337.64148  80774943.07847  20686658.3054                   20686655.4964
 105310412.21948  82072787.48347  20598079.9534                   20598077.7544
 11  8  1  2 29  0.0000000  0  6G02G10G04G25G12G05
  97770006.77748  76196927.74146  20739117.7424                   20739112.8594
 104370995.85247  81339728.46946  21331832.7194                   21331829.4614
 105284725.23447  82053704.77444  23125084.5004                   23125082.6174
 118311905.89847  92203402.79745  22374422.3834                   22374422.3094
 103607282.40248  80744510.44046  20679226.1484                   20679223.2974
 105227993.46148  82008565.10347  20582396.5084                   20582393.8914
 11  8  1  2 29 30.0000000  0  6G02G10G04G25G12G05
  97759300.18448  76188584.95546  20737080.4534                   20737075.9494
 104394228.49647  81357831.84846  21336253.6334                   21336250.7034
 105333206.63747  82091482.49544  23134310.6954                   23134307.7854
 118210093.00847  92124068.13445  22355047.4224                   22355047.6684
 103568806.00047  80714528.85146  20671904.5314                   20671901.5554
 105146102.31648  81944753.86347  20566813.1644                   20566810.4304
 11  8  1  2 30  0.0000000  0  6G02G10G04G25G12G05
  97748774.21148  76180382.92746  20735077.3754                   20735072.7934
 104417988.23047  81376345.95346  21340774.6724                   21340772.0124
 105381683.26247  82129256.51344  23143535.0474                   23143532.7344
 118108722.79347  92045078.44045  22335757.1254                   22335757.4304
 103530914.18847  80685002.78046  20664693.8204                   20664690.9304
 105064745.47748  81881358.96447  20551331.1564                   20551328.9884
 11  8  1  2 30 30.0000000  0  6G02G10G04G25G12G05
  97738426.28548  76172319.60846  20733108.1644                   20733103.4264
 104442271.53947  81395268.01645  21345395.7194                   21345393.0904
 105430152.59046  82167024.81844  23152759.0004                   23152756.0634
 118007796.04747  91966434.27645  22316551.3834                   22316551.5704
 103493605.68447  80655931.24547  20657594.2814                   20657591.1994
 104983922.96548  81818380.40646  20535951.0394                   20535948.7194
 11  8  1  2 31  0.0000000  0  6G02G10G04G25G12G05
  97728256.05148  76164394.77946  20731173.0554                   20731168.0394
 104467076.79347  81414596.80845  21350116.1564                   21350113.6254
 105478614.28146  82204787.20244  23161980.5944                   23161977.8834
 117907315.64847  91888137.92345  22297430.7424                   22297430.9104
 103456881.29348  80627314.86147  20650605.7424                   20650602.8444
 104903636.37948  81755819.48147  20520673.1094                   20520670.3284
 11  8  1  2 31 30.0000000  0  6G02G10G04G25G12G05
  97718261.09848  76156606.51646  20729270.8594                   20729266.0084
 104492400.60547  81434329.65545  21354935.1254                   21354932.2274
 105527066.05146  82242541.78844  23171200.6564                   23171198.2074
 117807282.53147  91810190.09845  22278395.1414                   22278394.9734
 103420739.80947  80599152.68347  20643728.6174                   20643725.0824
 104823885.95748  81693676.32947  20505497.1254                   20505494.3404
 11  8  1  2 32  0.0000000  0  6G02G10G04G25G12G05
  97708439.46148  76148953.31246  20727401.8284                   20727397.3364
 104518239.35547  81454463.77346  21359851.9144                   21359849.0234
 105575505.99247  82280287.24944  23180418.9144                   23180416.2274
 117707697.98848  91732591.81346  22259444.4064                   22259444.8444
 103385180.33647  80571444.02046  20636961.4924                   20636958.1414
 104744672.29348  81631951.42947  20490423.6724                   20490420.5704
 11  8  1  2 32 30.0000000  0  6G02G10G04G25G12G05
  97698789.82048  76141434.13146  20725565.6254                   20725560.8164
 104544590.72347  81474997.31946  21364866.6174                   21364863.3484
 105623932.89847  82318022.52744  23189633.7504                   23189631.4924
 117608563.99247  91655344.61045  22240579.7974                   22240580.3984
 103350203.00048  80544188.96546  20630305.1884                   20630302.4654
 104665996.46948  81570645.63147  20475451.7034                   20475449.2504
 11  8  1  2 33  0.0000000  0  6G02G10G04G25G12G05
  97689311.12948  76134048.15246  20723761.7114                   20723757.0234
 104571452.00847  81495928.19446  21369978.3204                   21369975.5664
 105672345.32447  82355746.49544  23198845.8984                   23198843.9414
 117509882.27747  91578449.81745  22221801.0784                   22221801.8484
 103315807.71548  80517387.47347  20623760.4694                   20623757.4144
 104587859.12548  81509759.43347  20460582.9224                   20460579.6954
 11  8  1  2 33 30.0000000  0  7G02G29G10G04G25G12G05
  97680004.07848  76126795.92146  20721990.7504                   20721985.9144
 132306295.86716                  24212699.102
 104598823.19547  81517256.39546  21375186.6884                   21375183.8164
 105720744.56647  82393460.20644  23208056.0084                   23208054.4964
 117411657.29747  91501910.91546  22203109.8594                   22203110.1884
 103281996.70748  80491041.25746  20617325.8754                   20617323.0784
 104510264.10548  81449295.80847  20445816.7424                   20445813.8714
 11  8  1  2 34  0.0000000  0  7G02G29G10G04G25G12G05
  97670867.77048  76119676.74646  20720252.2664                   20720247.3094
 132190896.85546 103016258.26843  24190740.8834                   24190738.6094
 104626701.68047  81538979.90045  21380491.7894                   21380488.6254
 105769129.57447  82431162.81444  23217262.9614                   23217261.0164
 117313891.30147  91425729.68245  22184505.4224                   22184506.1604
 103248770.16048  80465150.44846  20611003.4694                   20611000.5744
 104433212.75448  81389255.82547  20431154.2504                   20431151.5004
 11  8  1  2 34 30.0000000  0  7G02G29G10G04G25G12G05
  99237315.01248  77340285.01146  21018337.0394                   21018331.9534
 133650854.20746 104153887.45643  24468560.5634                   24468559.6604
 106230497.45747  82788690.91145  21685683.5784                   21685681.1524
 107392911.34447  83696447.27844  23526259.2664                   23526256.5354
 118792002.93047  92577505.02445  22465780.6094                   22465781.0004
 104791542.61347  81667310.82746  20904583.2974                   20904580.1644
 105932121.72348  82557236.87547  20716387.1954                   20716384.5514
 11  8  1  2 35  0.0000000  0  7G02G29G10G04G25G12G05
  99228499.92248  77333416.12746  21016659.3834                   21016654.7154
 133535316.55546 104063858.27743  24446574.2734                   24446573.2344
 106259365.73447  82811185.67445  21691177.2344                   21691174.7074
 107441247.78947  83734112.07544  23535456.3054                   23535455.0044
 118695143.51647  92502030.20945  22447349.2664                   22447348.8954
 104759467.38748  81642317.14847  20898479.8674                   20898476.8204
 105856143.13748  82498032.81647  20701928.6644                   20701926.2154
 11  8  1  2 35 30.0000000  0  7G02G29G10G04G25G12G05
  99219840.27048  77326668.37146  21015011.5084                   21015006.6024
 133419707.23846 103973773.21843  24424574.4304                   24424574.0864
 106288721.86747  82834060.59846  21696763.3134                   21696760.7584
 107489555.06647  83771754.11544  23544649.9534                   23544647.1844
 118598737.13747  92426908.41045  22429003.3444                   22429003.3874
 104727964.48448  81617769.45747  20892484.6884                   20892481.5434
 105780699.55948  82439245.64547  20687572.4614                   20687569.8874
 11  8  1  2 36  0.0000000  0  7G02G29G10G04G25G12G05
  99211341.00448  77320045.58946  21013394.2194                   21013389.4184
 133304032.93446 103883637.55544  24402562.4304                   24402562.1024
 106318569.53148  82857318.53545  21702443.8284                   21702440.5784
 107537838.52747  83809377.61544  23553837.7114                   23553835.2344
 118502792.16047  92352146.13745  22410745.8754                   22410745.9024
 104697039.68848  81593672.22546  20886600.1024                   20886596.6094
 105705798.30548  82380881.06347  20673319.4224                   20673316.3244
 11  8  1  2 36 30.0000000  0  7G02G29G10G04G25G12G05
  99203003.35248  77313548.73946  21011807.6484                   21011802.9304
 133188296.46946 103793453.41244  24380537.9844                   24380537.6884
 106348908.33247  82880959.16445  21708216.4384                   21708214.0634
 107586099.24247  83846983.38944  23563021.6174                   23563018.7034
 118407312.68448  92277746.58246  22392576.3054                   22392576.7154
 104666695.25448  81570027.22747  20880825.5004                   20880822.7234
 105631442.66848  82322941.64147  20659169.8594                   20659167.1484
 11  8  1  2 37  0.0000000  0  7G02G29G10G04G25G12G05
  99194831.04748  77307180.73046  21010252.6334                   21010247.5824
 133072503.16046 103703224.91143  24358503.4694                   24358503.4184
 106379740.49247  82904984.22845  21714083.3754                   21714081.0704
 107634340.79747  83884574.20944  23572201.9774                   23572199.1764
 118312305.30147  92203714.90846  22374497.1174                   22374497.3204
 104636935.61748  81546837.90647  20875162.6644                   20875159.5554
 105557638.02048  82265431.56147  20645125.1024                   20645122.5904
 11  8  1  2 37 30.0000000  0  7G02G29G10G04G25G12G05
  99186822.77048  77300940.53246  21008728.7584                   21008723.9104
 132956653.45747 103612952.54044  24336457.8204                   24336457.9694
 106411063.58247  82929391.83245  21720043.8834                   21720041.7774
 107682562.28547  83922149.41044  23581378.2664                   23581376.2074
 118217771.89848  92130052.55046  22356508.2894                   22356507.9494
 104607760.59048  81524104.14347  20869610.6884                   20869607.5274
 105484385.17248  82208351.45347  20631185.6414                   20631182.9534
 11  8  1  2 38  0.0000000  0  7G02G29G10G04G25G12G05
  99178975.69948  77294825.95346  21007235.4774                   21007230.4964
 132840746.33247 103522635.38644  24314401.5314                   24314400.9184
 106442873.16047  82954178.52945  21726097.1334                   21726094.9494
 107730760.84046  83959706.71844  23590549.5234                   23590547.8984
 118123712.67248  92056759.69346  22338609.0554                   22338609.0044
 104579167.97748  81501824.19747  20864169.6254                   20864166.4694
 105411683.44548  82151700.79047  20617350.7584                   20617348.0084
 11  8  1  2 38 30.0000000  0  7G02G29G10G04G25G12G05
  99171291.86348  77288838.56846  21005773.2194                   21005768.6054
 132724785.31646 103432276.25144  24292335.2814                   24292334.2424
 106475169.53947  82979344.53245  21732243.7504                   21732240.4844
 107778938.75447  83997247.95444  23599717.6644                   23599715.6914
 118030132.69547  91983840.27646  22320801.6024                   22320801.6134
 104551160.87948  81480000.49746  20858839.9454                   20858837.0434
 105339537.20348  82095482.96547  20603622.2424                   20603619.2194
 11  8  1  2 39  0.0000000  0  7G02G29G10G04G25G12G05
  99163768.57848  77282976.28446  21004341.5864                   21004336.6524
 132608769.50046 103341874.40544  24270257.3204                   24270256.7234
 106507948.38347  83004886.50845  21738481.0394                   21738477.7814
 107827093.31646  84034771.02144  23608881.0164                   23608878.4064
 117937032.33247  91911294.57746  22303084.9144                   22303085.0554
 104523737.38348  81458631.55047  20853621.5394                   20853618.5084
 105267945.75048  82039697.44447  20589998.6564                   20589995.8444
 11  8  1  2 39 30.0000000  0  7G02G29G10G04G25G12G05
  99156405.14848  77277238.56846  21002940.4614                   21002935.5124
 132492699.84846 103251430.59244  24248170.6884                   24248169.5744
 106541207.66847  83030802.83945  21744809.7424                   21744807.0784
 107875223.87946  84072275.34344  23618039.9774                   23618037.9454
 117844413.72748  91839124.28646  22285460.3134                   22285459.9414
 104496897.39148  81437717.28146  20848513.9384                   20848510.7584
 105196910.12948  81984345.04647  20576480.8444                   20576478.1564
 11  8  1  2 40  0.0000000  0  7G02G29G10G04G25G12G05
  99149204.27348  77271627.51546  21001570.1024                   21001565.2154
 132376581.28646 103160948.63844  24226073.2584                   24226072.7194
 106574948.62947  83057094.52745  21751230.5864                   21751227.5204
 107923333.71147  84109763.52744  23627194.6724                   23627192.7584
 117752282.78148  91767333.98946  22267928.1724                   22267928.1374
 104470644.58648  81417260.56046  20843518.5164                   20843515.2584
 105126435.19948  81929429.54147  20563069.9844                   20563067.2704
 11  8  1  2 40 30.0000000  0  7G02G29G10G04G25G12G05
  99142161.44948  77266139.63246  21000229.6644                   21000224.9344
 132260410.73846 103070426.22844  24203967.3054                   24203966.5084
 106609165.01247  83083756.64845  21757741.5634                   21757738.4734
 107971418.35547  84147232.07644  23636344.6484                   23636342.1684
 117660637.77348  91695922.33146  22250488.5704                   22250488.6214
 104444975.23848  81397258.48446  20838633.2664                   20838630.3834
 105056518.24648  81874948.83247  20549765.5234                   20549762.6604
 11  8  1  2 41  0.0000000  0  7G02G29G10G04G25G12G05
  99135273.47748  77260772.39046  20998919.0314                   20998914.0234
 132144186.94546 102979862.28244  24181850.5084                   24181849.9344
 106643852.27747  83110785.70345  21764342.2734                   21764339.7034
 108019474.51647  84184678.45444  23645489.3444                   23645487.6134
 117569478.50448  91624889.19146  22233141.6484                   22233141.9144
 104419886.96948  81377709.18646  20833859.4304                   20833856.4574
 104987158.17248  81820902.05047  20536566.2894                   20536563.2384
 11  8  1  2 41 30.0000000  0  7G02G29G10G04G25G12G05
  99128545.50847  77255529.84046  20997638.7194                   20997633.8244
 132027916.60947 102889262.06644  24159724.7664                   24159724.6524
 106679013.55947  83138184.10545  21771033.1484                   21771030.5354
 108067507.66047  84222106.87744  23654630.4694                   23654628.3984
 117478812.97748  91554240.77146  22215888.4304                   22215888.9264
 104395384.83648  81358616.62546  20829196.5634                   20829193.6214
 104918361.78148  81767294.50547  20523474.6024                   20523472.1094
 11  8  1  2 42  0.0000000  0  7G02G29G10G04G25G12G05
  99121969.76647  77250405.90846  20996387.5944                   20996382.6174
 131911593.60547 102798620.81744  24137589.2424                   24137588.4804
 106714639.65247  83165944.70145  21777812.7664                   21777810.2114
 108115509.90247  84259511.22743  23663764.6094                   23663762.2234
 117388636.12948  91483973.14946  22198728.0084                   22198728.3364
 104371462.10248  81339975.52446  20824644.7814                   20824641.7974
 104850123.02047  81714121.47247  20510489.3364                   20510486.5004
 11  8  1  2 42 30.0000000  0  7G02G29G10G04G25G12G05
  99115553.27048  77245406.05646  20995166.2734                   20995161.5314
 131795227.12147 102707945.72444  24115444.9534                   24115444.8134
 106750736.16847  83194071.87145  21784681.8834                   21784679.0944
 108163488.82447  84296897.41844  23672894.6484                   23672892.9804
 117298958.21148  91414094.28446  22181663.3444                   22181663.1294
 104348126.43448  81321791.89846  20820203.8134                   20820201.3204
 104782451.01648  81661390.06347  20497611.9304                   20497608.8524
 11  8  1  2 43  0.0000000  0  7G02G29G10G04G25G12G05
  99109288.62548  77240524.53346  20993974.3054                   20993969.3634
 131678811.22346 102617232.09044  24093291.9064                   24093290.6454
 106787293.87147  83222558.40745  21791638.5784                   21791635.8054
 108211436.96947  84334259.61143  23682019.0944                   23682016.1564
 117209774.48848  91344600.52346  22164692.0164                   22164692.0904
 104325371.38748  81304060.70446  20815873.4924                   20815870.6994
 104715340.04748  81609095.83947  20484840.8284                   20484838.2114
 11  8  1  2 43 30.0000000  0  7G02G29G10G04G25G12G05
  99103177.52048  77235762.64846  20992811.3754                   20992806.2154
 131562349.18046 102526482.53944  24071130.4454                   24071128.9804
 106824312.41847  83251404.02645  21798682.9144                   21798679.8674
 108259356.23047  84371599.35043  23691137.6884                   23691135.0594
 117121089.29748  91275495.22446  22147816.0314                   22147815.5594
 104303198.34848  81286783.01846  20811654.5164                   20811651.6174
 104648793.44948  81557241.36747  20472177.5944                   20472174.7934
 11  8  1  2 44  0.0000000  0  7G02G29G10G04G25G12G05
  99097218.56648  77231119.32346  20991677.0634                   20991672.4924
 131445841.68846 102435697.59844  24048958.8754                   24048958.2114
 106861788.75847  83280606.38945  21805814.8284                   21805811.9304
 108307245.22347  84408915.43943  23700250.2114                   23700247.3874
 117032904.00848  91206779.47546  22131034.8754                   22131034.8014
 104281606.62948  81269958.31246  20807545.3754                   20807542.8674
 104582811.71548  81505827.05247  20459621.3984                   20459618.8444
 11  8  1  2 44 30.0000000  0  7G02G29G10G04G25G12G05
  99091413.95748  77226596.26546  20990572.6954                   20990568.1054
 131329292.49646 102344880.13244  24026781.0864                   24026779.7384
 106899723.60247  83310166.00845  21813033.4924                   21813030.4614
 108355106.29747  84446209.72743  23709358.4304                   23709355.6174
 116945223.61348  91138457.12046  22114349.8054                   22114350.1414
 104260598.96948  81253588.71446  20803547.8674                   20803544.9024
 104517398.28948  81454855.58947  20447173.5944                   20447171.0274
 11  8  1  2 45  0.0000000  0  7G02G29G10G04G25G12G05
  99085757.22347  77222188.43246  20989496.3984                   20989491.2664
 131212697.30946 102254026.79244  24004593.2034                   24004591.8484
 106938108.94547  83340076.67345  21820337.4774                   21820335.0124
 108402933.44547  84483477.72443  23718459.1484                   23718456.9304
 116858044.70348  91070525.54546  22097760.2194                   22097760.4414
 104240169.48448  81237669.63646  20799660.1564                   20799657.0784
 104452548.93447  81404323.64147  20434833.5004                   20434830.5594
 11  8  1  2 45 30.0000000  0  7G02G29G10G04G25G12G05
  99080249.15247  77217896.44246  20988448.0164                   20988442.9264
 131096058.23446 102163139.31844  23982397.2274                   23982396.2774
 106976943.50047  83370337.35845  21827728.0314                   21827725.0084
 108450727.79747  84520720.00543  23727554.7114                   23727551.7774
 116771370.54748  91002987.28646  22081266.1174                   22081266.3914
 104220319.39148  81222202.04246  20795882.7344                   20795879.7234
 104388265.89847  81354232.99847  20422600.5864                   20422597.6994
 11  8  1  2 46  0.0000000  0  7G02G29G10G04G25G12G05
  99074888.87148  77213719.61246  20987428.0944                   20987423.0554
 130979376.36346 102072218.54843  23960193.3834                   23960193.0634
 107016224.52347  83400945.94945  21835202.4844                   21835199.6334
 108498488.28947  84557936.03643  23736642.3204                   23736640.3324
 116685202.91848  90935843.73146  22064869.3834                   22064869.1334
 104201047.85948  81207185.27446  20792215.6024                   20792212.3754
 104324549.73448  81304584.06047  20410476.1644                   20410473.0554
 11  8  1  2 46 30.0000000  0  7G02G29G10G04G25G12G05
  99069674.29748  77209656.31846  20986435.6644                   20986430.8674
 130862651.42646 101981264.13143  23937981.4694                   23937980.0234
 107055948.23847  83431899.49945  21842761.6414                   21842759.0634
 108546213.22747  84595124.32943  23745724.9144                   23745721.7234
 116599542.43848  90869095.32846  22048568.5474                   22048568.4384
 104182353.43848  81192618.19946  20788657.9774                   20788655.1374
 104261400.09047  81255376.57347  20398458.9064                   20398456.3164
 11  8  1  2 47  0.0000000  0  7G02G29G10G04G25G12G05
  99064603.75448  77205705.25546  20985470.9064                   20985466.0514
 130745883.31646 101890276.12143  23915761.2034                   23915759.4534
 107096111.34447  83463195.43745  21850404.4304                   21850401.7424
 108593900.85947  84632283.54543  23754799.1174                   23754796.9224
 116514390.09448  90802742.89446  22032364.8444                   22032364.4774
 104164234.86748  81178499.84046  20785210.5394                   20785207.1914
 104198816.58648  81206610.22347  20386549.9064                   20386546.8594
 11  8  1  2 47 30.0000000  0  7G02G29G10G04G25G12G05
  99059681.50048  77201869.75146  20984534.1644                   20984528.9414
 130629078.21946 101799259.28243  23893533.1644                   23893532.0124
 107136716.19947  83494835.58345  21858131.5704                   21858128.1254
 108641555.95747  84669417.36843  23763867.9064                   23763865.7194
 116429752.75448  90736791.74446  22016258.4224                   22016258.5904
 104146696.26248  81164833.40946  20781872.9384                   20781869.6994
 104136804.80948  81158289.38347  20374749.2034                   20374746.1334
 11  8  1  2 48  0.0000000  0  7G02G29G10G04G25G12G05
  99054901.05948  77198144.74346  20983624.4064                   20983619.3524
 130512232.04746 101708210.41543  23871298.8914                   23871297.6414
 107177754.75847  83526813.70045  21865940.8594                   21865938.0824
 108689172.17247  84706520.90943  23772929.1414                   23772926.2734
 116345626.68848  90671239.00746  22000249.7974                   22000250.1094
 104129731.56648  81151614.16446  20778644.6174                   20778641.7504
 104075360.31348  81110410.58247  20363056.5394                   20363053.8594
 11  8  1  2 48 30.0000000  0  7G02G29G10G04G25G12G05
  99050260.83248  77194528.98746  20982741.5944                   20982736.2424
 130395344.54746 101617129.38743  23849055.4844                   23849054.5124
 107219223.38747  83559126.90045  21873831.8674                   21873828.9414
 108736748.00047  84743592.97744  23781982.7894                   23781980.4264
 116262012.62948  90606085.22346  21984338.6414                   21984338.4224
 104113339.37148  81138841.03847  20775525.4614                   20775522.5164
 104014482.74248  81062973.52847  20351472.0474                   20351468.8054
 11  8  1  2 49  0.0000000  0  7G02G29G10G04G25G12G05
  99045764.46148  77191025.33246  20981886.0864                   20981880.6174
 130278420.74647 101526020.05444  23826805.6484                   23826803.3834
 107261123.41447  83591776.28345  21881805.3984                   21881802.4064
 108784287.05546  84780636.42443  23791028.9844                   23791026.1844
 116178916.48448  90541335.02946  21968525.9844                   21968525.9964
 104097523.34848  81126516.87047  20772515.8134                   20772512.3554
 103954176.69148  81015981.82847  20339995.9774                   20339993.0044
 11  8  1  2 49 30.0000000  0  7G02G29G10G04G25G12G05
  99041409.95348  77187632.21546  20981057.2734                   20981052.2154
 130161461.04747 101434882.71944  23804549.2194                   23804547.4224
 107303451.71947  83624759.37645  21889860.0314                   21889856.9024
 108831788.09847  84817650.19143  23800068.4774                   23800065.7344
 116096339.50048  90476989.35346  21952811.9384                   21952811.9534
 104082281.81348  81114640.35946  20769615.4064                   20769612.3094
 103894442.14548  80969435.45447  20328628.9844                   20328626.2194
 11  8  1  2 50  0.0000000  0  7G02G29G10G04G25G12G05
  99037198.87948  77184350.86546  20980256.0164                   20980250.4844
 130044468.80147 101343720.05944  23782285.6724                   23782284.7504
 107346207.59847  83658075.64345  21897996.2274                   21897993.3404
 108879252.60947  84854635.54743  23809099.6174                   23809097.6174
 116014285.41448  90413051.12846  21937197.3364                   21937197.3984
 104067616.57448  81103212.90946  20766824.4924                   20766821.4494
 103835282.04348  80923336.70047  20317370.9774                   20317368.4064
 11  8  1  2 50 30.0000000  0  7G02G29G10G04G25G12G05
  99033126.61748  77181177.67646  20979480.6954                   20979475.9534
 129927440.96547 101252529.61944  23760016.3524                   23760015.4844
 107389384.75847  83691720.18445  21906212.9384                   21906209.9844
 108926676.39146  84891589.12243  23818124.9224                   23818121.9614
 115932752.28548  90349518.84546  21921682.3594                   21921682.0944
 104053523.25048  81092231.10946  20764142.4384                   20764139.5554
 103776692.98048  80877682.90647  20306222.0634                   20306219.1564
 11  8  1  2 51  0.0000000  0  7G02G29G10G04G25G12G05
  99029195.07448  77178114.15346  20978732.8594                   20978727.8284
 129810381.21947 101161314.32844  23737740.3834                   23737739.7734
 107432982.82047  83725692.69045  21914508.5554                   21914506.5354
 108974061.12946  84928512.31943  23827141.6414                   23827139.0824
 115851743.97348  90286395.51346  21906267.0864                   21906266.9384
 104040003.05148  81081695.91046  20761569.8914                   20761566.3794
 103718677.66448  80832476.18847  20295182.3134                   20295179.3134
 11  8  1  2 51 30.0000000  0  7G02G29G10G04G25G12G05
  99025403.51248  77175159.70046  20978011.3054                   20978006.1294
 129693290.72346 101070075.04344  23715459.1484                   23715457.4494
 107476999.08647  83759991.07745  21922885.0634                   21922882.3324
 109021406.60246  84965404.87543  23836151.1644                   23836148.5704
 115771262.49648  90223682.70446  21890951.9304                   21890951.7154
 104027055.58248  81071606.98146  20759105.8754                   20759102.9414
 103661237.22748  80787717.42447  20284251.6254                   20284248.8094
 11  8  1  2 52  0.0000000  0  7G02G29G10G04G25G12G05
  99021748.82448  77172311.89546  20977315.7814                   20977310.6884
 129576168.49647 100978811.07244  23693170.9614                   23693169.5704
 107521428.77047  83794611.59845  21931339.2114                   21931336.7704
 109068710.16446  85002264.81443  23845151.7344                   23845150.0594
 115691307.19548  90161379.89446  21875736.6724                   21875736.3984
 104014677.82048  81061961.97846  20756750.6954                   20756747.6914
 103604369.56348  80743404.97547  20273429.7504                   20273427.0314
 11  8  1  2 52 30.0000000  0  7G02G29G10G04G25G12G05
  99018232.48848  77169571.89846  20976646.6254                   20976641.7934
 129459017.52746 100887524.69744  23670877.6644                   23670876.7274
 107566271.07447  83829553.66245  21939872.9384                   21939870.1484
 109115973.07446  85039093.03143  23854146.0234                   23854143.9024
 115611881.70348  90099489.93346  21860622.6954                   21860622.8094
 104002871.14848  81052761.99046  20754503.8524                   20754500.7774
 103548077.23448  80699540.85247  20262717.6954                   20262714.9384
 11  8  1  2 53  0.0000000  0  7G02G29G10G04G25G12G05
  99014853.96548  77166939.29146  20976003.7974                   20975998.8324
 129341839.32047 100796217.06844  23648579.4454                   23648578.1804
 107611523.97347  83864815.65445  21948484.2504                   21948481.2114
 109163195.39146  85075889.61443  23863132.7344                   23863130.0824
 115532988.06648  90038014.40246  21845609.9224                   21845609.5634
 103991635.01248  81044006.57146  20752365.9224                   20752362.6054
 103492360.80548  80656125.47947  20252115.2424                   20252112.6484
 11  8  1  2 53 30.0000000  0  7G02G29G10G04G25G12G05
  99011612.03948  77164413.12546  20975386.8984                   20975381.5704
 129224634.46547 100704888.69444  23626275.6884                   23626274.3404
 107657183.90247  83900394.83445  21957173.1024                   21957169.9574
 109210375.93846  85112653.64543  23872109.9224                   23872107.7774
 115454627.21548  89976954.03446  21830698.1024                   21830698.0204
 103980968.18848  81035694.78046  20750336.0004                   20750332.8054
 103437220.27748  80613158.83747  20241622.5554                   20241619.5274
 11  8  1  2 54  0.0000000  0  7G02G29G10G04G25G12G05
  99008501.74647  77161989.52846  20974794.8284                   20974790.0164
 129107399.69947 100613537.00544  23603967.0554                   23603966.0984
 107703243.83647  83936285.68445  21965937.7274                   21965934.9844
 109257509.82046  85149381.39043  23881079.7974                   23881077.9064
 115376796.29748  89916306.59246  21815887.6724                   21815887.3914
 103970865.14848  81027822.28746  20748412.8834                   20748410.3714
 103382651.87948  80570638.03447  20231238.4844                   20231235.6604
 11  8  1  2 54 30.0000000  0  7G02G29G10G04G25G12G05
  99005525.27748  77159670.21446  20974228.2034                   20974223.5004
 128990138.96547 100522165.08944  23581652.5234                   23581651.4734
 107749704.27047  83972488.62145  21974779.1724                   21974776.0634
 109304599.68446  85186074.80443  23890040.6884                   23890039.0084
 115299500.03148  89856075.76146  21801178.7734                   21801178.2974
 103961328.09848  81020390.82646  20746598.3284                   20746595.4024
 103328658.71148  80528565.46247  20220963.6884                   20220960.9304
 11  8  1  2 55  0.0000000  0  7G02G29G10G04G25G12G05
  99002684.00048  77157456.25546  20973687.6644                   20973682.6374
 128872855.63347 100430775.56344  23559334.6174                   23559333.4734
 107796564.50447  84009003.08845  21983696.3134                   21983693.8404
 109351647.22347  85222735.18443  23898993.5704                   23898991.5044
 115222741.98048  89796264.32646  21786572.0084                   21786572.2034
 103952358.70348  81013401.69646  20744891.3754                   20744888.0864
 103275243.32848  80486943.11547  20210799.0944                   20210796.2304
 11  8  1  2 55 30.0000000  0  7G02G29G10G04G25G12G05
  98999976.43848  77155346.47346  20973172.6954                   20973167.8754
 128755550.22347 100339368.82444  23537012.8914                   23537010.8674
 107843820.73847  84045826.10245  21992689.1804                   21992686.0864
 109398650.80947  85259361.41543  23907937.4304                   23907936.1644
 115146522.88348  89736872.85346  21772067.4064                   21772067.3954
 103943954.36748  81006852.86746  20743292.2974                   20743289.1374
 103222404.89148  80445770.32047  20200744.6484                   20200741.8134
 11  8  1  2 56  0.0000000  0  7G02G29G10G04G25G12G05
  98997400.66048  77153339.38046  20972682.5474                   20972677.7584
 128638222.44547 100247944.65144  23514685.2664                   23514683.4884
 107891469.07047  84082954.69645  22001755.6414                   22001753.2424
 109445609.20347  85295952.30843  23916874.2504                   23916872.3364
 115070842.91448  89677901.46046  21757666.3834                   21757666.2624
 103936113.35548  81000742.99146  20741799.9774                   20741797.2814
 103170142.84048  80405046.66847  20190799.0864                   20190796.5274
 11  8  1  2 56 30.0000000  0  7G02G29G10G04G25G12G05
  98994955.88348  77151434.37446  20972217.4224                   20972212.2384
 128520873.63347 100156504.11844  23492354.1804                   23492353.6254
 107939506.75447  84120386.65345  22010896.9614                   22010894.2814
 109492521.64147  85332507.50843  23925801.8054                   23925798.9614
 114995703.40648  89619351.22146  21743367.7584                   21743367.5394
 103928834.39548  80995071.08346  20740415.0704                   20740411.9734
 103118457.16448  80364772.13547  20180963.7734                   20180960.8164
 11  8  1  2 57  0.0000000  0  7G02G29G10G04G25G12G05
  98992641.39148  77149630.89046  20971776.7274                   20971771.5354
 128403504.66847 100065047.83744  23470019.8754                   23470018.4574
 107987930.89147  84158119.74445  22020112.4144                   22020109.5004
 109539387.59847  85369026.46743  23934720.2344                   23934717.0554
 114921105.75848  89561223.21446  21729172.1564                   21729171.8674
 103922116.33648  80989836.22346  20739137.0084                   20739133.4184
 103067348.00048  80324946.83747  20171237.9694                   20171234.8954
 11  8  1  2 57 30.0000000  0  7G02G29G10G04G25G12G05
 100565876.63348  78375528.49746  21271153.3524                   21271148.7274
 129861540.89847 101201180.05444  23747474.9694                   23747473.4414
 109612157.02747  85423750.49645  22329192.0004                   22329189.3834
 111161624.99247  86633107.56343  24243420.9694                   24243419.1334
 116422473.94148  90731120.52246  22014873.1414                   22014872.6954
 105491378.65248  82212638.02946  21037757.4304                   21037754.0514
 104592237.23048  81513172.22747  20461414.8834                   20461411.9964
 11  8  1  2 58  0.0000000  0  7G02G29G10G04G25G12G05
 100563820.00848  78373925.95346  21270761.8834                   21270756.9884
 129744134.85547 101109694.85844  23725133.6024                   23725131.8484
 109661345.11747  85462078.88545  22338552.2034                   22338549.5394
 111208396.12946  86669552.62343  24252321.3594                   24252317.7814
 116348963.61748  90673839.76146  22000884.3674                   22000884.2074
 105485779.46548  82208275.02346  21036691.6484                   21036688.7074
 104542281.02048  81474245.33947  20451908.2274                   20451905.4494
 11  8  1  2 58 30.0000000  0  7G02G29G10G04G25G12G05
 100561890.16448  78372422.19546  21270394.7664                   21270389.8134
 129626711.29747 101018196.02644  23702788.2194                   23702786.5904
 109710910.52347  85500701.25945  22347984.1644                   22347981.1414
 111255118.47747  86705959.64043  24261212.5784                   24261209.9024
 116275998.32448  90616983.71746  21986999.9064                   21986999.6644
 105480736.75448  82204345.64346  21035731.9924                   21035729.1724
 104492900.47748  81435767.02447  20442511.8054                   20442508.6484
 11  8  1  2 59  0.0000000  0  7G02G29G10G04G25G12G05
 100560087.65248  78371017.65446  21270051.5634                   21270046.8204
 129509272.19547 100926685.12544  23680440.6334                   23680438.2234
 109760850.63747  85539615.65645  22357487.5474                   22357484.5944
 111301792.28946  86742328.92543  24270094.2194                   24270091.2624
 116203580.05148  90560553.89746  21973219.1954                   21973218.7504
 105476250.20748  82200849.62646  21034878.5784                   21034875.4384
 104444096.77048  81397738.17947  20433224.6174                   20433221.5514
 11  8  1  2 59 30.0000000  0  7G02G29G10G04G25G12G05
 100558412.98848  78369712.73546  21269733.3284                   21269728.1764
 129391819.78147 100835163.79044  23658089.8524                   23658088.0664
 109811163.96547  85578820.83545  22367062.2194                   22367059.5354
 111348418.24246  86778660.87643  24278966.1804                   24278963.1604
 116131711.18048  90504552.20446  21959542.8134                   21959542.4774
 105472319.85548  82197787.01346  21034130.5944                   21034127.4494
 104395871.00048  81360159.67347  20424047.3134                   20424044.6884
 11  8  1  3  0  0.0000000  0  7G02G29G10G04G25G12G05
 100556865.62148  78368507.00746  21269438.5474                   21269433.5944
 129274355.86747 100743633.51944  23635737.3284                   23635735.1414
 109861848.44147  85618315.24245  22376706.7814                   22376703.6994
 111394996.44546  86814955.61143  24287829.7034                   24287827.6174
 116060393.53548  90448980.03346  21945971.4064                   21945971.1564
 105468945.12948  82195157.36046  21033488.3444                   21033485.1024
 104348223.66048  81323031.89947  20414980.4304                   20414977.3834
 11  8  1  3  0 30.0000000  0  7G02G29G10G04G25G12G05
 100555444.41448  78367399.58946  21269168.2894                   21269163.5234
 129156881.03147 100652094.75044  23613382.9844                   23613381.1454
 109912900.48047  85658096.05345  22386422.0234                   22386418.1094
 111441526.01646  86851212.41343  24296684.7194                   24296682.1024
 115989627.84048  90393837.94746  21932505.3204                   21932505.0164
 105466124.71148  82192959.63346  21032951.9064                   21032948.6844
 104301154.41048  81286354.57147  20406023.4614                   20406020.5084
 11  8  1  3  1  0.0000000  0  7G02G29G10G04G25G12G05
 100554150.87147  78366391.65046  21268921.9694                   21268917.3244
 129039398.44147 100560549.90444  23591026.7274                   23591024.8834
 109964319.15647  85698162.56445  22396206.4694                   22396203.0904
 111488008.53946  86887432.56443  24305529.1724                   24305527.2584
 115919417.29348  90339128.45146  21919144.5944                   21919144.1764
 105463858.71947  82191193.92546  21032520.2814                   21032516.8404
 104254665.05948  81250129.12847  20397176.6484                   20397173.9734
 11  8  1  3  1 30.0000000  0  7G02G29G10G04G25G12G05
 100552985.89547  78365483.87946  21268700.3204                   21268695.3524
 128921911.23447 100469001.48145  23568669.2584                   23568667.8014
 110016103.44147  85738513.95645  22406060.6804                   22406057.9694
 111534445.25846  86923616.94643  24314365.9304                   24314364.0864
 115849764.82048  90284853.79546  21905889.8054                   21905889.3094
 105462147.64147  82189860.62346  21032195.0084                   21032191.7584
 104208757.16448  81214356.74847  20388440.6564                   20388437.8444
 11  8  1  3  2  0.0000000  0  7G02G29G10G04G25G12G05
 100551941.00848  78364669.70046  21268501.5944                   21268496.9184
 128804412.75047 100377444.29744  23546309.9924                   23546308.3164
 110068242.68447  85779141.94745  22415982.3834                   22415979.5164
 111580827.93046  86959759.31943  24323192.7114                   24323190.1524
 115780663.74648  90231008.81946  21892740.6884                   21892740.1764
 105460982.22348  82188952.50046  21031972.8134                   21031969.6684
 104163422.70748  81179031.22247  20379814.1254                   20379811.0314
 11  8  1  3  2 30.0000000  0  7G02G29G10G04G25G12G05
 100551015.91447  78363948.84846  21268325.2194                   21268320.6134
 128686904.44947 100285879.46045  23523949.4064                   23523946.8594
 110120734.17647  85820044.39645  22425971.5004                   22425967.9184
 111627156.46546  86995859.45843  24332008.4304                   24332006.4844
 115712115.51648  90177594.63846  21879696.4384                   21879695.9224
 105460361.75447  82188469.02346  21031854.9064                   21031851.7974
 104118662.02748  81144152.79347  20371296.1484                   20371293.4024
 11  8  1  3  3  0.0000000  0  7G02G29G10G04G25G12G05
 100550214.95347  78363324.72546  21268172.9844                   21268168.0394
 128569392.55547 100194311.79244  23501587.1804                   23501585.1374
 110173579.96947  85861222.92745  22436027.4694                   22436024.3674
 111673435.42646  87031920.89843  24340815.2974                   24340813.0904
 115644126.14548  90124615.91746  21866758.5164                   21866758.0704
 105460289.52747  82188412.74346  21031841.1644                   21031838.2114
 104074480.00848  81109725.25547  20362888.5164                   20362885.8674
 11  8  1  3  3 30.0000000  0  7G02G29G10G04G25G12G05
 100549532.82048  78362793.21146  21268043.4064                   21268038.3484
 128451873.82047 100102738.83045  23479223.2974                   23479221.7194
 110226772.66047  85902671.79445  22446149.7504                   22446145.9304
 111719659.92646  87067939.97843  24349610.0164                   24349609.9804
 115576692.20748  90072070.01146  21853925.8284                   21853926.0164
 105460759.82848  82188779.21946  21031930.8984                   21031927.5164
 104030871.87548  81075744.91147  20354590.0864                   20354587.1564
 11  8  1  3  4  0.0000000  0  7G02G29G10G04G25G12G05
 100548974.59048  78362358.22546  21267936.8914                   21267931.8244
 128334355.21146 100011165.95444  23456860.6174                   23456858.8364
 110280315.24247  85944393.31545  22456338.3984                   22456335.2384
 111765835.28146  87103920.75044  24358398.4534                   24358396.5594
 115509820.52048  90019962.22246  21841200.8914                   21841200.4924
 105461776.81348  82189571.67346  21032124.2504                   21032121.3674
 103987843.07848  81042215.99147  20346402.1484                   20346399.2584
 11  8  1  3  4 30.0000000  0  7G02G29G10G04G25G12G05
 100548535.73448  78362016.27346  21267853.5704                   21267848.2704
 128216834.38347  99919591.35244  23434497.1094                   23434495.5124
 110334201.08647  85986382.28345  22466592.1254                   22466589.6214
 111811957.39846  87139860.03843  24367175.1644                   24367173.3244
 115443508.43448  89968290.49546  21828582.0314                   21828581.8524
 105463335.56348  82190786.29046  21032420.5234                   21032417.9384
 103945389.91448  81009135.62147  20338323.4924                   20338320.6374
 11  8  1  3  5  0.0000000  0  7G02G29G10G04G25G12G05
 100548218.68048  78361769.21846  21267793.3594                   21267787.8874
 128099315.12547  99828018.00644  23412133.3134                   23412132.2464
 110388429.85547  86028638.46045  22476912.0704                   22476908.9964
 111858028.50447  87175759.56143  24375943.2664                   24375939.9384
 115377759.55148  89917057.62246  21816070.2194                   21816069.9614
 105465437.44548  82192424.11646  21032820.8984                   21032817.6454
 103903514.39548  80976505.36547  20330354.9224                   20330351.9184
 11  8  1  3  5 30.0000000  0  7G02G29G10G04G25G12G05
 100548016.27748  78361611.50846  21267754.5084                   21267749.4884
 127981792.69946  99736442.19945  23389769.8134                   23389768.8754
 110442992.73847  86071154.98744  22487294.4924                   22487292.0634
 111904042.10247  87211614.28543  24384698.9144                   24384695.5514
 115312568.77748  89866259.65146  21803665.2114                   21803664.8404
 105468073.88748  82194478.49646  21033322.2734                   21033319.0314
 103862210.55148  80944320.56647  20322494.9694                   20322491.8914
 11  8  1  3  6  0.0000000  0  6G02G29G10G25G12G05
 100547930.53148  78361544.69646  21267738.3134                   21267733.4064
 127864271.02046  99644866.96544  23367405.8834                   23367405.1484
 110497889.50847  86113931.69245  22497741.7504                   22497738.3484
 115247939.68848  89815899.34446  21791366.1884                   21791365.9924
 105471246.63348  82196950.77146  21033926.4144                   21033922.9534
 103821480.55148  80912582.93047  20314744.1804                   20314741.3134
 11  8  1  3  6 30.0000000  0  6G02G29G10G25G12G05
 100547963.69548  78361570.53146  21267744.4694                   21267739.5864
 127746754.11746  99553295.45345  23345043.7274                   23345041.8554
 110553119.65247  86156968.15045  22508251.2274                   22508248.1414
 115183875.73848  89765979.41446  21779175.6414                   21779175.1254
 105474956.71948  82199841.73646  21034632.3674                   21034629.0274
 103781326.38748  80881293.97647  20307103.2584                   20307100.4694
 11  8  1  3  7  0.0000000  0  6G02G29G10G25G12G05
 100548123.82848  78361695.31046  21267774.9144                   21267769.7274
 127629251.80947  99461735.29145  23322683.4454                   23322682.0084
 110608689.02347  86200268.96244  22518826.3984                   22518823.3094
 115120386.63348  89716507.42146  21767093.8134                   21767093.4414
 105479211.67648  82203157.28946  21035441.8914                   21035438.5394
 103741756.75448  80850460.51047  20299573.1024                   20299570.0864
 11  8  1  3  7 30.0000000  0  6G02G29G10G25G12G05
 100548408.21548  78361916.91246  21267829.3834                   21267824.0124
 127511763.36747  99370185.98145  23300326.1564                   23300324.3054
 110664592.48847  86243830.07344  22529463.9304                   22529460.8054
 115057471.10248  89667482.35346  21755121.4844                   21755121.1214
 105484007.02748  82206893.93846  21036354.4694                   21036351.4304
 103702768.85248  80820080.34547  20292153.9534                   20292151.0984
 11  8  1  3  8  0.0000000  0  6G02G29G10G25G12G05
 100548814.90248  78362233.81946  21267906.3674                   21267901.7074
 127394289.10247  99278647.68845  23277971.4064                   23277969.8634
 110720825.94947  86287648.37045  22540165.3364                   22540161.9574
 114995129.03548  89618904.14046  21743258.1334                   21743257.8634
 105489340.71148  82211050.05546  21037369.4534                   21037366.4104
 103664361.64848  80790152.66847  20284845.5704                   20284842.6134
 11  8  1  3  8 30.0000000  0  6G02G29G10G25G12G05
 100549344.95748  78362646.85546  21268007.7034                   21268002.6724
 127276831.82046  99187122.63345  23255620.0394                   23255618.4064
 110777388.11347  86331722.77545  22550928.4614                   22550925.6454
 114933362.75448  89570774.59446  21731504.6094                   21731504.0004
 105495212.10248  82215625.15446  21038486.9064                   21038483.7814
 103626535.65648  80760677.88447  20277647.5634                   20277644.2154
 11  8  1  3  9  0.0000000  0  6G02G29G10G25G12G05
 100549991.92648  78363150.99346  21268130.6884                   21268125.8954
 127159386.90247  99095607.19045  23233271.0394                   23233269.0514
 110834270.24247  86376046.51644  22561752.3594                   22561749.3054
 114872167.09048  89523089.69146  21719859.2034                   21719859.0594
 105501613.94148  82220613.59546  21039705.1484                   21039701.8984
 103589284.91448  80731651.34547  20270558.9924                   20270555.9024
 11  8  1  3  9 30.0000000  0  6G02G29G10G25G12G05
 100550755.08647  78363745.66646  21268275.6804                   21268270.4064
 127041955.79747  99004102.54145  23210924.6024                   23210922.9344
 110891469.67247  86420617.49344  22572637.0234                   22572634.2544
 114811542.82448  89475850.03046  21708322.7974                   21708322.6524
 105508544.32848  82226013.90146  21041023.5004                   21041020.5554
 103552608.87548  80703072.63347  20263579.9774                   20263576.5904
 11  8  1  3 10  0.0000000  0  6G02G29G10G25G12G05
 100551633.54747  78364430.18846  21268443.0164                   21268437.7774
 126924539.63347  98912609.49245  23188580.8914                   23188578.8014
 110948982.84847  86465432.97844  22583581.4774                   22583579.0204
 114751490.46948  89429056.01246  21696894.7664                   21696894.6764
 105516001.71148  82231824.85146  21042442.9304                   21042440.3834
 103516506.75848  80674941.13547  20256710.1564                   20256706.6374
 11  8  1  3 10 30.0000000  0  6G02G29G10G25G12G05
 100552626.19548  78365203.68546  21268631.6564                   21268626.8674
 126807138.89847  98821128.49445  23166239.8204                   23166238.3284
 111006806.37547  86510490.25244  22594585.6174                   22594581.8284
 114692009.98048  89382707.60546  21685576.1884                   21685575.9184
 105523983.07848  82238044.09546  21043961.8284                   21043958.6054
 103480977.10248  80647255.69647  20249948.6174                   20249945.6294
 11  8  1  3 11  0.0000000  0  6G02G29G10G25G12G05
 100553727.14548  78366061.56546  21268841.3984                   21268836.2974
 126689749.76646  98729656.51144  23143901.8364                   23143899.9884
 111064932.09047  86555783.01744  22605646.0554                   22605643.3484
 114633096.86748  89336801.28446  21674365.6024                   21674365.1844
 105532482.09048  82244666.68846  21045579.2344                   21045575.9964
 103446014.15248  80620011.85547  20243295.3364                   20243292.1294
 11  8  1  3 11 30.0000000  0  6G02G29G10G25G12G05
 100554939.37548  78367006.17046  21269071.9924                   21269067.0084
 126572377.29746  98638197.51145  23121566.3284                   23121564.3404
 111123360.35247  86601311.55444  22616764.6804                   22616761.7114
 114574755.20748  89291340.27246  21663263.1884                   21663263.1954
 105541499.79748  82251693.46946  21047295.1564                   21047291.9804
 103411620.71948  80593211.80047  20236750.6414                   20236747.3874
 11  8  1  3 12  0.0000000  0  6G02G29G10G25G12G05
 100556266.26647  78368040.10946  21269324.5634                   21269319.3404
 126455026.69547  98546755.56645  23099234.9224                   23099232.9924
 111182092.30547  86647076.71444  22627940.8834                   22627937.8444
 114516989.80948  89246328.29246  21652271.0084                   21652270.9804
 105551038.63348  82259126.33146  21049110.3444                   21049107.0044
 103377800.43048  80566858.34647  20230314.7194                   20230311.5004
 11  8  1  3 12 30.0000000  0  6G02G29G10G25G12G05
 100557701.89847  78369158.79346  21269598.1724                   21269592.4534
 126337693.92647  98455327.51245  23076907.2194                   23076905.3634
 111241119.63747  86693072.03044  22639173.7504                   22639170.8594
 114459795.68848  89201761.45646  21641387.2344                   21641386.6414
 105561091.59848  82266959.80946  21051023.3204                   21051020.1724
 103344547.01248  80540946.60947  20223987.0394                   20223983.4574
 11  8  1  3 13  0.0000000  0  6G02G29G10G25G12G05
 100559247.71147  78370363.32946  21269891.9064                   21269886.5784
 126220382.62547  98363916.16745  23054583.7664                   23054581.6764
 111300441.42247  86739296.79544  22650461.5634                   22650459.4494
 114403175.71948  89157642.01146  21630612.7424                   21630612.7114
 105571658.35548  82275193.63146  21053034.2974                   21053031.0554
 103311862.31347  80515478.03247  20217767.2664                   20217764.1564
 11  8  1  3 13 30.0000000  0  6G02G29G10G25G12G05
 100560902.35948  78371652.67146  21270206.8204                   21270201.6684
 126103093.50047  98272522.12645  23032264.3834                   23032262.4884
 111360053.81646  86785748.01544  22661805.4924                   22661802.8164
 114347129.52348  89113969.67946  21619947.8204                   21619947.1024
 105582736.62948  82283826.05446  21055142.0864                   21055139.1334
 103279744.28548  80490451.00747  20211655.3674                   20211652.2774
 11  8  1  3 14  0.0000000  0  6G02G29G10G25G12G05
 100562664.99248  78373026.15046  21270542.2274                   21270536.9884
 125985827.70747  98181146.23345  23009949.5784                   23009947.6024
 111419954.00046  86832423.44544  22673203.9774                   22673202.1094
 114291657.59448  89070744.81346  21609392.1024                   21609391.5204
 105594324.30148  82292855.39346  21057347.4614                   21057344.2664
 103248192.21148  80465864.98647  20205651.0704                   20205648.0984
 11  8  1  3 14 30.0000000  0  7G02G29G26G10G25G12G05
 100564538.30948  78374485.89546  21270898.5634                   21270893.5904
 125868589.30147  98089791.69145  22987639.4614                   22987637.7074
 135453472.42216                  24388152.742
 111480141.69946  86879322.96844  22684657.5004                   22684655.5084
 114236763.07848  89027969.89146  21598945.8914                   21598945.4454
 105606422.59848  82302282.64046  21059649.5634                   21059646.3164
 103217208.03148  80441721.49347  20199755.0474                   20199751.7664
 11  8  1  3 15  0.0000000  0  7G02G29G26G10G25G12G05
 100566523.15648  78376032.53346  21271276.2734                   21271271.0824
 125751381.91447  97998461.31545  22965336.0394                   22965334.0664
 135323246.42546 105458435.76843  24363371.6804                   24363370.4224
 111540615.72746  86926445.55044  22696165.1954                   22696162.9534
 114182448.32448  88985646.70946  21588609.8204                   21588609.3634
 105619030.93448  82312107.31746  21062048.6724                   21062045.7664
 103186792.92648  80418021.41947  20193967.3134                   20193964.1254
 11  8  1  3 15 30.0000000  0  7G02G29G26G10G25G12G05
 100568603.25447  78377653.39046  21271672.2424                   21271667.1724
 125634190.87947  97907143.68445  22943035.1954                   22943033.0824
 135192940.36746 105356898.65243  24338574.5474                   24338573.7464
 111601357.57846  86973776.88044  22707724.3524                   22707721.4184
 114128698.13748  88943763.46946  21578381.3674                   21578381.4654
 105632131.74248  82322315.73346  21064541.6954                   21064538.6914
 103156930.47747  80394751.99647  20188284.6644                   20188281.2384
 11  8  1  3 16  0.0000000  0  7G02G29G26G10G25G12G05
 100570781.27347  78379350.56546  21272086.4924                   21272081.6294
 125517020.60247  97815842.22645  22920738.3524                   22920736.4574
 135062560.23046 105255303.81843  24313764.2814                   24313762.6484
 111662366.93046  87021316.60244  22719334.3984                   22719331.4884
 114075515.85948  88902322.74146  21568261.0394                   21568260.7814
 105645725.84448  82332908.53046  21067128.7504                   21067125.6844
 103127622.75448  80371914.82747  20182707.3134                   20182704.0274
 11  8  1  3 16 30.0000000  0  7G02G29G26G10G25G12G05
 100573060.54748  78381126.62646  21272520.5314                   21272515.6024
 125399876.85947  97724561.41045  22898446.3054                   22898444.0634
 134932112.97746 105153656.78043  24288940.0394                   24288939.5004
 111723644.69546  87069065.51644  22730994.7344                   22730991.6604
 114022905.74648  88861327.84746  21558249.8754                   21558249.6334
 105659815.16448  82343887.21146  21069809.9384                   21069806.6024
 103098872.64848  80349512.15647  20177236.4534                   20177233.4144
 11  8  1  3 17  0.0000000  0  7G02G29G26G10G25G12G05
 100575445.42648  78382984.99246  21272974.1174                   21272968.7424
 125282765.75446  97633306.07345  22876160.5864                   22876158.7624
 134801606.54346 105051963.54743  24264106.4384                   24264104.7934
 111785193.05546  87117025.28344  22742707.1564                   22742704.8524
 113970873.07048  88820782.92746  21548348.2584                   21548347.8134
 105674402.53548  82355254.00246  21072585.7194                   21072582.7624
 103070684.16848  80327547.11747  20171872.5554                   20171869.0234
 11  8  1  3 17 30.0000000  0  7G02G29G26G10G25G12G05
 100577934.76648  78384924.74146  21273448.1024                   21273442.7544
 125165688.43447  97542077.03745  22853881.9924                   22853879.7734
 134671043.80546 104950226.49843  24239261.0164                   24239259.3524
 111847008.84447  87165193.43144  22754470.7664                   22754467.2584
 113919417.86748  88780687.96146  21538556.6954                   21538556.3324
 105689485.82048  82367007.20046  21075455.8204                   21075453.0864
 103043056.27348  80306018.90647  20166615.1174                   20166611.5634
 11  8  1  3 18  0.0000000  0  7G02G29G26G10G25G12G05
 100580528.46948  78386945.81746  21273941.5704                   21273936.1914
 125048646.84047  97450875.85045  22831609.7344                   22831607.1134
 134540427.86746 104848447.99943  24214404.8594                   24214403.7854
 111909089.10947  87213567.65144  22766284.0394                   22766280.9654
 113868540.67248  88741043.40846  21528875.1954                   21528874.5354
 105705063.31348  82379145.50046  21078420.4384                   21078417.1254
 103015987.98848  80284926.74547  20161464.1724                   20161460.7234
 11  8  1  3 18 30.0000000  0  7G02G29G26G10G25G12G05
 100583229.86347  78389050.80746  21274455.3444                   21274450.3054
 124931645.67247  97359706.14445  22809344.5864                   22809342.3834
 134409765.27346 104746633.15143  24189541.0784                   24189539.2384
 111971434.14846  87262148.19644  22778147.3834                   22778144.8954
 113818245.06648  88701852.02946  21519304.1094                   21519303.6764
 105721135.82448  82391669.53946  21081478.8444                   21081475.6564
 102989481.84048  80264272.62047  20156420.0554                   20156416.4924
 11  8  1  3 19  0.0000000  0  7G02G29G26G10G25G12G05
 100586035.45347  78391236.98746  21274989.3054                   21274984.0704
 124814683.50047  97268566.86145  22787087.3914                   22787085.6644
 134279056.41046 104644782.15743  24164668.2504                   24164665.7034
 112034038.74247  87310931.00844  22790060.8054                   22790057.9024
 113768528.63748  88663111.97746  21509843.7734                   21509843.4104
 105737699.10548  82404575.99046  21084630.6724                   21084627.2894
 102963533.97748  80244053.51547  20151482.4614                   20151479.2584
 11  8  1  3 19 30.0000000  0  7G02G29G26G10G25G12G05
 100588939.48848  78393499.88046  21275541.9454                   21275536.6414
 124697757.08647  97177455.42745  22764837.2504                   22764834.9924
 134148299.39847 104542893.67043  24139786.2584                   24139784.0234
 112096894.80947  87359909.76644  22802021.8754                   22802018.8634
 113719386.55948  88624819.45346  21500492.0234                   21500491.6684
 105754745.43848  82417858.84246  21087874.3594                   21087871.4184
 102938138.65648  80224264.97147  20146649.7344                   20146646.7854
 11  8  1  3 20  0.0000000  0  7G02G29G26G10G25G12G05
 100591950.47748  78395846.12146  21276114.8834                   21276109.8874
 124580876.71547  97086379.84645  22742595.0864                   22742593.2974
 134017506.02746 104440976.90643  24114896.9384                   24114895.3674
 112160008.37547  87409089.18244  22814032.1024                   22814029.4414
 113670828.09848  88586981.69046  21491251.7734                   21491251.4344
 105772281.37548  82431523.20646  21091211.2114                   21091208.0124
 102913303.64848  80204913.02447  20141923.8674                   20141920.5164
 11  8  1  3 20 30.0000000  0  7G02G29G26G10G25G12G05
 102170487.46148  79625874.94146  21576500.6094                   21576495.5474
 126039467.30147  98222944.02045  23020156.2344                   23020153.8014
 135462103.67646 105566637.51343  24389793.9614                   24389792.6254
 113798793.74647  88686064.81744  23125882.3524                   23125879.4884
 115198274.44148  89777199.62146  21781915.1804                   21781914.6484
 107365724.11748  83673166.89646  21394433.2504                   21394430.1374
 104464448.13348  81413597.04847  20437096.6024                   20437094.0354
 11  8  1  3 21  0.0000000  0  7G02G29G26G10G25G12G05
 102173708.61748  79628384.95146  21577113.6254                   21577108.4304
 125922681.34847  98131942.04445  22997932.1884                   22997930.4184
 135331244.99646 105464669.82143  24364893.1414                   24364891.3054
 113862410.54347  88735636.34744  23137988.1884                   23137985.5394
 115150880.98848  89740269.66446  21772896.4614                   21772896.2934
 107384231.35548  83687588.12946  21397955.1094                   21397952.1024
 104440728.01648  81395113.85447  20432583.2584                   20432580.1024
 11  8  1  3 21 30.0000000  0  7G02G29G26G10G25G12G05
 102177034.23848  79630976.33346  21577746.2894                   21577741.0664
 125805945.18047  98040978.88145  22975717.8914                   22975716.1134
 135200358.53946 105362680.47743  24339985.7894                   24339984.1764
 113926274.86747  88785400.73844  23150141.3284                   23150138.4224
 115104070.46148  89703793.94146  21763988.7814                   21763988.2464
 107403220.71548  83702385.03646  21401568.7734                   21401565.9184
 104417563.87948  81377063.88047  20428175.0944                   20428171.8094
 11  8  1  3 22  0.0000000  0  7G02G29G26G10G25G12G05
 102180464.72748  79633649.45346  21578399.4224                   21578394.2274
 125689260.78147  97950056.01745  22953513.3754                   22953511.7664
 135069447.85946 105260672.23743  24315074.8754                   24315072.7384
 113990384.25447  88835356.07644  23162341.1954                   23162338.2154
 115057843.56348  89667772.97046  21755191.7814                   21755191.8484
 107422690.98448  83717556.66746  21405274.1804                   21405270.7894
 104394955.39148  81359446.89447  20423872.6724                   20423869.5634
 11  8  1  3 22 30.0000000  0  7G02G29G26G10G25G12G05
 102183996.30548  79636401.33446  21579071.2974                   21579066.1294
 125572626.66447  97859172.36545  22931319.3754                   22931316.8054
 134938513.35246 105158645.47044  24290157.8984                   24290156.5354
 114054732.76647  88885497.77444  23174586.3594                   23174583.6524
 115012197.27748  89632204.45246  21746505.6024                   21746505.0704
 107442636.59848  83733098.70346  21409069.2344                   21409066.3794
 104372898.23448  81342259.51047  20419675.6334                   20419672.2894
 11  8  1  3 23  0.0000000  0  7G02G29G26G10G25G12G05
 102187631.69548  79639234.11146  21579763.2974                   21579758.1994
 125456047.57447  97768331.58145  22909134.3914                   22909132.6764
 134807560.88346 105056604.67444  24265238.5314                   24265237.3914
 114119320.61346  88935825.97744  23186877.0084                   23186873.8164
 114967134.65248  89597090.72946  21737930.5864                   21737929.7304
 107463058.37148  83749011.76646  21412955.5084                   21412952.4694
 104351394.27348  81325503.18147  20415583.1094                   20415579.9304
 11  8  1  3 23 30.0000000  0  7G02G29G26G10G25G12G05
 102191369.41448  79642146.61746  21580474.5084                   21580469.1804
 125339524.12947  97677534.15945  22886961.1334                   22886959.0354
 134676592.70347 104954551.67844  24240316.2034                   24240314.8834
 114184143.76647  88986337.50944  23199212.3364                   23199209.3244
 114922654.80948  89562431.11346  21729466.4144                   21729466.0234
 107483952.86348  83765293.18346  21416931.4694                   21416928.3834
 104330441.18448  81309176.11047  20411596.1804                   20411592.9144
 11  8  1  3 24  0.0000000  0  7G02G29G26G10G25G12G05
 102195210.52348  79645139.69546  21581205.0864                   21581200.2854
 125223059.07447  97586782.23045  22864798.5944                   22864796.2854
 134545613.72347 104852490.28143  24215391.5314                   24215390.4064
 114249200.69147  89037031.21044  23211592.4614                   23211589.4344
 114878759.10248  89528226.66846  21721113.5004                   21721112.7274
 107505319.34048  83781942.39146  21420997.3984                   21420994.1524
 104310039.34848  81293278.59547  20407713.7274                   20407710.7504
 11  8  1  3 24 30.0000000  0  7G02G29G26G10G25G12G05
 102199147.64848  79648207.59146  21581954.2194                   21581948.8954
 125106647.59447  97496072.05445  22842646.1564                   22842644.0824
 134414620.13346 104750417.42243  24190464.1174                   24190462.7234
 114314481.69946  89087899.53944  23224014.3284                   23224011.3164
 114835440.68848  89494472.07046  21712869.8834                   21712869.7274
 107527148.91048  83798952.43746  21425151.8834                   21425148.4924
 104290180.63348  81277804.28847  20403934.6564                   20403931.6954
 11  8  1  3 25  0.0000000  0  7G02G29G26G10G25G12G05
 102203185.01248  79651353.59546  21582722.7504                   21582717.4774
 124990295.89547  97405408.47445  22820504.9064                   22820502.8164
 134283619.77046 104648339.34144  24165534.7114                   24165534.4454
 114379988.47747  89138943.76444  23236480.2424                   23236478.0474
 114792704.21548  89461170.94146  21704737.6254                   21704737.0554
 107549443.58648  83816324.90646  21429393.9304                   21429391.1214
 104270868.72748  81262756.06047  20400259.6884                   20400256.9064
 11  8  1  3 25 30.0000000  0  7G02G29G26G10G25G12G05
 102207326.98448  79654581.10846  21583510.5084                   21583505.4694
 124874009.83247  97314796.01645  22798376.7734                   22798374.4614
 134152620.18846 104546261.87243  24140606.9774                   24140605.4734
 114445722.69947  89190165.23344  23248988.7664                   23248986.2234
 114750554.06348  89428326.67346  21696716.5164                   21696716.0864
 107572205.40648  83834061.38946  21433725.6024                   21433722.4844
 104252106.52048  81248136.16947  20396689.3674                   20396686.2894
 11  8  1  3 26  0.0000000  0  7G02G29G26G10G25G12G05
 102211565.55148  79657883.88446  21584317.2274                   21584312.0394
 124757783.55547  97224230.14845  22776259.3364                   22776256.9304
 134021617.39846 104444181.80544  24115677.6954                   24115676.6764
 114511674.07846  89241555.89844  23261539.2734                   23261536.8444
 114708982.57848  89395933.31046  21688806.1644                   21688805.4224
 107595424.73448  83852154.36746  21438143.9384                   21438140.8794
 104233885.22748  81233937.76947  20393222.1094                   20393218.9844
 11  8  1  3 26 30.0000000  0  7G02G29G26G10G25G12G05
 102215903.39848  79661264.03346  21585142.8524                   21585137.2624
 124641622.22347  97133714.87645  22754154.4454                   22754152.3444
 133890617.83246 104342104.36243  24090748.9384                   24090748.0044
 114577842.71546  89293115.82644  23274129.7424                   23274128.0164
 114667992.86748  89363993.28146  21681006.0164                   21681005.2194
 107619102.59448  83870604.64346  21442650.0474                   21442647.0234
 104216206.89848  81220162.45947  20389857.7894                   20389855.0744
 11  8  1  3 27  0.0000000  0  7G02G29G26G10G25G12G05
 102220341.61748  79664722.39246  21585987.2504                   21585982.3954
 124525528.76647  97043252.50945  22732062.7194                   22732060.4804
 133759625.86746 104240032.77343  24065822.3914                   24065821.3204
 114644227.41447  89344844.18744  23286763.1414                   23286760.2194
 114627586.19548  89332507.56846  21673316.6174                   21673315.9804
 107643237.70748  83889411.22246  21447242.4924                   21447239.3444
 104199071.66048  81206810.34547  20386597.1094                   20386594.1524
 11  8  1  3 27 30.0000000  0  7G02G29G26G10G25G12G05
 102224880.52748  79668259.20846  21586851.1644                   21586846.1684
 124409505.50847  96952844.83845  22709984.0164                   22709981.6564
 133628645.59046 104137970.33743  24040897.2194                   24040896.4924
 114710825.60946  89396738.88844  23299436.3674                   23299434.1644
 114587762.94548  89301476.46246  21665738.5004                   21665738.0314
 107667828.34447  83908572.73846  21451922.3054                   21451919.1374
 104182478.60248  81193880.69447  20383439.5394                   20383436.6604
 11  8  1  3 28  0.0000000  0  7G02G29G26G10G25G12G05
 102229523.52748  79671877.12246  21587734.7504                   21587729.6254
 124293557.82447  96862496.05545  22687919.7584                   22687917.7854
 133497684.15646 104035922.58344  24015976.6884                   24015974.5164
 114777638.35547  89448800.75744  23312151.4224                   23312147.2544
 114548526.75448  89270902.82146  21658272.5634                   21658271.9144
 107692875.98848  83928090.37946  21456688.6024                   21456685.3444
 104166430.41848  81181375.63147  20380385.6334                   20380382.8554
 11  8  1  3 28 30.0000000  0  7G02G29G26G10G25G12G05
 102234262.92648  79675570.16446  21588636.6724                   21588631.4384
 124177680.06647  96772201.73745  22665868.5164                   22665866.6604
 133366737.33247 103933886.13043  23991058.0394                   23991055.8054
 114844655.49647  89501021.87944  23324903.6804                   23324900.3714
 114509870.00848  89240780.68046  21650916.3594                   21650915.4844
 107718370.62148  83947956.31146  21461539.7034                   21461536.8404
 104150918.12548  81169288.13047  20377434.0004                   20377430.8014
 11  8  1  3 29  0.0000000  0  7G02G29G26G10G25G12G05
 102239099.50448  79679338.93346  21589556.8364                   21589551.8524
 124061875.30947  96681964.33345  22643832.1334                   22643829.3714
 133235809.77047 103831864.74944  23966143.3984                   23966141.4964
 114911875.40247  89553401.05644  23337695.4924                   23337692.3984
 114471793.64848  89211110.79246  21643670.2194                   21643669.7814
 107744311.17648  83968169.72446  21466476.6094                   21466472.9184
 104135941.63348  81157618.15647  20374584.0474                   20374580.6174
 11  8  1  3 29 30.0000000  0  7G02G29G26G10G25G12G05
 102244037.16448  79683186.46346  21590496.6484                   21590491.2894
 123946148.89847  96591787.95545  22621810.0474                   22621807.6764
 133104908.68846 103729863.96343  23941233.2584                   23941231.2344
 114979299.19947  89605939.09444  23350525.6174                   23350522.4494
 114434301.52048  89181896.15346  21636535.7894                   21636535.4964
 107770699.19548  83988731.80946  21471497.8364                   21471495.0744
 104121503.75048  81146367.86247  20371836.4064                   20371833.3404
 11  8  1  3 30  0.0000000  0  7G02G29G26G10G25G12G05
 102249071.06348  79687108.98046  21591454.2664                   21591449.1884
 123830498.69147  96501670.95845  22599802.6024                   22599799.9694
 132974033.16047 103627883.11044  23916328.8914                   23916327.2734
 115046919.60946  89658630.30044  23363393.6484                   23363391.3404
 114397388.96148  89153133.13046  21629511.2274                   21629510.8284
 107797527.89147  84009637.27246  21476603.0084                   21476600.0274
 104107598.48048  81135532.60547  20369190.1254                   20369187.1254
 11  8  1  3 30 30.0000000  0  7G02G29G26G10G25G12G05
 102254201.35948  79691106.61146  21592430.5234                   21592425.6254
 123714926.82847  96411615.00945  22577810.3284                   22577807.4264
 132843186.93847 103525925.10244  23891429.6724                   23891427.8204
 115114734.40247  89711472.97344  23376297.8134                   23376295.1684
 114361056.09448  89124821.80546  21622597.6954                   21622597.1914
 107824795.13348  84030884.47946  21481791.9844                   21481789.3284
 104094224.62548  81125111.41947  20366645.2114                   20366642.5084
 11  8  1  3 31  0.0000000  0  7G02G29G26G10G25G12G05
 102259429.34448  79695180.37246  21593425.3754                   21593420.6994
 123599436.58247  96321622.65445  22555833.0164                   22555830.4224
 132712374.89146 103423993.72144  23866536.3674                   23866535.4734
 115182742.12946  89764465.97844  23389239.5784                   23389236.9614
 114325304.07847  89096963.11146  21615794.2194                   21615793.9534
 107852500.02348  84052472.69346  21487063.8204                   21487061.2624
 104081382.62548  81115104.68247  20364201.6564                   20364198.5044
 11  8  1  3 31 30.0000000  0  7G02G29G26G10G25G12G05
 102264754.57448  79699329.88246  21594438.6024                   21594433.7114
 123484029.28147  96231694.92845  22533871.8914                   22533868.8364
 132581600.18446 103322091.44244  23841651.2974                   23841648.7234
 115250939.83646  89817607.04244  23402216.6724                   23402214.3914
 114290132.36347  89069556.59546  21609101.4224                   21609100.6484
 107880640.14148  84074400.03846  21492418.9224                   21492415.8594
 104069070.76248  81105511.02547  20361858.6484                   20361855.5554
 11  8  1  3 32  0.0000000  0  7G02G29G26G10G25G12G05
 102270176.43448  79703554.71646  21595470.6334                   21595465.1954
 123368706.58247  96141833.11345  22511926.3284                   22511923.8754
 132450865.88346 103220220.62144  23816772.7114                   23816770.7304
 115319324.20346  89870893.53244  23415230.4224                   23415227.3914
 114255540.18447  89042601.66146  21602518.6724                   21602518.1994
 107909212.30148  84096664.05446  21497855.9844                   21497852.9064
 104057287.19948  81096329.03747  20359616.0084                   20359613.1954
 11  8  1  3 32 30.0000000  0  7G02G29G26G10G25G12G05
 102275694.03148  79707854.13646  21596520.6484                   21596515.2504
 123253469.56647  96052038.09545  22489998.0004                   22489994.4024
 132320174.52746 103118383.25944  23791903.4064                   23791900.9734
 115387892.01647  89924323.02944  23428278.1564                   23428275.3364
 114221526.41847  89016097.43146  21596046.1174                   21596045.5004
 107938213.32848  84119262.24946  21503374.5004                   21503371.3954
 104046029.62148  81087556.90647  20357474.2424                   20357471.1914
 11  8  1  3 33  0.0000000  0  7G02G29G26G10G25G12G05
 102281307.83248  79712228.52846  21597588.9304                   21597583.6374
 123138321.07447  95962312.04345  22468085.8594                   22468082.6134
 132189530.71546 103016582.99944  23767042.0164                   23767041.3794
 115456641.39846  89977893.95344  23441360.2974                   23441357.5044
 114188091.50047  88990044.25746  21589683.5234                   21589683.0984
 107967641.36748  84142193.17346  21508974.7814                   21508971.6804
 104035297.53948  81079194.25547  20355431.7344                   20355428.6844
 11  8  1  3 33 30.0000000  0  7G02G29G26G10G25G12G05
 102287020.03948  79716679.59146  21598675.8054                   21598670.9614
 123023265.10947  95872658.06945  22446191.0164                   22446188.3054
 132058939.93846 102914824.00643  23742191.4844                   23742189.6724
 115525572.01247  90031606.07844  23454477.6564                   23454475.3834
 114155237.33648  88964443.62046  21583431.6174                   21583431.2854
 107997496.53148  84165456.93846  21514655.7664                   21514652.8054
 104025091.41048  81071241.42547  20353489.7584                   20353486.5004
 11  8  1  3 34  0.0000000  0  7G02G29G26G10G25G12G05
 102292827.09448  79721204.54746  21599780.7974                   21599776.2114
 122908300.65647  95783075.43845  22424313.8674                   22424311.2934
 131928402.86746 102813106.89244  23717351.0234                   23717349.5474
 115594677.82846  90085454.72543  23467628.2194                   23467625.7734
 114122960.70748  88939293.01046  21577289.6174                   21577289.1214
 108027773.30548  84189049.21646  21520417.0474                   21520414.1804
 104015407.36348  81063695.43347  20351646.8834                   20351643.9574
 11  8  1  3 34 30.0000000  0  7G02G29G26G10G25G12G05
 102298729.24248  79725803.63746  21600904.1174                   21600899.0904
 122793429.22347  95693565.24145  22402454.7274                   22402452.3594
 131797922.72347 102711434.12244  23692521.6564                   23692519.4384
 115663955.84046  90139437.56044  23480811.8364                   23480808.8874
 114091260.71548  88914591.71246  21571257.3204                   21571256.9144
 108058468.94948  84212967.89546  21526258.8984                   21526255.8674
 104006243.44548  81056554.72447  20349903.0634                   20349900.1844
 11  8  1  3 35  0.0000000  0  7G02G29G26G10G25G12G05
 102304727.60948  79730477.69546  21602045.4694                   21602040.5004
 122678654.31647  95604130.30245  22380613.2194                   22380611.1644
 131667504.23447 102609809.39844  23667704.3204                   23667702.3244
 115733405.09846  90193553.85943  23494027.2584                   23494024.0434
 114060138.37548  88890340.55146  21565334.9224                   21565334.5204
 108089582.37148  84237212.11046  21532179.2504                   21532175.7114
 103997599.01648  81049818.80947  20348258.0164                   20348254.9344
 11  8  1  3 35 30.0000000  0  7G02G29G26G10G25G12G05
 102310818.97348  79735224.21146  21603204.7974                   21603199.2774
 122563974.94947  95514769.81145  22358790.7974                   22358788.5434
 131537148.12147 102508233.27344  23642898.1174                   23642895.9304
 115803020.07046  90247799.28343  23507274.3364                   23507272.0474
 114029590.23048  88866536.80546  21559521.7584                   21559521.4414
 108121107.98448  84261777.51246  21538178.4064                   21538175.2274
 103989470.08648  81043484.58047  20346711.3984                   20346708.2624
 11  8  1  3 36  0.0000000  0  7G02G29G26G10G25G12G05
 102317007.81648  79740046.69446  21604382.3364                   21604376.9844
 122449397.41047  95425488.64445  22336987.0784                   22336985.0274
 131406862.50447 102406712.08744  23618104.9534                   23618104.1174
 115872802.54346  90302175.19243  23520553.7504                   23520551.2544
 113999620.33648  88843183.65746  21553818.5314                   21553818.1884
 108153047.91448  84286665.76146  21544256.2424                   21544253.1374
 103981859.72348  81037554.44047  20345263.2274                   20345259.5984
 11  8  1  3 36 30.0000000  0  7G02G29G26G10G25G12G05
 102323291.29748  79744942.90546  21605577.9224                   21605572.6914
 122334921.02347  95336286.30845  22315202.9694                   22315200.5474
 131276647.95347 102305246.23744  23593326.3524                   23593323.6644
 115942746.69147  90356677.14043  23533863.8914                   23533859.9144
 113970225.27348  88820278.43346  21548224.9454                   21548224.2814
 108185396.64148  84311872.56646  21550412.2504                   21550409.3794
 103974763.39848  81032024.83547  20343912.8674                   20343909.5274
 11  8  1  3 37  0.0000000  0  7G02G29G26G10G25G12G05
 102329667.73848  79749911.56446  21606791.6174                   21606786.4534
 122220546.99247  95247163.75045  22293438.4774                   22293435.8554
 131146507.04347 102203837.80944  23568560.7974                   23568558.8134
 116012849.12147  90411302.42243  23547203.4774                   23547199.8594
 113941403.62148  88797820.00546  21542740.5704                   21542739.5314
 108218150.86348  84337395.31846  21556645.1484                   21556642.0354
 103968178.44948  81026893.71947  20342659.5704                   20342656.4574
 11  8  1  3 37 30.0000000  0  7G02G29G26G10G25G12G05
 102336140.98448  79754955.65646  21608023.6024                   21608017.7854
 122106280.24247  95158124.76545  22271694.3364                   22271691.5314
 131016446.70347 102102492.15444  23543811.1334                   23543809.1214
 116083110.21547  90466051.30843  23560574.2894                   23560571.2934
 113913158.00848  88775810.45546  21537365.5394                   21537364.9304
 108251311.00447  84363234.38646  21562955.1564                   21562951.7854
 103962106.76648  81022162.54347  20341504.1564                   20341501.1604
 11  8  1  3 38  0.0000000  0  7G02G29G26G10G25G12G05
 102342708.84848  79760073.47746  21609273.5004                   21609267.6604
 121992120.98047  95069169.54445  22249970.6334                   22249968.1644
 130886468.85247 102001210.73744  23519076.8054                   23519075.3134
 116153526.07447  90520920.81643  23573974.0004                   23573970.3204
 113885486.01648  88754247.87346  21532099.6024                   21532098.9224
 108284872.71547  84389386.36546  21569341.7274                   21569338.8014
 103956544.92648  81017828.64247  20340445.8984                   20340442.7854
 11  8  1  3 38 30.0000000  0  7G02G29G26G10G25G12G05
 102349365.46948  79765260.45346  21610539.5944                   21610534.7544
 121878065.22347  94980294.97645  22228266.0314                   22228264.2114
 130756570.77747 101899991.51344  23494358.7424                   23494356.2624
 116224087.89546  90575904.05843  23587401.4454                   23587397.6454
 113858381.03948  88733127.12346  21526941.5004                   21526941.4844
 108318827.73447  84415844.81446  21575803.0704                   21575800.1294
 103951484.98048  81013885.83547  20339482.7974                   20339479.5354
 11  8  1  3 39  0.0000000  0  7G02G29G26G10G25G12G05
 102356117.84448  79770522.04546  21611824.8524                   21611819.3014
 121764122.43847  94891508.42045  22206583.6334                   22206581.1254
 130626763.57047 101798843.11744  23469657.0864                   23469655.0864
 116294800.27047  90631004.61043  23600857.3284                   23600854.3484
 113831849.71548  88712453.38246  21521892.8524                   21521892.3754
 108353180.57447  84442613.26146  21582340.2034                   21582336.8914
 103946932.82048  81010338.71147  20338616.5084                   20338613.3404
 11  8  1  3 39 30.0000000  0  7G02G29G26G10G25G12G05
 102362963.16048  79775856.06446  21613126.9614                   21613122.1604
 121650291.68047  94802809.17245  22184922.2424                   22184919.6374
 130497048.03547 101697766.12244  23444973.1564                   23444971.1524
 116365658.02346  90686218.45944  23614340.9064                   23614338.4184
 113805888.64848  88692223.97446  21516952.6094                   21516951.8594
 108387926.06647  84469687.64546  21588952.3204                   21588949.0274
 103942884.38748  81007184.09347  20337846.5084                   20337842.8134
 11  8  1  3 40  0.0000000  0  7G02G29G26G10G25G12G05
 102369901.90247  79781262.88346  21614447.5944                   21614442.2384
 121536575.66847  94714199.33245  22163282.5164                   22163280.1604
 130367428.19547 101596763.69144  23420307.0004                   23420305.2424
 116436659.07446  90741543.91443  23627852.1484                   23627848.7544
 113780497.62948  88672438.77646  21512121.0554                   21512120.6844
 108423061.77047  84497066.12046  21595638.2504                   21595635.0274
 103939338.17247  81004420.81547  20337171.3594                   20337168.1334
 11  8  1  3 40 30.0000000  0  7G02G29G26G10G25G12G05
 102376937.01247  79786744.77646  21615786.6484                   21615781.4614
 121422979.21147  94625682.64545  22141666.2034                   22141663.1414
 130237910.54747 101495840.92544  23395660.3284                   23395658.6094
 116507803.47346  90796981.08843  23641390.2664                   23641387.1724
 113755678.73448  88653099.38146  21507397.8364                   21507397.5394
 108458587.94547  84524748.84646  21602398.5864                   21602395.6454
 103936295.26248  81002049.71647  20336592.4534                   20336589.2114
 11  8  1  3 41  0.0000000  0  7G02G29G26G10G25G12G05
 102384066.36747  79792300.12046  21617143.0944                   21617137.7934
 121309502.46947  94537259.23045  22120071.6884                   22120069.4454
 130108496.97347 101394999.22244  23371034.1254                   23371031.6024
 116579086.83646  90852526.48943  23654955.2034                   23654952.5784
 113731429.38748  88634203.78846  21502783.5944                   21502783.1914
 108494500.41847  84552732.56946  21609232.8524                   21609229.5434
 103933752.38348  81000068.26947  20336108.4454                   20336104.9694
 11  8  1  3 41 30.0000000  0  7G02G29G26G10G25G12G05
 102391293.18047  79797931.40246  21618518.0164                   21618513.0514
 121196150.86347  94448933.33845  22098501.8834                   22098499.3634
 129979194.10547 101294243.80144  23346428.4454                   23346425.6174
 116650509.79346  90908180.71743  23668545.8204                   23668543.9534
 113707752.00048  88615753.88846  21498277.9144                   21498277.4964
 108530799.49247  84581017.55846  21616139.8134                   21616137.0274
 103931710.77048  80998477.40147  20335720.0634                   20335716.5864
 11  8  1  3 42  0.0000000  0  7G02G29G26G10G25G12G05
 102398613.59448  79803635.62146  21619911.7894                   21619906.1844
 121082922.32847  94360703.32346  22076954.8524                   22076952.4064
 129850001.59447 101193574.36744  23321844.1644                   23321841.7814
 116722065.78546  90963938.62943  23682163.1954                   23682160.4024
 113684641.64848  88597745.83146  21493880.3364                   21493879.7504
 108567478.33247  84609598.46746  21623119.8984                   21623117.3444
 103930164.56348  80997272.56647  20335425.5474                   20335422.5434
 11  8  1  3 42 30.0000000  0  7G02G29G26G10G25G12G05
 102406024.69147  79809410.51246  21621321.7114                   21621316.7034
 120969816.19547  94272568.70846  22055432.1334                   22055429.2114
 129720920.34447 101092991.65344  23297281.1334                   23297278.1294
 116793749.29346  91019795.84543  23695804.3524                   23695800.8014
 113662094.79348  88580176.84946  21489589.7734                   21489589.2584
 108604531.80547  84638471.27746  21630170.6954                   21630167.7344
 103929109.03948  80996450.09147  20335224.7114                   20335221.4024
 11  8  1  3 43  0.0000000  0  7G02G29G26G10G25G12G05
 102413529.81347  79815258.65746  21622749.7034                   21622744.8054
 120856837.84847  94184533.65846  22033933.0704                   22033930.0824
 129591957.28947 100992501.00844  23272739.6024                   23272737.6724
 116865561.26246  91075753.25443  23709469.9064                   23709466.4804
 113640114.02048  88563048.97846  21485406.6954                   21485406.1054
 108641960.69948  84667636.64246  21637293.3444                   21637290.3794
 103928546.59848  80996011.82947  20335117.8594                   20335114.6524
 11  8  1  3 43 30.0000000  0  7G02G29G26G10G25G12G05
 103996549.21947  81048780.26146  21923988.5394                   21923983.5314
 122319413.59447  95324203.10446  22312251.8054                   22312248.8754
 131038540.94147 102119709.09944  23548015.5004                   23548013.4414
 118512917.20746  92359407.27743  24022950.8984                   24022948.3834
 115194119.47747  89773962.32546  21781123.9144                   21781123.4614
 110255181.02747  85924691.42746  21944278.9224                   21944276.1134
 105503895.63748  82223556.54347  20634896.7504                   20634893.3164
 11  8  1  3 44  0.0000000  0  7G02G29G26G10G25G12G05
 104004243.77747  81054776.01646  21925452.7894                   21925447.5824
 122206698.24647  95236373.00946  22290802.6484                   22290800.0744
 130909826.50847 102019412.17444  23523522.2274                   23523519.0664
 118584979.94146  92415560.00643  24036664.8134                   24036660.8164
 115173269.17247  89757715.32646  21777156.5554                   21777156.1954
 110293353.14147  85954435.92246  21951543.4614                   21951539.9804
 105504314.58248  82223883.00047  20634976.5164                   20634973.3594
